[[{"header":{"parameterUnit":"m.s-1","parameterCategory":1,"la1":30.6,"la2":28.766,"lo1":-90.7593,"lo2":-88.6598,"dy":0.0162,"dx":0.0183,"nx":116,"ny":114,"refTime":"2023-08-12T12:00:00:Z","depth":0,"parameterNumber":2,"parameterNumberName":"U-component_of_WINDS"},"data":[0.0,0.0,0.0,0.0,0.0,0.0,0.0,0.0,0.0,0.0,0.0,0.0,0.0,0.0,0.0,0.0,0.0,0.0,0.0,0.0,0.0,0.0,0.0,0.0,0.0,0.0,0.0,0.0,0.0,0.0,0.0,0.0,0.0,0.0,0.0,0.0,0.0,0.0,0.0,0.0,0.0,0.0,0.0,0.0,0.0,0.0,0.0,0.0,0.0,0.0,0.0,0.0,0.0,0.0,0.0,0.0,0.0,0.0,0.0,0.0,0.0,0.0,0.0,0.0,0.0,0.0,0.0,0.0,0.0,0.0,0.0,0.0,0.0,0.0,0.0,0.0,0.0,0.0,0.0,0.0,0.0,0.0,0.0,0.0,0.0,0.0,0.0,0.0,0.0,0.0,0.0,0.0,0.0,0.0,0.0,0.0,0.0,0.0,0.0,0.0,0.0,0.0,0.0,0.0,0.0,0.0,0.0,0.0,0.0,0.0,0.0,0.0,0.0,0.0,0.0,0.0,0.0,0.0,0.0,0.0,0.0,0.0,0.0,0.0,0.0,0.0,0.0,0.0,0.0,0.0,0.0,0.0,0.0,0.0,0.0,0.0,0.0,0.0,0.0,0.0,0.0,0.0,0.0,0.0,0.0,0.0,0.0,0.0,0.0,0.0,0.0,0.0,0.0,0.0,0.0,0.0,0.0,0.0,0.0,0.0,0.0,0.0,0.0,0.0,0.0,0.0,0.0,0.0,0.0,0.0,0.0,0.0,0.0,0.0,0.0,0.0,0.0,0.0,0.0,0.0,0.0,0.0,0.0,0.0,0.0,0.0,0.0,0.0,0.0,0.0,0.0,0.0,0.0,0.0,0.0,0.0,0.0,0.0,0.0,0.0,0.0,0.0,0.0,0.0,0.0,0.0,0.0,0.0,0.0,0.0,0.0,0.0,0.0,0.0,0.0,0.0,0.0,0.0,0.0,0.0,0.0,0.0,0.0,0.0,0.0,0.0,0.0,0.0,0.0,0.0,0.0,0.0,0.0,0.0,0.0,0.0,0.0,0.0,0.0,0.0,0.0,0.0,0.0,0.0,0.0,0.0,0.0,0.0,0.0,0.0,0.0,0.0,0.0,0.0,0.0,0.0,0.0,0.0,0.0,0.0,0.0,0.0,0.0,0.0,0.0,0.0,0.0,0.0,0.0,0.0,0.0,0.0,0.0,0.0,0.0,0.0,0.0,0.0,0.0,0.0,0.0,0.0,0.0,0.0,0.0,0.0,0.0,0.0,0.0,0.0,0.0,0.0,0.0,0.0,0.0,0.0,0.0,0.0,0.0,0.0,0.0,0.0,0.0,0.0,0.0,0.0,0.0,0.0,0.0,0.0,0.0,0.0,0.0,0.0,0.0,0.0,0.0,0.0,0.0,0.0,0.0,0.0,0.0,0.0,0.0,0.0,0.0,0.0,0.0,0.0,0.0,0.0,0.0,0.0,0.0,0.0,0.0,0.0,0.0,0.0,0.0,0.0,0.0,0.0,0.0,0.0,0.0,0.0,0.0,0.0,0.0,0.0,0.0,0.0,0.0,0.0,0.0,0.0,0.0,0.0,0.0,0.0,0.0,0.0,0.0,0.0,0.0,0.0,0.0,0.0,0.0,0.0,0.0,0.0,0.0,0.0,0.0,0.0,0.0,0.0,0.0,0.0,0.0,0.0,0.0,0.0,0.0,0.0,0.0,0.0,0.0,0.0,0.0,0.0,0.0,0.0,0.0,0.0,0.0,0.0,0.0,0.0,0.0,0.0,0.0,0.0,0.0,0.0,0.0,0.0,0.0,0.0,0.0,0.0,0.0,0.0,0.0,0.0,0.0,0.0,0.0,0.0,0.0,0.0,0.0,0.0,0.0,0.0,0.0,0.0,0.0,0.0,0.0,0.0,0.0,0.0,0.0,0.0,0.0,0.0,0.0,0.0,0.0,0.0,0.0,0.0,0.0,0.0,0.0,0.0,0.0,0.0,0.0,0.0,0.0,0.0,0.0,0.0,0.0,0.0,0.0,0.0,0.0,0.0,0.0,0.0,0.0,0.0,0.0,0.0,0.0,0.0,0.0,0.0,0.0,0.0,0.0,0.0,0.0,0.0,0.0,0.0,0.0,0.0,0.0,0.0,0.0,0.0,0.0,0.0,0.0,0.0,0.0,0.0,0.0,0.0,0.0,0.0,0.0,0.0,0.0,0.0,0.0,0.0,0.0,0.0,0.0,0.0,0.0,0.0,0.0,0.0,0.0,0.0,0.0,0.0,0.0,0.0,0.0,0.0,0.0,0.0,0.0,0.0,0.0,0.0,0.0,0.0,0.0,0.0,0.0,0.0,0.0,0.0,0.0,0.0,0.0,0.0,0.0,0.0,0.0,0.0,0.0,0.0,0.0,0.0,0.0,0.0,0.0,0.0,0.0,0.0,0.0,0.0,0.0,0.0,0.0,0.0,0.0,0.0,0.0,0.0,0.0,0.0,0.0,0.0,0.0,0.0,0.0,0.0,0.0,0.0,0.0,0.0,0.0,0.0,0.0,0.0,0.0,0.0,0.0,0.0,0.0,0.0,0.0,0.0,0.0,0.0,0.0,0.0,0.0,0.0,0.0,0.0,0.0,0.0,0.0,0.0,0.0,0.0,0.0,0.0,0.0,0.0,0.0,0.0,0.0,0.0,0.0,0.0,0.0,0.0,0.0,0.0,0.0,0.0,0.0,0.0,0.0,0.0,0.0,0.0,0.0,0.0,0.0,0.0,0.0,0.0,0.0,0.0,0.0,0.0,0.0,0.0,0.0,0.0,0.0,0.0,0.0,0.0,0.0,0.0,0.0,0.0,0.0,0.0,0.0,0.0,0.0,0.0,0.0,0.0,0.0,0.0,0.0,0.0,0.0,0.0,0.0,0.0,0.0,0.0,0.0,0.0,0.0,0.0,0.0,0.0,0.0,0.0,0.0,0.0,0.0,0.0,0.0,0.0,0.0,0.0,0.0,0.0,0.0,0.0,0.0,0.0,0.0,0.0,0.0,0.0,0.0,0.0,0.0,0.0,0.0,0.0,0.0,0.0,0.0,0.0,0.0,0.0,0.0,0.0,0.0,0.0,0.0,0.0,0.0,0.0,0.0,0.0,0.0,0.0,0.0,0.0,0.0,0.0,0.0,0.0,0.0,0.0,0.0,0.0,0.0,0.0,0.0,0.0,0.0,0.0,0.0,0.0,0.0,0.0,0.0,0.0,0.0,0.0,0.0,0.0,0.0,0.0,0.0,0.0,0.0,0.0,0.0,0.0,0.0,0.0,0.0,0.0,0.0,0.0,0.0,0.0,0.0,0.0,0.0,0.0,0.0,0.0,0.0,0.0,0.0,0.0,0.0,0.0,0.0,0.0,0.0,0.0,0.0,0.0,0.0,0.0,0.0,0.0,0.0,0.0,0.0,0.0,0.0,0.0,0.0,0.0,0.0,0.0,0.0,0.0,0.0,0.0,0.0,0.0,0.0,0.0,0.0,0.0,0.0,0.0,0.0,0.0,0.0,0.0,0.0,0.0,0.0,0.0,0.0,0.0,0.0,0.0,0.0,0.0,0.0,0.0,0.0,0.0,0.0,0.0,0.0,0.0,0.0,0.0,0.0,0.0,0.0,0.0,0.0,0.0,0.0,0.0,0.0,0.0,0.0,0.0,0.0,0.0,0.0,0.0,0.0,0.0,0.0,0.0,0.0,0.0,0.0,0.0,0.0,0.0,0.0,0.0,0.0,0.0,0.0,0.0,0.0,0.0,0.0,0.0,0.0,0.0,0.0,0.0,0.0,0.0,0.0,0.0,0.0,0.0,0.0,0.0,0.0,0.0,0.0,0.0,0.0,0.0,0.0,0.0,0.0,0.0,0.0,0.0,0.0,0.0,0.0,0.0,0.0,0.0,0.0,0.0,0.0,0.0,0.0,0.0,0.0,0.0,0.0,0.0,0.0,0.0,0.0,0.0,0.0,0.0,0.0,0.0,0.0,0.0,0.0,0.0,0.0,0.0,0.0,0.0,0.0,0.0,0.0,0.0,0.0,0.0,0.0,0.0,0.0,0.0,0.0,0.0,0.0,0.0,0.0,0.0,0.0,0.0,0.0,0.0,0.0,0.0,0.0,0.0,0.0,0.0,0.0,0.0,0.0,0.0,0.0,0.0,0.0,0.0,0.0,0.0,0.0,0.0,0.0,0.0,0.0,0.0,0.0,0.0,0.0,0.0,0.0,0.0,0.0,0.0,0.0,0.0,0.0,0.0,0.0,0.0,0.0,0.0,0.0,0.0,0.0,0.0,0.0,0.0,0.0,0.0,0.0,0.0,0.0,0.0,0.0,0.0,0.0,0.0,0.0,0.0,0.0,0.0,0.0,0.0,0.0,0.0,0.0,0.0,0.0,0.0,0.0,0.0,0.0,0.0,0.0,0.0,0.0,0.0,0.0,0.0,0.0,0.0,0.0,0.0,0.0,0.0,0.0,0.0,0.0,0.0,0.0,0.0,0.0,0.0,0.0,0.0,0.0,0.0,0.0,0.0,0.0,0.0,0.0,0.0,0.0,0.0,0.0,0.0,0.0,0.0,0.0,0.0,0.0,0.0,0.0,0.0,0.0,0.0,0.0,0.0,0.0,0.0,0.0,0.0,0.0,0.0,0.0,0.0,0.0,0.0,0.0,0.0,0.0,0.0,0.0,0.0,0.0,0.0,0.0,0.0,0.0,0.0,0.0,0.0,0.0,0.0,0.0,0.0,0.0,0.0,0.0,0.0,0.0,0.0,0.0,0.0,0.0,0.0,0.0,0.0,0.0,0.0,0.0,0.0,0.0,0.0,0.0,0.0,0.0,0.0,0.0,0.0,0.0,0.0,0.0,0.0,0.0,0.0,0.0,0.0,0.0,0.0,0.0,0.0,0.0,0.0,0.0,0.0,0.0,0.0,0.0,0.0,0.0,0.0,0.0,0.0,0.0,0.0,0.0,0.0,0.0,0.0,0.0,0.0,0.0,0.0,0.0,0.0,0.0,0.0,0.0,0.0,0.0,0.0,0.0,0.0,0.0,0.0,0.0,0.0,0.0,0.0,0.0,0.0,0.0,0.0,0.0,0.0,0.0,0.0,0.0,0.0,0.0,0.0,0.0,0.0,0.0,0.0,0.0,0.0,0.0,0.0,0.0,0.0,0.0,0.0,0.0,0.0,0.0,0.0,0.0,0.0,0.0,0.0,0.0,0.0,0.0,0.0,0.0,0.0,0.0,0.0,0.0,0.0,0.0,0.0,0.0,0.0,0.0,0.0,0.0,0.0,0.0,0.0,0.0,0.0,0.0,0.0,0.0,0.0,0.0,0.0,0.0,0.0,0.0,0.0,0.0,0.0,0.0,0.0,0.0,0.0,0.0,0.0,0.0,0.0,0.0,0.0,0.0,0.0,0.0,0.0,0.0,0.0,0.0,0.0,0.0,0.0,0.0,0.0,0.0,0.0,0.0,0.0,0.0,0.0,0.0,0.0,0.0,0.0,0.0,0.0,0.0,0.0,0.0,0.0,0.0,0.0,0.0,0.0,0.0,0.0,0.0,0.0,0.0,0.0,0.0,0.0,0.0,0.0,0.0,0.0,0.0,0.0,0.0,0.0,0.0,0.0,0.0,0.0,0.0,0.0,0.0,0.0,0.0,0.0,0.0,0.0,0.0,0.0,0.0,0.0,0.0,0.0,0.0,0.0,0.0,0.0,0.0,0.0,0.0,0.0,0.0,0.0,0.0,0.0,0.0,0.0,0.0,0.0,0.0,0.0,0.0,0.0,0.0,0.0,0.0,0.0,0.0,0.0,0.0,0.0,0.0,0.0,0.0,0.0,0.0,0.0,0.0,0.0,0.0,0.0,0.0,0.0,0.0,0.0,0.0,0.0,0.0,0.0,0.0,0.0,0.0,0.0,0.0,0.0,0.0,0.0,0.0,0.0,0.0,0.0,0.0,0.0,0.0,0.0,0.0,0.0,0.0,0.0,0.0,0.0,0.0,0.0,0.0,0.0,0.0,0.0,0.0,0.0,0.0,0.0,0.0,0.0,0.0,0.0,0.0,0.0,0.0,0.0,-3.4765,0.0,0.0,0.0,0.0,0.0,0.0,0.0,0.0,0.0,0.0,0.0,0.0,0.0,0.0,0.0,0.0,0.0,0.0,0.0,0.0,0.0,0.0,0.0,0.0,0.0,0.0,0.0,0.0,0.0,0.0,0.0,0.0,0.0,0.0,0.0,0.0,0.0,0.0,0.0,-3.5584,-3.5815,-3.5645,-3.5385,-3.5569,-3.6197,0.0,0.0,0.0,0.0,0.0,0.0,0.0,0.0,0.0,0.0,0.0,0.0,0.0,0.0,0.0,0.0,0.0,0.0,0.0,0.0,0.0,0.0,0.0,0.0,0.0,0.0,0.0,0.0,0.0,0.0,0.0,0.0,0.0,0.0,0.0,0.0,0.0,0.0,0.0,0.0,0.0,0.0,0.0,0.0,0.0,0.0,0.0,0.0,0.0,0.0,0.0,0.0,0.0,0.0,0.0,0.0,0.0,0.0,0.0,0.0,0.0,0.0,0.0,0.0,0.0,0.0,0.0,0.0,0.0,0.0,0.0,-3.5611,0.0,0.0,0.0,0.0,0.0,0.0,0.0,0.0,0.0,0.0,0.0,0.0,0.0,0.0,0.0,0.0,0.0,0.0,0.0,0.0,0.0,0.0,0.0,0.0,0.0,0.0,0.0,0.0,0.0,0.0,0.0,0.0,0.0,0.0,0.0,0.0,0.0,-3.5246,-3.5794,-3.5926,-3.5671,-3.5554,-3.578,-3.6336,-3.6336,0.0,0.0,0.0,0.0,0.0,0.0,0.0,0.0,0.0,0.0,0.0,0.0,0.0,0.0,0.0,0.0,0.0,0.0,0.0,0.0,0.0,0.0,0.0,0.0,0.0,0.0,0.0,0.0,0.0,0.0,0.0,0.0,0.0,0.0,0.0,0.0,0.0,0.0,0.0,0.0,0.0,0.0,0.0,0.0,0.0,0.0,0.0,0.0,0.0,0.0,0.0,0.0,0.0,0.0,0.0,0.0,0.0,0.0,0.0,0.0,0.0,0.0,0.0,-3.6641,-3.6673,-3.6547,-3.6736,-3.683,-3.6877,-3.6568,-3.6642,-3.6892,-3.6179,0.0,0.0,0.0,0.0,0.0,0.0,0.0,0.0,0.0,0.0,0.0,0.0,0.0,0.0,0.0,0.0,0.0,0.0,0.0,0.0,0.0,-3.4923,-3.4667,-3.4399,-3.3899,-3.3471,0.0,0.0,0.0,0.0,0.0,0.0,0.0,-3.471,-3.4993,-3.5467,-3.5557,-3.5569,-3.5537,-3.5504,-3.5537,-3.5634,-3.5634,-3.5634,-3.5619,0.0,0.0,0.0,0.0,0.0,0.0,0.0,0.0,0.0,0.0,0.0,0.0,0.0,0.0,0.0,0.0,0.0,0.0,0.0,0.0,0.0,0.0,0.0,0.0,0.0,0.0,0.0,0.0,0.0,0.0,0.0,0.0,0.0,0.0,0.0,0.0,0.0,0.0,0.0,0.0,0.0,-3.4912,-3.4665,0.0,0.0,0.0,0.0,0.0,0.0,0.0,0.0,0.0,0.0,0.0,0.0,0.0,-3.715,-3.7184,-3.7368,-3.7469,-3.7503,-3.767,-3.7788,-3.7938,-3.7971,-3.8165,-3.8472,-3.8267,0.0,-3.6723,-3.6615,0.0,0.0,0.0,0.0,0.0,0.0,0.0,0.0,0.0,0.0,0.0,0.0,0.0,0.0,0.0,0.0,0.0,0.0,0.0,0.0,0.0,-3.4521,-3.4201,-3.3771,-3.3288,-3.2888,-3.2574,0.0,0.0,0.0,0.0,0.0,-3.4566,-3.4956,-3.5269,-3.5504,-3.5504,-3.5504,-3.5504,-3.5504,-3.5504,-3.5504,-3.5504,-3.5504,-3.5504,-3.5572,0.0,0.0,0.0,0.0,0.0,0.0,0.0,0.0,0.0,0.0,0.0,0.0,0.0,0.0,0.0,0.0,0.0,0.0,0.0,0.0,0.0,0.0,0.0,0.0,0.0,0.0,0.0,0.0,0.0,0.0,0.0,0.0,0.0,0.0,0.0,0.0,0.0,0.0,0.0,-3.5092,-3.5407,-3.5183,-3.5737,-3.6127,0.0,0.0,0.0,0.0,0.0,0.0,0.0,0.0,0.0,-3.7404,-3.7404,-3.7404,-3.7404,-3.7605,-3.7707,-3.7707,-3.7827,-3.7962,-3.8047,-3.8047,-3.8129,-3.8277,-3.8211,-3.7859,-3.7407,-3.7615,-3.7519,-3.721,0.0,0.0,0.0,0.0,-3.8106,-3.8586,0.0,0.0,0.0,0.0,0.0,0.0,0.0,0.0,0.0,0.0,0.0,0.0,-3.4399,-3.4101,-3.372,-3.3171,-3.2753,-3.2459,-3.2351,-3.2535,0.0,0.0,0.0,-3.4593,-3.4741,-3.5235,-3.5504,-3.5504,-3.5504,-3.5504,-3.5504,-3.5504,-3.5594,-3.5759,-3.5759,-3.5669,-3.5504,-3.5504,-3.5504,-3.5504,0.0,0.0,0.0,0.0,0.0,0.0,0.0,0.0,0.0,0.0,0.0,0.0,0.0,0.0,0.0,0.0,0.0,0.0,0.0,0.0,0.0,0.0,0.0,0.0,0.0,0.0,0.0,0.0,0.0,0.0,0.0,0.0,0.0,0.0,0.0,0.0,0.0,-3.5593,-3.5937,-3.5968,-3.6432,-3.6716,0.0,0.0,0.0,0.0,0.0,0.0,-3.7913,-3.7913,-3.7913,-3.7913,-3.7913,-3.7913,-3.7913,-3.8047,-3.8116,-3.8151,-3.8239,-3.8307,-3.8376,-3.8376,-3.841,-3.8444,-3.8444,-3.8444,-3.8463,-3.8448,-3.8277,-3.8059,-3.8325,-3.8541,-3.8693,-3.8716,-3.9106,-3.9615,0.0,0.0,0.0,0.0,0.0,0.0,0.0,0.0,0.0,0.0,0.0,-3.4521,-3.4,-3.3694,-3.3303,-3.2683,-3.237,-3.2353,-3.2658,-3.2571,-3.3066,-3.4354,-3.4474,-3.4786,-3.5444,-3.5489,-3.5504,-3.5504,-3.5504,-3.5504,-3.5504,-3.5504,-3.5833,-3.6432,-3.6432,-3.6088,-3.5504,-3.5504,-3.5504,-3.5504,-3.5504,0.0,0.0,0.0,0.0,0.0,0.0,0.0,0.0,0.0,0.0,0.0,0.0,0.0,0.0,0.0,0.0,0.0,0.0,0.0,0.0,0.0,0.0,0.0,0.0,0.0,0.0,0.0,0.0,0.0,0.0,0.0,0.0,0.0,0.0,0.0,0.0,0.0,0.0,-3.724,-3.7345,0.0,0.0,0.0,0.0,-3.8347,-3.8945,-3.932,-3.932,-3.932,-3.932,-3.932,-3.932,-3.932,-3.932,-3.932,-3.932,-3.932,-3.932,-3.9412,-3.9626,-3.9626,-3.9697,-3.9905,-3.9905,-3.9905,-3.9798,-3.8681,-3.8213,-3.8246,-3.8623,-3.8979,-3.9314,-3.9887,-4.0531,-4.1144,0.0,0.0,0.0,0.0,0.0,0.0,0.0,0.0,0.0,-3.4763,-3.4399,-3.4,-3.3555,-3.3156,-3.2765,-3.237,-3.2094,-3.2127,-3.2541,-3.2931,-3.3544,-3.4474,-3.4906,-3.525,-3.5504,-3.5504,-3.5504,-3.5504,-3.5504,-3.5729,-3.6133,-3.6133,-3.6477,-3.7075,-3.7075,-3.6956,-3.6731,-3.6731,-3.6731,-3.6731,-3.6731,-3.6731,0.0,0.0,0.0,0.0,0.0,0.0,0.0,0.0,0.0,0.0,0.0,0.0,0.0,0.0,0.0,0.0,0.0,0.0,0.0,0.0,0.0,0.0,0.0,0.0,0.0,0.0,0.0,0.0,0.0,0.0,0.0,0.0,0.0,0.0,0.0,0.0,0.0,-3.7375,-3.7778,0.0,-3.8033,-3.8661,-3.905,-3.905,-3.9239,-3.9388,-3.9388,-3.9388,-3.9388,-3.9388,-3.9388,-3.9388,-3.9388,-3.9388,-3.9388,-3.9388,-3.9388,-3.946,-3.9517,-3.9517,-3.9568,-3.964,-3.9732,-3.9803,-3.9793,-3.9726,-3.9699,-3.9733,-4.0119,-4.0469,-4.0798,-4.0892,-4.1295,-4.1836,0.0,0.0,0.0,0.0,0.0,0.0,0.0,0.0,0.0,-3.4546,-3.4126,-3.3684,-3.3282,-3.2807,-3.241,-3.215,-3.1927,-3.2103,-3.2781,-3.3245,-3.3888,-3.4786,-3.5265,-3.5504,-3.5504,-3.5504,-3.5504,-3.5504,-3.5729,-3.6058,-3.6492,-3.6701,-3.7135,-3.7749,-3.7749,-3.7868,-3.8078,-3.8078,-3.7823,-3.7404,-3.7404,-3.7404,-3.7404,0.0,0.0,0.0,0.0,0.0,0.0,0.0,0.0,0.0,0.0,0.0,0.0,0.0,0.0,0.0,0.0,0.0,0.0,0.0,0.0,0.0,0.0,0.0,0.0,0.0,0.0,0.0,0.0,0.0,0.0,0.0,0.0,0.0,0.0,0.0,-3.7823,-3.8063,-3.8482,-3.8736,-3.8736,-3.9155,-3.9388,-3.9388,-3.9388,-3.9514,-3.9738,-3.9753,-3.9843,-4.0068,-4.0083,-4.0083,-4.0083,-4.0083,-4.0083,-4.0083,-4.0083,-4.0083,-4.0083,-4.0083,-4.0083,-4.0083,-4.0359,-4.0504,-4.0612,-4.1236,-4.141,-4.1314,-4.1281,-4.1472,-4.1787,-4.1865,-4.2255,-4.2771,0.0,0.0,0.0,0.0,0.0,0.0,0.0,-3.5268,-3.4947,-3.4546,-3.4025,-3.3529,-3.3123,-3.266,-3.2274,-3.2025,-3.187,-3.2284,-3.341,-3.3499,-3.4098,-3.5444,-3.5504,-3.5504,-3.5504,-3.5504,-3.5504,-3.5504,-3.6163,-3.6492,-3.6537,-3.715,-3.7793,-3.8422,-3.8422,-3.8796,-3.9388,-3.9388,-3.8661,-3.7464,-3.7464,-3.7464,-3.7464,0.0,0.0,0.0,0.0,0.0,0.0,0.0,0.0,0.0,0.0,0.0,0.0,0.0,0.0,0.0,0.0,0.0,0.0,0.0,0.0,0.0,0.0,0.0,0.0,0.0,0.0,0.0,0.0,0.0,0.0,0.0,0.0,0.0,-3.8422,-3.8422,-3.8661,-3.9298,-3.9388,-3.9388,-3.9454,-3.9454,-3.9454,-3.9448,-3.9448,-3.9768,-4.0397,-4.0427,-4.0726,-4.1392,-4.1422,-4.1422,-4.1422,-4.1422,-4.1422,-4.1422,-4.1422,-4.1422,-4.1422,-4.1422,-4.1422,-4.1422,-4.1798,-4.2095,-4.2352,-4.3078,-4.321,-4.2835,-4.1988,-4.1834,-4.2206,-4.2851,-4.3416,-4.3889,0.0,0.0,0.0,0.0,0.0,0.0,0.0,-3.5128,-3.478,-3.4275,-3.3745,-3.324,-3.278,-3.2358,-3.2038,-3.187,-3.1698,-3.2122,-3.341,-3.3499,-3.4098,-3.5444,-3.5504,-3.5504,-3.5504,-3.5504,-3.5504,-3.5504,-3.6163,-3.6716,-3.7165,-3.7823,-3.8482,-3.914,-3.914,-3.9245,-3.9388,-3.9388,-3.9215,-3.8871,-3.8871,-3.8871,-3.8871,0.0,0.0,0.0,0.0,0.0,0.0,0.0,0.0,0.0,0.0,0.0,0.0,0.0,0.0,0.0,0.0,0.0,0.0,0.0,0.0,0.0,0.0,0.0,0.0,0.0,0.0,0.0,0.0,0.0,0.0,0.0,0.0,-3.914,-3.914,-3.914,-3.92,-3.9394,-3.9388,-3.9604,-4.0083,-4.0127,-4.0337,-4.0801,-4.0846,-4.092,-4.11,-4.1115,-4.119,-4.1369,-4.1422,-4.1422,-4.1422,-4.1422,-4.1422,-4.1422,-4.1422,-4.1422,-4.1422,-4.1422,-4.1422,-4.1422,-4.1663,-4.1888,-4.2132,-4.2721,-4.3075,-4.3242,-4.3001,-4.2864,-4.2867,-4.3204,-4.3684,-4.4207,0.0,0.0,0.0,0.0,0.0,0.0,0.0,-3.5152,-3.4811,-3.4325,-3.3745,-3.324,-3.285,-3.2345,-3.1968,-3.1898,-3.1655,-3.2064,-3.341,-3.4023,-3.4696,-3.5474,-3.5504,-3.5504,-3.5504,-3.5504,-3.5504,-3.5504,-3.6417,-3.706,-3.7434,-3.8377,-3.9035,-3.9388,-3.9388,-3.9388,-3.9388,-3.9388,-3.9388,-3.9388,-3.9388,-3.9388,-3.9388,-3.9388,-3.917,-3.8826,-3.8826,-3.8392,-3.7823,-3.7823,0.0,0.0,0.0,0.0,0.0,0.0,0.0,0.0,0.0,0.0,0.0,0.0,0.0,0.0,0.0,0.0,0.0,0.0,0.0,0.0,0.0,0.0,0.0,0.0,-3.9649,-3.9828,-3.9828,-3.9828,-3.9828,-3.9828,-4.0068,-4.0382,-4.0771,-4.0816,-4.0965,-4.1354,-4.1422,-4.1542,-4.1811,-4.1826,-4.1908,-4.2192,-4.2207,-4.2207,-4.2207,-4.2207,-4.2207,-4.2207,-4.2207,-4.2207,-4.2207,-4.2207,-4.2207,-4.2207,-4.2453,-4.2682,-4.3007,-4.3586,-4.3944,0.0,0.0,0.0,0.0,0.0,-4.4771,-4.4913,0.0,0.0,0.0,0.0,0.0,0.0,0.0,-3.5268,-3.497,-3.457,-3.3949,-3.3398,-3.3107,-3.2456,-3.2025,-3.1968,-3.1668,-3.2064,-3.341,-3.4756,-3.5504,-3.5504,-3.5504,-3.5504,-3.5504,-3.5504,-3.5504,-3.5504,-3.6791,-3.7404,-3.7434,-3.876,-3.9388,-3.9388,-3.9388,-3.9388,-3.9388,-3.9388,-3.9388,-3.9388,-3.9388,-3.9388,-3.9388,-3.9388,-3.9388,-3.9388,-3.9388,-3.9035,-3.8497,-3.8497,0.0,0.0,0.0,0.0,0.0,0.0,0.0,0.0,0.0,0.0,0.0,0.0,0.0,0.0,0.0,0.0,0.0,0.0,0.0,0.0,0.0,0.0,0.0,0.0,-4.0127,-4.0502,-4.0502,-4.0576,-4.0591,-4.0516,-4.1025,-4.1452,-4.1527,-4.1527,-4.1519,-4.1594,-4.1594,-4.1848,-4.2485,0.0,0.0,0.0,0.0,-4.3439,-4.3514,-4.3514,-4.3514,-4.3514,-4.3514,-4.3514,-4.3514,-4.3514,-4.3514,-4.3554,-4.3732,-4.4016,-4.4427,-4.4942,-4.5236,-4.5344,-4.4863,-4.4984,-4.5498,-4.6274,-4.6245,-4.5821,0.0,0.0,0.0,0.0,0.0,0.0,0.0,-3.5268,-3.4994,-3.4691,-3.4075,-3.3497,-3.3071,-3.2508,-3.2066,-3.187,-3.1626,-3.2064,-3.341,-3.4756,-3.5504,-3.5504,-3.5504,-3.5504,-3.5504,-3.5504,-3.5504,-3.5504,-3.6791,-3.7404,-3.7434,-3.876,-3.9388,-3.9388,-3.9388,-3.9388,-3.9388,-3.9388,-3.9388,-3.9388,-3.9388,-3.9388,-3.9388,-3.9388,-3.9388,-3.9388,-3.9388,-3.9334,-3.923,-3.923,-3.914,-3.9,-3.9,-3.9,0.0,0.0,0.0,0.0,0.0,0.0,0.0,0.0,0.0,0.0,0.0,0.0,0.0,0.0,0.0,0.0,0.0,0.0,0.0,-4.092,-4.1115,-4.119,-4.119,-4.1692,-4.1826,-4.125,-4.1309,-4.1632,-4.2156,-4.2216,-4.2387,-4.291,-4.2916,-4.2976,-4.3135,-4.315,-4.3449,-4.4107,-4.4122,-4.4377,-4.4915,-4.4915,-4.4915,-4.4915,0.0,0.0,-4.4915,-4.4915,-4.4915,-4.4885,-4.4549,-4.4603,-4.4865,-4.4917,-4.5593,-4.6502,-4.596,-4.5858,-4.6168,-4.6591,-4.6672,-4.6583,0.0,0.0,0.0,0.0,0.0,0.0,0.0,-3.536,-3.5128,-3.4923,-3.4325,-3.3755,-3.3403,-3.2792,-3.2287,-3.201,-3.2013,-3.2273,-3.2961,-3.4247,-3.4996,-3.4996,-3.5325,-3.5504,-3.5504,-3.5504,-3.5504,-3.5504,-3.6477,-3.7105,-3.7434,-3.8437,-3.9095,-3.9388,-3.9388,-3.9388,-3.9388,-3.9388,-3.9388,-3.9388,-3.9388,-3.9388,-3.9388,-3.9388,-3.9388,-3.9388,-3.9388,-3.9388,-3.9388,-3.9388,-3.9388,-3.9388,-3.9388,-3.9388,-3.9388,0.0,0.0,0.0,0.0,0.0,0.0,0.0,0.0,0.0,0.0,0.0,0.0,0.0,0.0,-4.0113,0.0,0.0,-4.0995,-4.1324,-4.1692,-4.1916,-4.1916,-4.2432,-4.2596,-4.1991,-4.2162,-4.2491,-4.2821,-4.2851,-4.2985,-4.3275,-4.329,-4.3439,-4.3768,-4.3783,-4.4122,-4.4781,-4.4811,-4.496,-4.5289,-4.5289,-4.5289,-4.5289,-4.5289,-4.5289,-4.5289,-4.5289,-4.5289,-4.5274,-4.5191,-4.5339,-4.5694,-4.6006,-4.6494,-4.7051,-4.7092,-4.7223,-4.7457,-4.7781,-4.7665,-4.7361,0.0,0.0,0.0,0.0,0.0,0.0,0.0,0.0,-3.5291,-3.5198,-3.4635,-3.4126,-3.3848,-3.3166,-3.2574,-3.2191,-3.2386,-3.2542,-3.2512,-3.3739,-3.4503,-3.4503,-3.513,-3.5504,-3.5504,-3.5504,-3.5504,-3.5504,-3.6163,-3.6746,-3.724,-3.8018,-3.8691,-3.923,-3.9328,-3.9388,-3.9388,-3.9388,-3.9388,-3.9388,-3.9388,-3.9388,-3.9388,-3.9388,-3.9388,-3.9388,-3.9388,-3.9388,-3.9388,-3.9388,-3.9388,-3.9388,-3.9388,-3.9388,-3.9388,-3.9388,-3.9388,0.0,0.0,0.0,0.0,0.0,0.0,0.0,0.0,0.0,-3.9768,-4.0292,-4.0502,-4.0786,-4.1444,-4.1564,-4.1647,-4.1743,-4.2207,-4.259,-4.259,-4.3,-4.3135,-4.265,-4.3015,-4.329,-4.329,-4.329,-4.3349,-4.3469,-4.3484,-4.3768,-4.4466,-4.4511,-4.4811,-4.5469,-4.5484,-4.5559,-4.5678,-4.5678,-4.5678,-4.5678,-4.5678,-4.5678,-4.5678,-4.5678,-4.572,-4.5762,-4.6055,-4.6391,-4.6763,-4.7331,-4.7551,-4.7616,-4.8083,-4.8388,-4.8578,-4.8877,-4.8629,-4.8091,0.0,0.0,0.0,0.0,0.0,0.0,0.0,0.0,0.0,-3.5469,-3.497,-3.4521,-3.425,-3.3617,-3.2893,-3.2094,-3.24,-3.2616,-3.2512,-3.3739,-3.4503,-3.4503,-3.513,-3.5504,-3.5504,-3.5504,-3.5504,-3.5504,-3.6163,-3.6522,-3.6611,-3.7823,-3.8437,-3.8527,-3.914,-3.9388,-3.9388,-3.9388,-3.9388,-3.9388,-3.9388,-3.9388,-3.9388,-3.9388,-3.9388,-3.9388,-3.9388,-3.9388,-3.9388,-3.9388,-3.9388,-3.9388,-3.9388,-3.9388,-3.9388,-3.9388,0.0,-3.9388,-3.9388,-3.9388,-3.9388,-3.9388,-3.9388,-3.9388,0.0,0.0,-4.0307,-4.0382,-4.0861,-4.1512,-4.2171,-4.2291,-4.2447,-4.3015,-4.314,-4.3185,-4.3185,-4.3245,-4.326,-4.32,-4.3245,-4.329,-4.329,-4.329,-4.3544,-4.4152,-4.4212,-4.4481,-4.5155,-4.5185,-4.5499,-4.6187,-4.6217,-4.6486,-4.707,-4.7085,-4.7085,-4.7085,-4.7085,-4.7085,-4.7085,-4.7085,-4.7156,-4.7367,-4.7752,-4.7988,-4.8153,-4.8133,-4.8418,-4.8845,-4.8574,-4.8595,-4.8769,-4.894,-4.8951,-4.8883,0.0,0.0,0.0,0.0,0.0,0.0,0.0,0.0,0.0,0.0,-3.5175,-3.4828,-3.4546,-3.3813,-3.3065,-3.252,-3.2435,-3.2391,-3.2334,-3.3139,-3.3804,-3.4197,-3.4861,-3.5404,-3.5797,-3.5797,-3.5797,-3.5797,-3.5972,-3.627,-3.6791,-3.7233,-3.7933,-3.8879,-3.9058,-3.9441,-3.9844,-3.9646,-3.9589,-3.9553,-3.946,-3.9388,-3.9388,-3.9388,-3.9388,-3.9388,-3.9388,-3.9388,0.0,-3.9388,-3.9388,-3.9388,-3.9388,-3.9388,-3.9388,-3.9388,-3.9388,0.0,-3.9388,-3.9388,-3.9388,0.0,-3.9709,-3.9993,-3.9993,-4.0502,-4.107,-4.1459,-4.1796,-4.2186,-4.2806,-4.2925,-4.3015,0.0,-4.329,-4.329,-4.329,-4.329,-4.329,-4.329,-4.329,-4.329,-4.329,-4.3633,-4.4018,-4.4287,-4.4661,-4.5185,-4.5858,-4.5888,-4.6202,-4.6875,-4.689,-4.7025,-4.7309,-4.7309,-4.7309,-4.7309,-4.7309,-4.7309,-4.7294,-4.7424,-4.7794,-4.8381,-4.8972,-4.9279,-4.9413,-4.9684,-4.9551,-4.921,-4.9303,-4.9093,-4.8818,-4.8956,-4.9001,-4.9001,0.0,0.0,0.0,0.0,0.0,0.0,0.0,0.0,0.0,0.0,0.0,-3.5065,-3.4739,-3.4025,-3.3435,-3.3033,-3.2656,-3.2398,-3.233,-3.2817,-3.3342,-3.3859,-3.4668,-3.5339,-3.5889,-3.6056,-3.6132,-3.6132,-3.5926,-3.6184,-3.6862,-3.6899,-3.7575,-3.8806,-3.8919,-3.9271,-3.9784,-3.9671,-3.9587,-3.9567,-3.9514,-3.9481,-3.9496,-3.9409,-3.9388,-3.9388,-3.9388,-3.9388,-3.9388,-3.9388,-3.9388,-3.9388,-3.9388,-3.9388,-3.9388,-3.9388,-3.9388,-3.9388,-3.9388,0.0,0.0,-3.9649,-4.0053,-4.0442,-4.0621,-4.1175,-4.1826,-4.2306,-4.2545,-4.2776,-4.32,-4.329,-4.329,-4.329,-4.329,-4.329,-4.329,-4.329,-4.329,-4.329,-4.3454,-4.3559,-4.3559,-4.4032,-4.4466,-4.484,-4.5304,-4.5873,-4.6561,-4.6591,-4.6815,-4.7294,-4.7309,-4.7309,-4.7309,-4.7309,-4.7309,-4.7309,-4.7352,-4.7381,-4.7381,-4.7794,-4.8396,-4.9203,-4.9971,-5.0472,-5.0725,-5.1102,-5.079,-5.0124,-4.9999,-4.9639,-4.915,-4.9055,-4.9001,-4.9001,0.0,0.0,0.0,0.0,0.0,0.0,0.0,0.0,0.0,0.0,0.0,0.0,0.0,0.0,-3.405,-3.3529,-3.315,-3.2868,-3.2586,-3.3069,-3.3442,-3.3602,-3.4751,-3.546,-3.561,-3.6184,-3.6492,-3.6492,-3.6274,-3.6289,-3.6538,-3.7122,-3.7509,-3.7792,-3.8571,-3.8849,-3.8781,-3.9231,-3.9339,-3.9242,-3.9567,-3.9681,-3.9661,-3.9481,-3.9388,-3.9388,-3.9388,-3.9388,-3.9388,-3.9388,-3.9388,-3.9388,-3.9388,-3.9388,0.0,-3.9388,-3.9388,-3.9388,-3.9388,0.0,-3.9574,-4.0217,-4.0382,-4.0561,-4.1205,-4.1901,-4.2381,-4.2396,-4.2865,-4.3275,-4.329,-4.329,-4.329,-4.329,-4.329,-4.329,-4.329,-4.329,-4.329,-4.329,-4.3858,-4.4287,0.0,-4.4302,-4.4855,-4.613,-4.6234,-4.6576,-4.7234,-4.7279,-4.7279,-4.7309,-4.7309,-4.7309,-4.7309,-4.7309,-4.7309,-4.7309,-4.751,-4.7581,-4.7624,-4.848,-4.9203,-4.9908,-5.0935,-5.168,-5.2224,-5.21,-5.2118,-5.2064,-5.0659,-5.0084,-4.9965,-4.9272,-4.9001,-4.9001,0.0,0.0,0.0,0.0,0.0,0.0,0.0,0.0,0.0,0.0,0.0,0.0,0.0,0.0,0.0,0.0,-3.3942,-3.3688,-3.361,-3.3509,-3.3723,-3.4288,-3.4541,-3.52,-3.6384,-3.6423,-3.674,-3.7315,-3.7013,-3.6937,-3.7104,-3.7307,-3.7835,-3.864,-3.8834,-3.9214,-3.969,-3.939,-3.9375,-3.9524,-3.9429,-3.9501,-3.9681,-3.961,-3.9517,-3.9388,0.0,-3.9388,-3.9388,-3.9388,-3.9388,-3.9388,-3.9388,-3.9388,-3.9388,-3.9388,-3.9388,-3.9388,-3.9388,0.0,-3.9574,-4.0232,-4.0726,-4.122,-4.1916,-4.2536,-4.3015,-4.3015,-4.314,-4.329,-4.329,-4.329,-4.329,-4.329,-4.329,-4.329,-4.329,-4.329,-4.3454,-4.3888,-4.4182,0.0,0.0,0.0,0.0,-4.6249,-4.6726,-4.707,-4.7294,-4.7309,-4.7309,-4.7309,-4.7309,-4.7309,-4.7309,-4.7309,-4.7309,-4.7294,-4.7666,-4.8145,-4.8697,-4.9269,-5.0049,-5.0935,-5.1533,-5.2148,-5.2696,-5.2773,-5.2606,-5.2249,-5.1758,-5.0947,-5.005,-4.9813,-4.9424,-4.9001,0.0,0.0,0.0,0.0,0.0,0.0,0.0,0.0,0.0,0.0,0.0,0.0,0.0,0.0,0.0,0.0,0.0,-3.43,-3.425,-3.3899,-3.3979,-3.461,-3.4606,-3.5139,-3.6292,-3.6322,-3.6733,-3.755,-3.7258,-3.734,-3.7756,-3.7799,-3.8255,-3.8991,-3.8991,-3.9266,-3.9677,-3.9381,-3.9298,-3.9339,-3.939,-3.9444,-3.9541,-3.9662,-3.9589,0.0,-3.9388,-3.9388,-3.9388,-3.9388,-3.9388,-3.9388,-3.9388,-3.9388,-3.9388,-3.9388,-3.9388,-3.9388,-3.9388,-3.9553,-3.9933,-4.0591,-4.125,-4.1946,-4.2551,-4.303,-4.329,-4.329,-4.329,-4.329,-4.329,-4.329,-4.329,-4.329,-4.329,-4.329,-4.329,-4.329,-4.3544,-4.4242,-4.4526,-4.5095,0.0,0.0,0.0,-4.6681,-4.707,-4.7309,-4.7309,-4.7396,-4.7424,-4.7424,-4.751,-4.7553,-4.7553,-4.7553,-4.7639,-4.7752,-4.8244,-4.8877,-4.9654,-5.0206,-5.0897,-5.1733,-5.2148,-5.259,-5.3007,-5.323,-5.3078,-5.2706,-5.2418,-5.1555,-5.0456,-5.0185,-4.9627,-4.9001,0.0,0.0,0.0,0.0,0.0,0.0,0.0,0.0,0.0,0.0,0.0,0.0,0.0,0.0,0.0,0.0,0.0,0.0,-3.4546,-3.43,-3.4275,-3.4521,-3.4901,-3.5224,-3.5536,-3.5964,-3.6556,-3.7285,-3.7148,-3.7519,-3.8399,-3.8567,-3.8722,-3.886,-3.9098,-3.9088,-3.8854,-3.9219,-3.9119,-3.8754,-3.9401,-3.9465,-3.92,-3.9556,-3.9529,-3.9379,-3.9409,-3.9424,-3.9388,-3.9388,-3.9388,-3.9388,-3.9388,-3.9388,-3.9388,-3.9388,-3.9388,-3.9388,-3.9388,-3.9903,-4.0561,-4.122,-4.1916,-4.2575,-4.314,-4.329,-4.329,-4.329,-4.329,-4.329,0.0,0.0,-4.329,-4.329,-4.329,-4.329,-4.329,-4.3319,-4.3589,0.0,0.0,0.0,0.0,0.0,0.0,-4.7352,0.0,-4.7352,-4.7352,-4.7553,-4.7624,-4.7666,-4.788,-4.8049,-4.8049,-4.8049,-4.8244,-4.8661,-4.9066,-4.9694,-5.0563,-5.1177,-5.1769,-5.2378,-5.2747,-5.3007,-5.323,-5.3416,-5.3501,-5.3433,-5.2655,-5.1911,-5.1183,-5.0422,-4.9678,-4.9052,0.0,0.0,0.0,0.0,0.0,0.0,0.0,0.0,0.0,0.0,0.0,0.0,0.0,0.0,0.0,0.0,0.0,0.0,-3.5245,-3.4994,-3.4923,-3.5105,-3.4993,-3.5332,-3.6163,-3.6042,-3.6388,-3.7232,-3.763,-3.7939,-3.8206,-3.8927,-3.9335,-3.9478,-3.953,-3.9494,-3.9299,-3.9139,-3.9068,-3.9003,-3.8963,-3.892,-3.8897,-3.9388,-3.9256,-3.8948,-3.9444,0.0,0.0,0.0,0.0,0.0,0.0,-3.9388,-3.9388,-3.9388,-3.9388,-3.9388,-3.9388,-3.9903,-4.0561,-4.122,-4.1916,-4.2575,-4.314,-4.329,-4.329,-4.329,-4.329,-4.329,0.0,0.0,0.0,-4.329,-4.329,0.0,-4.329,-4.3708,0.0,-4.4975,0.0,-4.653,-4.7179,-4.7619,0.0,0.0,-4.7639,-4.7681,-4.8049,-4.8091,-4.8202,-4.8328,-4.8412,-4.8453,-4.8453,-4.8589,-4.8836,-4.9113,-4.9686,-5.0377,-5.1177,-5.1643,-5.2255,-5.2972,-5.3076,-5.323,-5.3433,-5.3467,-5.3501,-5.3484,-5.3281,-5.2723,-5.1944,-5.12,-5.0456,-4.9729,0.0,0.0,0.0,0.0,0.0,0.0,0.0,0.0,0.0,0.0,0.0,0.0,0.0,0.0,0.0,0.0,0.0,0.0,0.0,-3.5291,-3.5245,-3.5377,-3.5198,-3.5375,-3.5981,-3.5776,-3.6037,-3.6852,-3.7195,-3.7536,-3.7868,-3.8772,-3.9225,-3.9328,-3.9707,-3.9807,-3.9642,-3.9335,-3.9144,0.0,0.0,-3.8789,-3.8701,-3.9096,-3.8946,-3.8633,0.0,0.0,0.0,0.0,0.0,-3.9388,-3.9388,-3.9388,-3.9388,-3.9388,0.0,-3.9388,-3.9388,-4.0113,-4.092,-4.1332,-4.2087,-4.288,-4.32,-4.329,-4.329,-4.329,-4.329,0.0,0.0,0.0,0.0,0.0,0.0,0.0,-4.3463,-4.4153,-4.4855,0.0,-4.6373,0.0,-4.7973,-4.8229,-4.848,0.0,-4.8202,-4.8049,-4.8412,-4.8702,-4.8934,-4.9031,-4.9219,-4.9284,-4.9284,-4.943,-4.963,-4.9963,-5.057,-5.1177,-5.1806,-5.2291,-5.2817,-5.3332,0.0,-5.3382,-5.3501,-5.3501,-5.3501,-5.3501,-5.3501,-5.301,-5.2215,-5.1488,-5.0727,-4.9982,0.0,0.0,0.0,0.0,0.0,0.0,0.0,0.0,0.0,0.0,0.0,0.0,0.0,0.0,0.0,0.0,0.0,0.0,0.0,0.0,0.0,-3.5514,-3.5406,-3.5383,-3.5514,-3.5406,-3.5656,-3.6286,-3.641,-3.6772,-3.7425,-3.8286,-3.8672,-3.8731,-3.9564,-3.986,-3.9741,-3.9609,-3.9379,-3.9089,-3.9093,-3.89,-3.8623,0.0,0.0,0.0,0.0,0.0,0.0,0.0,-3.9349,-3.9388,-3.9388,-3.9388,-3.9388,-3.9388,-3.9388,-3.9388,-3.9388,-4.0382,-4.1422,-4.1422,-4.2372,-4.329,-4.329,-4.329,-4.329,-4.329,0.0,-4.329,-4.329,-4.329,-4.329,-4.329,0.0,-4.3729,-4.3729,-4.4561,-4.5403,-4.6021,-4.6956,-4.7891,-4.8641,-4.8944,-4.9269,-4.9677,-4.9056,-4.8687,-4.8852,-4.9421,-4.9781,-4.9821,-5.0159,-5.0354,-5.0338,-5.0393,-5.057,-5.0989,-5.1549,-5.2004,-5.2378,-5.2956,-5.3298,-5.3501,-5.3501,-5.3501,-5.3501,-5.3501,-5.3501,-5.3501,-5.3501,-5.3078,-5.2367,-5.164,-5.0879,-5.0135,0.0,0.0,0.0,0.0,0.0,0.0,0.0,0.0,0.0,0.0,-3.56,-3.56,0.0,0.0,0.0,0.0,0.0,0.0,0.0,0.0,0.0,0.0,-3.5554,-3.5554,-3.5577,-3.5554,-3.5622,0.0,0.0,-3.681,-3.6945,-3.7706,-3.806,-3.8077,-3.8853,-3.9117,-3.9017,-3.9597,-3.9668,-3.9395,-3.9247,-3.8952,-3.863,0.0,0.0,0.0,0.0,0.0,0.0,0.0,-3.9067,-3.9388,-3.9388,-3.9388,-3.9388,-3.9388,-3.9388,-3.9388,-3.9388,-4.0382,-4.1422,-4.1422,-4.2372,-4.329,-4.329,-4.329,0.0,0.0,-4.329,-4.329,-4.329,-4.329,0.0,-4.329,0.0,0.0,0.0,0.0,-4.6202,0.0,0.0,0.0,0.0,0.0,0.0,0.0,0.0,-5.0299,-5.0159,-5.0454,-5.0745,-5.1086,-5.0989,-5.1027,-5.1199,-5.1364,-5.1549,-5.1806,-5.2255,-5.2555,-5.2799,-5.3076,-5.3298,-5.3501,-5.3501,0.0,-5.3501,-5.3501,-5.3501,-5.3501,-5.3501,-5.3416,-5.3196,-5.2401,-5.164,-5.0913,0.0,0.0,0.0,0.0,0.0,0.0,0.0,-3.4472,-3.4472,-3.4472,-3.4793,-3.5182,-3.5549,-3.56,0.0,0.0,0.0,0.0,0.0,0.0,0.0,0.0,0.0,0.0,0.0,0.0,0.0,0.0,0.0,0.0,0.0,0.0,0.0,0.0,0.0,0.0,0.0,-3.9219,-3.9471,0.0,0.0,0.0,0.0,0.0,0.0,0.0,0.0,0.0,0.0,0.0,-3.8843,-3.9067,-3.9305,-3.9388,-3.9388,-3.9388,-3.9388,-3.9388,-3.9388,-4.0382,-4.1422,-4.1422,-4.2372,-4.329,-4.329,0.0,0.0,0.0,-4.329,-4.329,-4.329,0.0,0.0,0.0,0.0,0.0,0.0,0.0,0.0,0.0,0.0,0.0,0.0,0.0,0.0,0.0,0.0,-5.1364,-5.0854,-5.1194,-5.1586,-5.2023,-5.1822,-5.1822,-5.2023,-5.2112,-5.2255,-5.2485,-5.2765,-5.2956,-5.3041,-5.3264,-5.3416,-5.3501,-5.3501,0.0,-5.3501,-5.3501,-5.3501,-5.3501,-5.3501,-5.3501,-5.3399,-5.2604,-5.1843,-5.1099,0.0,0.0,0.0,0.0,0.0,0.0,0.0,-3.3406,-3.3406,-3.3406,-3.3897,-3.4489,-3.5059,-3.5414,-3.56,0.0,0.0,0.0,0.0,0.0,0.0,0.0,0.0,0.0,0.0,0.0,0.0,0.0,0.0,0.0,0.0,0.0,0.0,0.0,0.0,0.0,0.0,0.0,0.0,0.0,0.0,0.0,0.0,0.0,0.0,0.0,0.0,0.0,0.0,0.0,-3.8495,-3.8757,-3.9142,-3.9376,-3.9532,-3.9496,-3.9445,-3.9445,-3.9409,-4.0382,-4.1422,-4.1445,-4.2449,-4.3384,-4.3448,-4.3463,0.0,0.0,-4.3423,-4.3423,-4.3369,0.0,0.0,0.0,0.0,0.0,0.0,0.0,0.0,0.0,0.0,0.0,0.0,0.0,0.0,0.0,0.0,0.0,-5.1529,-5.1948,-5.2359,-5.2731,-5.252,-5.2537,-5.2731,-5.2731,-5.2817,-5.3024,-5.3195,-5.3264,-5.3264,-5.3433,-5.3501,-5.3501,-5.3501,0.0,0.0,-5.3501,-5.3501,-5.3501,-5.3501,-5.3501,-5.3433,-5.279,-5.1995,-5.1133,0.0,0.0,0.0,0.0,0.0,0.0,0.0,-3.3406,-3.3406,-3.3406,-3.3457,-3.3541,-3.3592,-3.4788,-3.56,0.0,0.0,0.0,0.0,0.0,0.0,0.0,0.0,0.0,0.0,0.0,0.0,0.0,0.0,0.0,0.0,0.0,0.0,0.0,0.0,0.0,0.0,0.0,0.0,0.0,0.0,0.0,0.0,0.0,0.0,0.0,0.0,0.0,0.0,0.0,0.0,-3.8717,-3.8742,-3.932,-3.9889,-3.9732,0.0,0.0,-3.9445,-4.0382,-4.1445,-4.1633,-4.268,-4.3714,-4.391,0.0,0.0,-4.369,-4.3793,-4.3871,-4.369,-4.3988,-4.4166,0.0,0.0,-4.5407,0.0,0.0,0.0,0.0,0.0,0.0,0.0,0.0,0.0,0.0,0.0,0.0,-5.2764,-5.2799,-5.2903,-5.3144,-5.2938,-5.2938,-5.3144,-5.3144,-5.323,-5.3433,-5.3467,-5.3467,-5.3467,-5.3501,-5.3501,-5.3501,-5.3501,0.0,0.0,-5.3501,-5.3501,-5.3501,-5.3501,-5.3501,-5.3501,-5.3416,-5.2469,-5.12,0.0,0.0,0.0,0.0,0.0,0.0,-3.2087,-3.2087,-3.2087,-3.2087,-3.2459,-3.273,-3.273,-3.366,-3.4455,-3.4912,0.0,0.0,0.0,0.0,0.0,0.0,0.0,0.0,0.0,0.0,0.0,0.0,0.0,0.0,0.0,0.0,0.0,0.0,0.0,0.0,0.0,0.0,0.0,0.0,0.0,0.0,0.0,0.0,0.0,0.0,0.0,0.0,0.0,0.0,0.0,0.0,-3.8926,-3.9795,0.0,0.0,-3.9681,-3.9661,-3.9445,-4.0083,-4.095,-4.1528,-4.2493,-4.3463,-4.4036,0.0,-4.432,-4.4089,-4.4205,-4.4281,-4.4104,-4.4511,-4.4799,-4.4723,0.0,0.0,0.0,0.0,0.0,0.0,0.0,0.0,0.0,0.0,0.0,0.0,0.0,0.0,-5.3246,-5.3161,-5.3161,-5.3382,-5.3314,-5.3314,-5.3382,-5.3382,-5.3433,-5.3501,-5.3501,-5.3501,-5.3501,-5.3501,-5.3501,-5.3501,-5.3501,0.0,0.0,-5.3501,-5.3501,-5.3501,-5.3501,-5.3501,-5.345,-5.2959,-5.2114,-5.115,0.0,0.0,0.0,0.0,0.0,-3.119,-3.119,-3.119,-3.119,-3.119,-3.1667,-3.1972,-3.1972,-3.2442,-3.3051,-3.3778,-3.4235,0.0,0.0,0.0,0.0,0.0,0.0,0.0,0.0,0.0,-3.56,-3.56,-3.56,0.0,0.0,0.0,0.0,0.0,0.0,0.0,0.0,0.0,0.0,0.0,0.0,0.0,0.0,0.0,0.0,0.0,0.0,0.0,0.0,0.0,0.0,0.0,0.0,0.0,0.0,0.0,-3.993,-3.9859,-3.9625,-4.0085,-4.0783,-4.1654,-4.2582,-4.3478,0.0,0.0,-4.4874,-4.461,-4.4761,-4.4874,-4.467,-4.512,-4.5526,-4.5526,0.0,-4.7017,0.0,0.0,0.0,0.0,0.0,0.0,0.0,0.0,0.0,0.0,0.0,0.0,-5.3501,-5.3382,-5.3348,-5.3518,-5.3501,-5.3501,-5.3501,-5.3501,-5.3501,-5.3501,-5.3501,-5.3501,-5.3501,-5.3501,-5.3501,-5.3501,-5.3501,0.0,0.0,-5.3501,-5.3501,-5.3501,-5.3501,-5.3365,-5.3078,-5.252,-5.1708,-5.0811,0.0,0.0,0.0,0.0,0.0,0.0,-3.119,-3.119,-3.119,-3.119,-3.1207,-3.1207,-3.1207,-3.1207,-3.1512,-3.2259,-3.3664,0.0,0.0,0.0,0.0,0.0,0.0,0.0,0.0,0.0,-3.56,-3.56,-3.56,-3.56,-3.56,0.0,0.0,0.0,0.0,0.0,0.0,0.0,0.0,0.0,0.0,0.0,0.0,0.0,0.0,0.0,0.0,0.0,0.0,0.0,0.0,0.0,0.0,0.0,0.0,0.0,-4.0489,-4.0436,-4.0066,-4.0496,-4.1185,-4.2074,-4.3033,-4.4028,0.0,0.0,-4.5687,-4.5284,-4.5505,-4.5724,-4.5458,-4.5877,-4.6301,-4.6301,-4.6807,0.0,0.0,0.0,0.0,0.0,0.0,0.0,0.0,0.0,0.0,0.0,0.0,0.0,-5.3501,-5.3501,-5.3501,-5.3501,-5.3501,-5.3501,-5.3501,-5.3501,-5.3501,-5.3501,-5.3501,-5.3501,-5.3501,-5.3501,-5.3501,-5.3501,0.0,0.0,0.0,-5.3501,-5.3501,-5.3501,-5.3501,-5.301,-5.2317,-5.23,-5.1369,-5.0101,0.0,0.0,0.0,0.0,0.0,0.0,0.0,-3.119,-3.119,-3.119,-3.119,-3.119,-3.119,-3.119,-3.1275,-3.1532,-3.2446,0.0,0.0,0.0,0.0,0.0,0.0,0.0,0.0,0.0,-3.56,-3.56,-3.56,-3.56,-3.56,-3.56,-3.56,0.0,0.0,0.0,0.0,0.0,0.0,0.0,0.0,0.0,0.0,0.0,0.0,0.0,0.0,0.0,0.0,0.0,0.0,0.0,0.0,0.0,0.0,-4.0919,0.0,0.0,-4.0401,-4.0484,-4.0999,-4.2366,-4.3107,-4.3937,-4.5424,0.0,-4.6317,-4.6159,-4.6388,-4.6512,-4.6359,-4.6724,-4.71,-4.7236,-4.7621,0.0,0.0,0.0,0.0,0.0,0.0,0.0,0.0,0.0,0.0,0.0,0.0,0.0,-5.3501,-5.3501,-5.3501,-5.3501,-5.3501,-5.3501,-5.3501,-5.3501,-5.3501,-5.3501,-5.3501,-5.3501,-5.3501,-5.3501,-5.3501,0.0,0.0,0.0,0.0,-5.3501,-5.3501,-5.345,-5.2892,-5.252,-5.2181,-5.1166,-5.049,-5.0016,0.0,0.0,0.0,0.0,0.0,0.0,0.0,-3.119,-3.119,-3.119,-3.119,-3.119,-3.119,-3.119,-3.119,-3.119,-3.1633,0.0,0.0,0.0,0.0,0.0,0.0,0.0,0.0,-3.56,-3.56,-3.56,-3.56,-3.56,-3.56,-3.56,-3.56,-3.56,-3.56,0.0,0.0,0.0,0.0,0.0,0.0,0.0,-3.5693,0.0,0.0,0.0,0.0,0.0,0.0,0.0,0.0,0.0,0.0,0.0,0.0,0.0,-4.1357,-4.1223,0.0,-4.0851,-4.1296,-4.2837,-4.35,0.0,0.0,0.0,-4.6927,-4.6842,-4.6996,-4.7132,-4.7118,-4.7404,-4.7704,-4.7968,-4.8195,0.0,0.0,0.0,0.0,0.0,0.0,0.0,0.0,0.0,0.0,0.0,0.0,0.0,-5.3501,-5.3501,-5.3501,-5.3501,-5.3501,-5.3501,-5.3501,-5.3501,-5.3501,-5.3501,-5.3501,-5.3501,-5.3501,-5.3501,-5.3501,0.0,0.0,0.0,0.0,-5.3501,-5.3331,-5.301,-5.2503,-5.1961,-5.1352,-5.0422,-4.9915,-4.961,0.0,0.0,0.0,0.0,0.0,0.0,0.0,-3.119,-3.119,-3.119,-3.119,-3.119,-3.119,-3.119,-3.119,-3.119,0.0,0.0,0.0,0.0,0.0,0.0,0.0,0.0,-3.56,-3.56,-3.56,-3.56,-3.56,-3.56,-3.56,-3.56,-3.56,-3.56,-3.56,-3.56,-3.5554,-3.5071,-3.4715,-3.4472,-3.4349,-3.4782,0.0,0.0,0.0,0.0,0.0,0.0,0.0,0.0,0.0,0.0,0.0,0.0,0.0,0.0,0.0,0.0,0.0,-4.1522,0.0,0.0,0.0,0.0,0.0,0.0,0.0,-4.7319,-4.742,-4.7604,-4.7737,-4.7919,-4.8164,-4.8483,0.0,0.0,0.0,0.0,0.0,0.0,0.0,0.0,0.0,0.0,0.0,0.0,0.0,0.0,-5.3501,-5.3501,-5.3501,-5.3501,-5.3501,-5.3501,-5.3501,-5.3501,-5.3501,-5.3501,-5.3501,-5.3501,-5.3501,-5.3501,-5.3501,0.0,0.0,0.0,0.0,-5.3365,-5.2909,-5.2215,-5.2164,-5.1302,-5.0084,-5.0033,-4.9593,-4.9001,0.0,0.0,0.0,0.0,0.0,0.0,0.0,0.0,0.0,0.0,-3.119,-3.119,-3.119,-3.119,-3.119,0.0,0.0,0.0,0.0,0.0,0.0,0.0,0.0,0.0,-3.5583,-3.56,-3.56,-3.56,-3.56,-3.56,-3.56,-3.56,-3.56,-3.56,-3.56,-3.5509,-3.5344,-3.4906,-3.4594,-3.4325,-3.4201,-3.4323,0.0,0.0,0.0,0.0,-3.7167,-3.7294,0.0,0.0,0.0,0.0,0.0,0.0,0.0,0.0,-4.198,-4.2109,-4.2142,0.0,-4.2719,-4.4185,-4.4837,-4.5522,0.0,0.0,0.0,0.0,0.0,0.0,0.0,0.0,0.0,0.0,0.0,0.0,0.0,0.0,0.0,0.0,0.0,0.0,0.0,0.0,0.0,0.0,0.0,-5.3501,-5.3501,-5.3501,-5.3501,-5.3501,-5.3501,-5.3501,-5.3501,-5.3501,-5.3501,-5.3501,-5.3501,-5.3501,-5.3501,-5.3501,-5.3501,0.0,0.0,0.0,-5.2536,-5.1978,-5.164,-5.142,-5.0845,-5.0405,-5.0016,-4.9458,-4.9154,-4.9001,0.0,0.0,0.0,0.0,0.0,0.0,0.0,0.0,0.0,0.0,0.0,0.0,0.0,0.0,0.0,0.0,0.0,0.0,0.0,0.0,0.0,0.0,0.0,-3.4844,-3.5583,-3.56,-3.56,-3.56,-3.56,-3.56,-3.56,-3.56,-3.56,-3.56,-3.5571,-3.5429,-3.5198,-3.4835,-3.457,-3.4399,-3.4374,0.0,0.0,0.0,0.0,0.0,-3.6783,-3.7179,0.0,-3.7567,-3.7581,-3.7862,0.0,0.0,0.0,0.0,-4.2222,-4.2508,-4.268,-4.2743,-4.3019,-4.4236,-4.5046,-4.5843,-4.7061,0.0,0.0,0.0,0.0,0.0,0.0,0.0,0.0,0.0,0.0,0.0,0.0,0.0,0.0,0.0,0.0,0.0,0.0,0.0,0.0,0.0,0.0,-5.3501,-5.3501,-5.3501,-5.3501,-5.3501,-5.3145,-5.3129,-5.3501,-5.3501,-5.3501,-5.3501,-5.3501,-5.3315,-5.2959,-5.2959,-5.2773,0.0,0.0,0.0,-5.1775,-5.1369,-5.1014,-5.0659,-5.0253,-4.9881,-4.9543,-4.9154,-4.9001,-4.9001,0.0,0.0,0.0,0.0,0.0,0.0,0.0,0.0,0.0,0.0,0.0,0.0,0.0,0.0,0.0,0.0,0.0,0.0,0.0,0.0,0.0,0.0,0.0,-3.4726,-3.5583,-3.56,-3.56,-3.56,-3.56,-3.56,-3.56,-3.56,-3.56,-3.5577,-3.552,-3.5337,-3.5041,-3.4804,-3.4618,-3.4521,-3.4643,0.0,0.0,0.0,0.0,0.0,0.0,0.0,0.0,-3.7639,-3.774,-3.8171,-3.9551,0.0,0.0,0.0,0.0,0.0,-4.3082,-4.3068,-4.3217,-4.4123,-4.5158,-4.6105,-4.6852,0.0,0.0,0.0,0.0,0.0,0.0,0.0,0.0,0.0,0.0,0.0,0.0,0.0,0.0,0.0,0.0,0.0,0.0,0.0,0.0,0.0,0.0,-5.3162,-5.3162,-5.3162,-5.3162,-5.3162,-5.2503,-5.2469,-5.3145,-5.3162,-5.3162,-5.3162,-5.3162,-5.279,-5.2131,-5.2131,-5.1792,-5.1185,0.0,0.0,-5.1031,-5.0898,-5.0507,-4.9915,-4.9915,-4.9543,-4.9001,-4.9001,-4.9001,-4.9001,0.0,0.0,0.0,0.0,0.0,0.0,0.0,0.0,0.0,0.0,0.0,0.0,0.0,0.0,0.0,0.0,0.0,0.0,0.0,0.0,0.0,-3.3339,-3.3508,-3.4218,-3.5566,-3.56,-3.56,-3.56,-3.56,-3.56,-3.56,-3.56,-3.5571,-3.5514,-3.5492,-3.5291,-3.4923,-3.478,-3.4618,-3.4521,-3.4643,0.0,0.0,0.0,0.0,0.0,0.0,0.0,0.0,-3.8363,-3.8307,-3.8479,-4.0235,0.0,0.0,0.0,0.0,0.0,-4.3221,-4.3402,-4.3734,-4.478,-4.5708,-4.6579,-4.7334,-4.8245,0.0,0.0,0.0,0.0,0.0,0.0,0.0,0.0,0.0,0.0,0.0,0.0,0.0,0.0,0.0,0.0,0.0,0.0,0.0,0.0,0.0,-5.154,-5.154,-5.154,-5.154,-5.154,-5.1454,-5.1454,-5.154,-5.154,-5.154,-5.154,-5.154,-5.1505,-5.1386,-5.1386,-5.1319,-5.1183,0.0,-5.027,-5.0219,-4.9593,-4.9272,-4.9171,-4.9171,-4.9103,-4.9001,-4.9001,-4.9001,-4.9001,0.0,0.0,0.0,0.0,0.0,0.0,0.0,0.0,0.0,0.0,0.0,0.0,0.0,0.0,0.0,0.0,0.0,0.0,0.0,0.0,0.0,-3.3339,-3.3406,-3.4078,-3.5566,-3.56,-3.56,-3.56,-3.56,-3.56,-3.56,-3.5571,-3.552,-3.5492,-3.5268,-3.5018,-3.478,-3.4643,-3.4546,-3.4521,0.0,0.0,0.0,0.0,0.0,0.0,0.0,0.0,0.0,0.0,-3.8375,-3.8707,-4.0323,0.0,0.0,0.0,0.0,0.0,-4.3641,-4.3877,-4.4106,-4.4735,-4.569,-4.6599,-4.6935,-4.8034,0.0,0.0,0.0,0.0,0.0,0.0,0.0,0.0,0.0,0.0,0.0,0.0,0.0,0.0,0.0,0.0,0.0,0.0,0.0,0.0,0.0,0.0,-5.1185,-5.1185,-5.1185,-5.1185,-5.0811,-5.0608,-5.0608,-5.0219,-5.0422,-5.1185,-5.1185,-5.0997,-5.0608,-5.0608,-5.0388,-4.9999,0.0,-4.9509,-4.9475,-4.9137,-4.9001,-4.9001,-4.9001,-4.9001,-4.9001,-4.9001,-4.9001,-4.9001,0.0,0.0,0.0,0.0,0.0,0.0,0.0,0.0,0.0,0.0,0.0,0.0,0.0,0.0,0.0,0.0,0.0,0.0,0.0,0.0,-3.2036,-3.3355,-3.3575,-3.4269,-3.5566,-3.56,-3.56,-3.56,-3.56,-3.56,-3.5594,-3.552,-3.5446,-3.5354,-3.5065,-3.4851,-3.4643,-3.457,-3.4546,-3.457,0.0,0.0,0.0,0.0,0.0,0.0,0.0,0.0,0.0,0.0,0.0,0.0,0.0,0.0,0.0,-4.2687,-4.3281,-4.3492,-4.3981,-4.4196,-4.4338,-4.4542,0.0,-4.6574,-4.6574,-4.7828,-4.9001,0.0,0.0,0.0,0.0,0.0,0.0,0.0,0.0,0.0,0.0,0.0,0.0,0.0,0.0,0.0,0.0,0.0,0.0,0.0,0.0,0.0,-5.0661,-5.0661,-5.0661,-5.0661,-5.0135,-4.983,-4.983,-4.9272,-4.9576,-5.0661,-5.0661,-5.0405,-4.983,-4.983,-4.9526,-4.9001,-4.9001,-4.9001,-4.9001,-4.9001,-4.9001,-4.9001,-4.9001,-4.9001,-4.9001,-4.9001,-4.9001,-4.9001,0.0,0.0,0.0,0.0,0.0,0.0,0.0,0.0,0.0,0.0,0.0,0.0,0.0,0.0,0.0,0.0,0.0,0.0,0.0,0.0,-3.2581,-3.3372,-3.4066,-3.4793,-3.5583,-3.56,-3.56,-3.56,-3.56,-3.5571,-3.5514,-3.5492,-3.5291,-3.4947,-3.5041,-3.4875,-3.4521,-3.4643,-3.4691,-3.4691,-3.4707,0.0,0.0,0.0,0.0,0.0,0.0,0.0,0.0,0.0,0.0,0.0,0.0,0.0,-4.0891,-4.2824,-4.3372,-4.3492,-4.3981,-4.4196,-4.4338,-4.4542,-4.5686,-4.6786,-4.6786,-4.7936,0.0,-4.9001,0.0,0.0,0.0,0.0,0.0,0.0,0.0,0.0,0.0,0.0,0.0,0.0,0.0,0.0,0.0,0.0,0.0,0.0,0.0,0.0,-4.9171,-4.9171,-4.9171,-4.9171,-4.912,-4.9086,-4.9086,-4.9035,-4.9052,-4.9171,-4.9171,-4.9137,-4.9086,-4.9086,-4.9052,-4.9001,-4.9001,-4.9001,-4.9001,-4.9001,-4.9001,-4.9001,-4.9001,-4.9001,-4.9001,-4.9001,-4.9001,-4.9001,0.0,0.0,0.0,0.0,0.0,0.0,0.0,0.0,0.0,0.0,0.0,0.0,0.0,0.0,0.0,0.0,0.0,0.0,0.0,-3.2158,-3.2835,-3.4032,-3.4336,-3.4844,-3.5583,-3.56,-3.56,-3.56,-3.56,-3.5571,-3.5492,-3.5423,-3.5245,-3.5018,-3.4899,-3.478,-3.4618,-3.4594,-3.457,-3.457,-3.457,-3.4824,0.0,0.0,0.0,0.0,0.0,0.0,0.0,0.0,-3.8464,-3.8792,-4.0323,-4.075,-4.1043,-4.287,-4.3522,-4.3713,-4.4109,-4.4355,-4.4497,-4.457,-4.5703,0.0,0.0,-4.7936,-4.9001,-4.9001,-4.9001,0.0,0.0,0.0,0.0,0.0,0.0,0.0,0.0,0.0,0.0,0.0,0.0,0.0,0.0,0.0,0.0,0.0,0.0,0.0,-4.9001,-4.9001,-4.9001,-4.9001,-4.9001,-4.9001,-4.9001,-4.9001,-4.9001,-4.9001,-4.9001,-4.9001,-4.9001,-4.9001,-4.9001,-4.9001,-4.9001,-4.9001,-4.9001,-4.9001,-4.9001,-4.9001,-4.9001,-4.9001,-4.9001,-4.9001,-4.9001,-4.9001,0.0,0.0,0.0,0.0,0.0,0.0,0.0,0.0,0.0,0.0,0.0,0.0,0.0,0.0,0.0,0.0,0.0,0.0,-3.2276,-3.275,-3.3461,-3.4477,-3.4726,-3.5081,-3.5583,-3.56,-3.56,-3.56,-3.56,-3.5549,-3.5446,-3.5337,-3.5175,-3.497,-3.4828,-3.4732,-3.4618,-3.457,-3.4521,-3.4464,-3.4693,-3.4986,0.0,0.0,0.0,0.0,0.0,0.0,0.0,0.0,-3.8525,-3.9085,-4.0229,-4.0824,-4.1412,-4.2859,-4.3535,-4.386,-4.4167,-4.4412,-4.4615,-4.4615,0.0,0.0,-4.6735,-4.7936,-4.9001,-4.9001,-4.9001,0.0,0.0,0.0,0.0,0.0,0.0,0.0,0.0,0.0,0.0,0.0,0.0,0.0,0.0,0.0,0.0,0.0,0.0,0.0,0.0,-4.9001,-4.9001,-4.9001,-4.9001,-4.9001,-4.9001,-4.9001,-4.9001,-4.9001,-4.9001,-4.9001,-4.9001,-4.9001,-4.9001,-4.9001,-4.9001,-4.9001,-4.9001,-4.9001,-4.9001,-4.9001,-4.9001,-4.9001,-4.9001,-4.9001,-4.9001,-4.9001,0.0,0.0,0.0,0.0,0.0,0.0,0.0,0.0,0.0,0.0,0.0,0.0,0.0,0.0,0.0,0.0,0.0,0.0,-3.2327,-3.3698,-3.4489,-3.4506,-3.5216,-3.56,-3.56,-3.56,-3.56,-3.56,-3.56,-3.5503,-3.5291,-3.5291,-3.5105,-3.4715,-3.4851,-3.4739,-3.4521,-3.4659,-3.4562,-3.4365,-3.5098,-3.5314,-3.5347,0.0,0.0,0.0,0.0,0.0,0.0,0.0,-3.8618,-3.9606,-4.0139,-4.0984,-4.1985,-4.2839,-4.3446,-4.3831,-4.4039,-4.4344,-4.4615,0.0,0.0,0.0,-4.6616,-4.7936,-4.9001,-4.9001,0.0,-4.9001,-4.9001,0.0,0.0,0.0,0.0,0.0,0.0,0.0,0.0,0.0,0.0,0.0,0.0,0.0,0.0,0.0,0.0,0.0,0.0,-4.9001,-4.9001,-4.9001,-4.9001,-4.9001,-4.9001,-4.9001,-4.9001,-4.9001,-4.9001,-4.9001,-4.9001,-4.9001,-4.9001,-4.9001,-4.9001,-4.9001,-4.9001,-4.9001,-4.9001,-4.9001,-4.9001,-4.9001,-4.9001,-4.9001,-4.9001,-4.9001,0.0,0.0,0.0,0.0,0.0,0.0,0.0,0.0,0.0,0.0,0.0,0.0,0.0,0.0,0.0,0.0,0.0,0.0,-3.3783,-3.4252,-3.4726,-3.5245,-3.5481,-3.56,-3.56,-3.56,-3.56,-3.56,-3.56,-3.5549,-3.5446,-3.5446,-3.5331,-3.5128,-3.5065,-3.4947,-3.4813,-3.5177,-3.5242,-3.5156,-3.5889,-3.6371,-3.6724,0.0,0.0,0.0,0.0,0.0,0.0,0.0,0.0,0.0,-4.0437,-4.1271,-4.2212,-4.3158,-4.37,-4.4051,-4.4196,-4.4412,0.0,-4.4615,0.0,0.0,0.0,-4.7547,0.0,0.0,0.0,-4.9001,-4.9001,0.0,0.0,0.0,0.0,0.0,0.0,0.0,0.0,0.0,0.0,0.0,0.0,0.0,0.0,0.0,0.0,0.0,0.0,-4.9001,-4.9001,-4.9001,-4.9001,-4.9001,-4.9001,-4.9001,-4.9001,-4.9001,-4.9001,-4.9001,-4.9001,-4.9001,-4.9001,-4.9001,-4.9001,-4.9001,-4.9001,-4.9001,-4.9001,-4.9001,-4.9001,-4.9001,-4.9001,-4.9001,-4.9001,-4.9001,0.0,0.0,0.0,0.0,0.0,0.0,0.0,0.0,0.0,0.0,0.0,0.0,0.0,0.0,0.0,0.0,0.0,0.0,0.0,-3.4776,-3.5148,-3.5583,-3.56,-3.56,-3.56,-3.56,-3.56,-3.56,-3.56,-3.5571,-3.5492,-3.5492,-3.5423,-3.5308,-3.5222,-3.5231,-3.5363,-3.5638,-3.5758,-3.5828,-3.6596,-3.7043,-3.7256,0.0,0.0,0.0,0.0,0.0,0.0,0.0,0.0,0.0,-4.0961,-4.1858,-4.2739,-4.3406,-4.3835,-4.4126,-4.4253,-4.444,0.0,-4.4615,-4.4925,-4.5534,-4.6566,0.0,0.0,0.0,0.0,0.0,0.0,0.0,0.0,0.0,0.0,0.0,0.0,0.0,0.0,0.0,0.0,0.0,0.0,0.0,0.0,0.0,0.0,0.0,0.0,-4.9001,-4.9001,-4.9001,-4.9001,-4.9001,-4.9001,-4.9001,-4.9001,-4.9001,-4.9001,-4.9001,-4.9001,-4.9001,-4.9001,-4.9001,-4.9001,-4.9001,-4.9001,-4.9001,-4.9001,-4.9001,-4.9001,-4.9001,-4.9001,-4.9001,-4.9001,-4.9001,0.0,0.0,0.0,0.0,0.0,0.0,0.0,0.0,0.0,0.0,0.0,0.0,0.0,0.0,0.0,0.0,0.0,0.0,0.0,0.0,-3.56,-3.56,-3.56,-3.56,-3.56,-3.56,-3.56,-3.56,-3.56,-3.5571,-3.5514,-3.5514,-3.5429,-3.5314,-3.5381,-3.5642,-3.6033,-3.6141,-3.6295,-3.6523,-3.7313,-3.747,-3.7374,-3.8288,0.0,0.0,0.0,0.0,0.0,0.0,0.0,0.0,-4.17,-4.2583,-4.3462,-4.3628,-4.3894,-4.4155,-4.4281,0.0,0.0,-4.4615,-4.4649,0.0,0.0,0.0,0.0,0.0,0.0,0.0,0.0,0.0,0.0,0.0,0.0,0.0,0.0,0.0,0.0,0.0,0.0,0.0,0.0,0.0,0.0,0.0,0.0,0.0,0.0,-4.9001,-4.9001,-4.9001,-4.9001,-4.9001,-4.9001,-4.9001,-4.9001,-4.9001,-4.9001,-4.9001,-4.9001,-4.9001,-4.9001,-4.9001,-4.9001,-4.9001,-4.9001,-4.9001,-4.9001,-4.9001,-4.9001,-4.9001,-4.9001,-4.8934,-4.89,-4.89,0.0,0.0,0.0,0.0,0.0,0.0,0.0,0.0,0.0,0.0,0.0,0.0,0.0,0.0,0.0,0.0,0.0,0.0,0.0,0.0,-3.56,-3.56,-3.56,-3.56,-3.56,-3.56,-3.56,-3.56,-3.56,-3.56,-3.5594,-3.5594,-3.5554,-3.5566,-3.6104,-3.6323,-3.6374,-3.7302,-3.7678,-3.7682,-3.8281,-3.8548,-3.8619,-3.8838,-3.904,0.0,0.0,0.0,0.0,0.0,0.0,0.0,-4.2452,-4.3086,-4.3772,-4.4064,-4.4196,-4.4281,-4.4468,-4.457,0.0,0.0,0.0,0.0,0.0,0.0,0.0,0.0,0.0,0.0,0.0,0.0,0.0,0.0,0.0,0.0,0.0,0.0,0.0,0.0,0.0,0.0,0.0,0.0,0.0,0.0,0.0,0.0,-4.9001,-4.9001,-4.9001,-4.9001,-4.9001,-4.9001,-4.9001,-4.9001,-4.9001,0.0,-4.9001,-4.9001,-4.9001,-4.9001,-4.9001,-4.9001,-4.9001,-4.9001,-4.9001,-4.9001,-4.9001,-4.9001,-4.9001,-4.9001,-4.8934,-4.8359,-4.8125,-4.8041,0.0,0.0,0.0,0.0,0.0,0.0,0.0,0.0,0.0,0.0,0.0,0.0,0.0,0.0,0.0,0.0,0.0,0.0,0.0,0.0,-3.56,-3.56,-3.56,-3.56,-3.56,-3.56,-3.56,-3.56,-3.56,-3.56,-3.56,-3.56,-3.56,-3.5633,-3.6388,-3.6818,-3.7079,-3.8003,-3.8482,-3.8646,-3.8767,-3.8832,-3.8947,-3.9309,-3.9594,-3.9928,-4.074,0.0,0.0,0.0,0.0,0.0,0.0,0.0,-4.3993,-4.4224,-4.431,-4.4338,0.0,0.0,0.0,0.0,0.0,0.0,0.0,0.0,0.0,0.0,0.0,0.0,0.0,0.0,0.0,0.0,0.0,0.0,0.0,0.0,0.0,0.0,0.0,0.0,0.0,0.0,0.0,0.0,0.0,-4.9001,-4.9001,-4.9001,-4.9001,-4.9001,-4.9001,-4.9001,-4.9001,-4.9001,-4.9001,-4.9001,-4.9001,-4.9001,-4.9001,-4.9001,-4.9001,-4.9001,-4.9001,-4.9001,-4.9001,-4.9001,-4.8798,-4.8477,-4.8477,-4.8274,-4.7902,-4.753,-4.7378,-4.7327,0.0,0.0,0.0,0.0,0.0,0.0,0.0,0.0,0.0,0.0,0.0,0.0,0.0,0.0,0.0,0.0,0.0,0.0,0.0,0.0,0.0,-3.56,-3.56,-3.56,-3.56,-3.56,-3.56,-3.56,-3.56,-3.56,-3.56,-3.56,-3.5667,-3.5836,-3.6637,-3.7334,-3.7956,-3.8572,-3.9039,-3.9395,-3.9199,-3.9122,-3.9232,-3.9944,-4.0408,-4.0774,-4.1627,-4.1922,-4.205,-4.2925,0.0,0.0,0.0,0.0,-4.4212,-4.431,-4.4338,-4.4395,0.0,0.0,0.0,0.0,0.0,0.0,0.0,0.0,0.0,0.0,0.0,0.0,0.0,0.0,0.0,0.0,0.0,0.0,0.0,0.0,0.0,0.0,0.0,0.0,0.0,0.0,0.0,0.0,0.0,-4.9001,-4.9001,-4.9001,-4.9001,-4.9001,-4.9001,-4.9001,-4.9001,-4.9001,-4.9001,-4.9001,-4.9001,-4.8934,-4.8815,-4.8815,-4.8883,-4.9001,-4.8883,-4.8815,-4.8798,-4.868,-4.8274,-4.7733,-4.7733,-4.7344,-4.6769,-4.665,-4.6599,-4.6583,0.0,0.0,0.0,0.0,0.0,0.0,0.0,0.0,0.0,0.0,0.0,0.0,0.0,0.0,0.0,0.0,0.0,0.0,-3.56,0.0,0.0,-3.56,-3.56,-3.56,-3.56,-3.56,-3.56,-3.56,-3.56,-3.56,-3.56,-3.56,-3.5977,-3.6677,-3.7415,-3.8159,-3.8879,-3.9472,-3.9749,-3.9848,-4.0204,-4.0417,-4.0608,-4.1222,-4.1572,-4.1793,-4.2574,-4.2842,-4.2942,-4.3821,-4.413,0.0,0.0,0.0,-4.4542,-4.4542,-4.457,-4.457,0.0,0.0,0.0,0.0,0.0,0.0,0.0,0.0,0.0,0.0,0.0,0.0,0.0,0.0,0.0,0.0,0.0,0.0,0.0,0.0,0.0,0.0,0.0,0.0,0.0,0.0,0.0,0.0,-4.9001,-4.9001,-4.9001,-4.9001,-4.9001,-4.9001,-4.9001,-4.9001,-4.9001,-4.9001,-4.9001,-4.9001,-4.9001,-4.868,-4.8041,-4.8041,-4.8409,-4.8968,-4.8342,-4.8041,-4.799,-4.7361,-4.7039,-4.6938,-4.6938,-4.6887,-4.6718,-4.6075,-4.5855,-4.5754,0.0,0.0,0.0,0.0,0.0,0.0,0.0,0.0,0.0,0.0,0.0,0.0,0.0,0.0,0.0,-3.56,-3.56,-3.56,-3.56,-3.56,-3.56,-3.56,-3.56,-3.56,-3.56,-3.56,-3.56,-3.56,-3.56,-3.5819,0.0,-3.6265,-3.6451,-3.6846,-3.799,-3.87,-3.9039,-3.9632,-4.0136,-4.0523,-4.0568,-4.0925,-4.1469,-4.2083,-4.2462,-4.2713,-4.3468,-4.381,-4.3962,-4.4339,-4.4468,-4.4468,-4.457,0.0,0.0,0.0,-4.4615,0.0,-4.4615,0.0,0.0,0.0,0.0,0.0,0.0,0.0,0.0,0.0,0.0,0.0,0.0,0.0,0.0,0.0,0.0,0.0,0.0,0.0,0.0,0.0,0.0,0.0,0.0,0.0,0.0,0.0,-4.9001,-4.9001,-4.9001,-4.9001,-4.9001,-4.9001,-4.9001,-4.8798,-4.8409,-4.8392,-4.8189,-4.7767,-4.7767,-4.7597,-4.7293,-4.7293,-4.7462,-4.775,-4.7428,-4.7293,-4.7259,-4.6921,-4.6549,-4.6177,-4.6177,-4.5923,-4.5546,-4.5196,-4.5077,-4.5026,0.0,0.0,0.0,0.0,0.0,0.0,0.0,0.0,0.0,0.0,0.0,0.0,0.0,0.0,0.0,0.0,-3.56,-3.56,-3.56,-3.56,-3.56,-3.56,-3.56,-3.56,-3.56,-3.56,-3.56,-3.56,-3.5785,-3.6214,-3.6812,-3.7185,-3.7371,0.0,-3.8497,-3.9089,-3.9309,-3.9969,-4.0542,-4.1064,-4.1238,-4.1697,-4.2332,-4.3004,-4.3373,-4.3636,-4.4164,-4.4468,-4.4615,-4.4615,-4.4615,-4.4615,-4.4615,-4.4615,0.0,0.0,0.0,0.0,0.0,0.0,0.0,0.0,0.0,0.0,0.0,0.0,0.0,0.0,0.0,0.0,0.0,0.0,0.0,0.0,0.0,0.0,0.0,0.0,0.0,0.0,0.0,0.0,0.0,0.0,0.0,0.0,-4.9001,-4.9001,-4.9001,-4.8832,-4.8731,-4.8731,-4.8545,-4.8189,-4.7648,-4.7631,-4.7344,-4.6786,-4.6786,-4.6701,-4.6515,-4.6515,-4.6413,-4.6244,-4.643,-4.6515,-4.6498,-4.6312,-4.5906,-4.5415,-4.5415,-4.5077,-4.4615,-4.4615,-4.4615,-4.4615,0.0,0.0,0.0,0.0,0.0,0.0,0.0,0.0,0.0,0.0,0.0,0.0,-3.56,-3.56,-3.56,-3.56,-3.56,-3.56,-3.56,-3.56,-3.56,-3.56,-3.56,0.0,-3.56,-3.56,-3.56,-3.56,0.0,0.0,-3.6829,-3.8227,-3.8886,-3.8886,-3.8954,-3.9402,-4.0096,0.0,0.0,0.0,0.0,-4.3263,-4.3426,-4.4187,-4.4519,-4.4519,-4.4553,-4.4598,-4.4615,-4.4615,-4.4615,-4.4615,0.0,0.0,0.0,0.0,0.0,0.0,0.0,0.0,0.0,0.0,0.0,0.0,0.0,0.0,0.0,0.0,0.0,0.0,0.0,0.0,0.0,0.0,0.0,0.0,0.0,0.0,0.0,0.0,0.0,0.0,0.0,0.0,0.0,0.0,-4.9001,-4.9001,-4.9001,-4.8359,-4.7939,-4.7939,-4.7276,-4.6887,-4.6853,-4.6853,-4.6836,-4.6786,-4.6786,-4.643,-4.5771,-4.5771,-4.5382,-4.475,-4.5449,-4.5771,-4.5703,-4.4993,-4.4699,-4.4666,-4.4666,-4.4632,-4.4615,-4.4615,-4.4615,-4.4615,0.0,0.0,0.0,0.0,0.0,0.0,0.0,0.0,0.0,0.0,0.0,0.0,0.0,-3.56,-3.56,-3.56,-3.56,-3.56,-3.56,-3.56,-3.56,-3.56,-3.56,-3.56,-3.56,-3.56,-3.5836,0.0,0.0,-3.7286,-3.821,-3.8734,-3.9242,-3.9723,-3.9723,-3.9859,-4.0146,-4.0882,0.0,0.0,0.0,0.0,0.0,0.0,0.0,0.0,0.0,0.0,0.0,0.0,0.0,0.0,0.0,0.0,0.0,0.0,0.0,0.0,0.0,0.0,0.0,0.0,0.0,0.0,0.0,0.0,0.0,0.0,0.0,0.0,0.0,0.0,0.0,0.0,0.0,0.0,0.0,0.0,0.0,0.0,0.0,0.0,0.0,0.0,0.0,0.0,0.0,-4.8105,-4.7614,-4.7344,-4.7192,-4.7192,-4.6938,-4.6566,-4.6109,-4.5618,-4.541,-4.541,-4.541,-4.5258,-4.4976,-4.4976,-4.4869,-4.4615,-4.4874,-4.4976,-4.4959,-4.4716,-4.4615,-4.4615,-4.4615,-4.4615,-4.4615,-4.4615,-4.4615,-4.4615,0.0,0.0,0.0,0.0,0.0,0.0,0.0,0.0,0.0,0.0,0.0,0.0,0.0,0.0,-3.56,-3.56,-3.56,-3.56,-3.56,-3.56,-3.56,-3.56,-3.56,-3.56,-3.56,-3.5853,-3.6265,0.0,0.0,0.0,0.0,-3.9242,-3.9639,-4.0113,-4.0367,-4.0485,0.0,0.0,0.0,-4.2743,0.0,0.0,-4.4615,0.0,0.0,0.0,0.0,0.0,0.0,0.0,0.0,0.0,0.0,0.0,0.0,0.0,0.0,0.0,0.0,0.0,0.0,0.0,0.0,0.0,0.0,0.0,0.0,0.0,0.0,0.0,0.0,0.0,0.0,0.0,0.0,0.0,0.0,0.0,0.0,0.0,0.0,0.0,0.0,0.0,0.0,0.0,0.0,0.0,-4.6819,-4.6566,-4.6312,-4.6058,-4.6041,-4.5821,-4.5331,-4.4823,-4.4615,-4.4615,-4.4615,-4.4615,-4.4615,-4.4615,-4.4615,-4.4615,-4.4615,-4.4615,-4.4615,-4.4615,-4.4615,-4.4615,-4.4615,-4.4615,-4.4615,-4.4615,-4.4615,-4.4615,0.0,0.0,0.0,0.0,0.0,0.0,0.0,0.0,0.0,-3.56,0.0,0.0,0.0,0.0,0.0,-3.56,-3.5616,-3.5633,-3.5633,-3.565,-3.5667,-3.5667,-3.5667,-3.5667,-3.5667,0.0,0.0,0.0,0.0,0.0,0.0,0.0,-4.0113,-4.0163,-4.0882,-4.1221,-4.1322,0.0,-4.2743,-4.346,0.0,-4.4615,-4.4615,0.0,0.0,0.0,-4.4615,-4.4615,0.0,-4.4615,0.0,0.0,0.0,0.0,0.0,0.0,0.0,0.0,0.0,0.0,0.0,0.0,0.0,0.0,0.0,0.0,0.0,0.0,0.0,0.0,0.0,0.0,0.0,0.0,0.0,0.0,0.0,0.0,0.0,0.0,0.0,0.0,0.0,0.0,0.0,0.0,-4.6752,-4.6752,-4.6735,-4.6058,-4.5331,-4.4632,-4.4615,-4.4615,-4.4615,-4.4615,-4.4615,-4.4615,-4.4615,-4.4615,-4.4615,-4.4615,-4.4615,-4.4615,-4.4615,-4.4615,-4.4615,-4.4615,-4.4615,-4.4615,-4.4615,-4.4615,-4.4615,-4.4615,-4.4615,-4.4615,0.0,0.0,0.0,0.0,0.0,0.0,0.0,0.0,-3.56,0.0,0.0,0.0,-3.56,-3.56,-3.56,-3.56,-3.6129,-3.6451,-3.6451,-3.6975,-3.7256,-3.7256,-3.7256,-3.7256,-3.7256,-3.7483,-3.7855,-3.8379,-3.8785,-3.9259,-3.9808,-4.0011,0.0,0.0,-4.1119,-4.1796,-4.2784,-4.3031,0.0,-4.346,-4.4265,-4.4615,0.0,0.0,0.0,0.0,0.0,-4.4615,-4.4615,0.0,-4.4615,-4.4615,0.0,0.0,0.0,0.0,0.0,0.0,-4.4615,0.0,0.0,0.0,0.0,0.0,0.0,0.0,0.0,0.0,0.0,0.0,0.0,0.0,0.0,0.0,0.0,0.0,0.0,0.0,0.0,0.0,0.0,0.0,0.0,0.0,0.0,0.0,-4.6007,-4.5771,-4.5258,-4.5038,-4.4818,-4.4615,-4.4615,-4.4615,-4.4615,-4.4615,-4.4615,-4.4615,-4.4615,-4.4615,-4.4615,-4.4615,-4.4615,-4.4615,-4.4615,-4.4615,-4.4615,-4.4615,-4.4615,-4.4615,-4.4615,-4.4615,-4.4615,-4.4615,-4.4615,-4.4615,0.0,0.0,0.0,0.0,0.0,0.0,0.0,0.0,-3.56,0.0,0.0,0.0,-3.6062,-3.6383,-3.6546,-3.6546,-3.6992,-3.7246,-3.7246,-3.7669,-3.7905,-3.7905,-3.7905,-3.7905,-3.7905,-3.821,-3.8565,-3.8988,-3.9292,-3.969,-4.0113,-4.0417,0.0,0.0,0.0,0.0,0.0,0.0,0.0,0.0,-4.4401,0.0,0.0,-4.4615,-4.4615,0.0,0.0,0.0,-4.4615,-4.4615,-4.4615,0.0,0.0,0.0,0.0,0.0,0.0,0.0,0.0,0.0,0.0,0.0,0.0,0.0,-4.4615,-4.4615,0.0,0.0,0.0,0.0,0.0,0.0,0.0,0.0,0.0,0.0,0.0,0.0,0.0,0.0,0.0,0.0,0.0,-4.5872,-4.5686,-4.5263,-4.5229,-4.5043,-4.4632,-4.4615,-4.4615,-4.4615,-4.4615,-4.4615,-4.4615,-4.4615,-4.4615,-4.4615,-4.4615,-4.4615,-4.4615,-4.4615,-4.4615,-4.4615,-4.4615,-4.4615,-4.4615,-4.4615,-4.4615,-4.4615,-4.4615,-4.4615,-4.4615,-4.4615,-4.4615,-4.4615,0.0,0.0,0.0,0.0,0.0,0.0,0.0,0.0,0.0,0.0,-3.5802,-3.6146,-3.6846,-3.7499,-3.7905,-3.7905,-3.7973,-3.8024,-3.8024,-3.8108,-3.8142,-3.8142,-3.8142,-3.8142,-3.8142,-3.8785,-3.9106,-3.9106,-3.9791,-4.0146,-4.0248,-4.0882,-4.1288,0.0,0.0,0.0,0.0,0.0,0.0,-4.4615,-4.4615,-4.4615,0.0,0.0,-4.4615,-4.4615,-4.4615,-4.4615,-4.4615,-4.4615,-4.4615,0.0,0.0,0.0,0.0,0.0,-4.4615,0.0,0.0,0.0,0.0,0.0,0.0,0.0,-4.4615,-4.4615,-4.4615,0.0,0.0,0.0,0.0,0.0,0.0,0.0,0.0,0.0,0.0,0.0,0.0,0.0,0.0,0.0,-4.4615,-4.4615,-4.4615,-4.4615,-4.4615,-4.4615,-4.4615,-4.4615,-4.4615,-4.4615,-4.4615,-4.4615,-4.4615,-4.4615,-4.4615,-4.4615,-4.4615,-4.4615,-4.4615,-4.4615,-4.4615,-4.4615,-4.4615,-4.4615,-4.4615,-4.4615,-4.4615,-4.4615,-4.4615,-4.4615,-4.4615,-4.4615,-4.4615,-4.4615,-3.56,0.0,0.0,0.0,0.0,0.0,0.0,0.0,0.0,-3.6468,-3.7077,-3.7516,-3.7669,-3.7821,-3.7905,-3.7905,-3.8447,-3.8785,-3.8785,-3.9326,-3.9673,-3.9673,-3.9673,-3.9673,-3.9673,-3.9808,-3.9893,-3.9893,-4.0028,-4.0417,-4.0984,0.0,0.0,0.0,0.0,0.0,0.0,0.0,0.0,-4.4615,-4.4615,0.0,-4.4615,-4.4615,-4.4615,-4.4615,-4.4615,-4.4615,-4.4615,-4.4615,-4.4615,-4.4615,0.0,0.0,0.0,0.0,0.0,0.0,0.0,0.0,0.0,0.0,0.0,0.0,-4.4615,-4.4615,-4.4615,0.0,0.0,0.0,0.0,0.0,0.0,0.0,0.0,0.0,0.0,0.0,0.0,0.0,0.0,0.0,-4.4615,-4.4615,-4.4615,-4.4615,-4.4615,-4.4615,-4.4615,-4.4615,-4.4615,-4.4615,-4.4615,-4.4615,-4.4615,-4.4615,-4.4615,-4.4615,-4.4615,-4.4615,-4.4615,-4.4615,-4.4615,-4.4615,-4.4615,-4.4615,-4.4615,-4.4615,-4.4615,-4.4615,-4.4615,-4.4615,-4.4615,-4.4615,-4.4615,-4.4615,-3.56,0.0,0.0,0.0,0.0,0.0,0.0,0.0,0.0,-3.7297,-3.799,-3.8447,-3.8447,-3.8768,-3.8988,-3.8988,-3.9351,-3.9554,-3.9554,-3.9893,-4.0096,-4.0096,-4.0096,-4.0096,-4.0096,-4.0468,-4.0646,-4.0646,-4.1027,-4.1373,-4.1762,0.0,0.0,0.0,0.0,0.0,0.0,0.0,-4.4615,-4.4615,-4.4615,0.0,-4.4615,-4.4615,-4.4615,-4.4615,-4.4615,-4.4615,-4.4615,-4.4615,-4.4615,0.0,0.0,-4.4615,-4.4615,0.0,-4.4615,-4.4615,0.0,0.0,0.0,-4.4615,0.0,0.0,0.0,-4.4615,-4.4615,-4.4615,0.0,0.0,0.0,0.0,0.0,0.0,0.0,0.0,0.0,0.0,0.0,0.0,0.0,0.0,-4.4615,-4.4615,-4.4615,-4.4615,-4.4615,-4.4615,-4.4615,-4.4615,-4.4615,-4.4615,-4.4615,-4.4615,-4.4615,-4.4615,-4.4615,-4.4615,-4.4615,-4.4615,-4.4615,-4.4615,-4.4615,-4.4615,-4.4615,-4.4615,-4.4615,-4.4615,-4.4615,-4.4615,-4.4615,-4.4615,-4.4615,-4.4615,-4.4615,-4.4615,-3.6039,0.0,0.0,0.0,0.0,0.0,0.0,0.0,0.0,-3.8091,-3.8751,-3.9208,-3.9208,0.0,0.0,0.0,-4.0096,-4.0163,0.0,0.0,-4.0383,-4.0519,-4.0519,-4.0519,-4.0519,-4.1102,-4.1407,-4.1407,-4.1999,-4.2371,0.0,0.0,0.0,0.0,0.0,0.0,0.0,0.0,0.0,-4.4615,0.0,-4.4615,-4.4615,-4.4615,-4.4615,-4.4615,-4.4615,-4.4615,-4.4615,-4.4615,-4.4615,-4.4615,-4.4615,-4.4615,0.0,0.0,0.0,0.0,0.0,0.0,0.0,0.0,0.0,-4.4615,0.0,0.0,0.0,-4.4615,0.0,0.0,0.0,0.0,0.0,0.0,0.0,0.0,0.0,0.0,0.0,0.0,0.0,0.0,0.0,-4.4615,-4.4615,-4.4615,-4.4615,-4.4615,-4.4615,-4.4615,-4.4615,-4.4615,-4.4615,-4.4615,-4.4615,-4.4615,-4.4615,-4.4615,-4.4615,-4.4615,-4.4615,-4.4615,-4.4615,-4.4615,-4.4615,-4.4615,-4.4615,-4.4615,-4.4615,-4.4615,-4.4615,-4.4615,-4.4615,-4.4615,-4.4615,-4.4615,-3.7652,-3.7652,0.0,0.0,0.0,0.0,0.0,0.0,0.0,0.0,0.0,0.0,0.0,0.0,0.0,0.0,0.0,0.0,-4.1035,0.0,0.0,-4.2016,-4.2033,-4.2033,-4.2033,-4.2117,-4.2168,-4.2168,-4.2252,-4.2625,0.0,0.0,0.0,0.0,-4.4564,0.0,0.0,0.0,-4.4615,0.0,-4.4615,-4.4615,0.0,-4.4615,-4.4615,-4.4615,-4.4615,-4.4615,-4.4615,0.0,-4.4615,-4.4615,0.0,-4.4615,-4.4615,0.0,0.0,0.0,0.0,0.0,0.0,0.0,-4.4615,0.0,0.0,0.0,-4.4615,-4.4615,0.0,0.0,0.0,0.0,0.0,0.0,0.0,0.0,0.0,0.0,0.0,0.0,0.0,0.0,0.0,-4.4615,-4.4615,-4.4615,-4.4615,-4.4615,-4.4615,-4.4615,-4.4615,-4.4615,-4.4615,-4.4615,-4.4615,-4.4615,-4.4615,-4.4615,-4.4615,-4.4615,-4.4615,-4.4615,-4.4615,-4.4615,-4.4615,-4.4615,-4.4615,-4.4615,-4.4615,-4.4615,-4.4615,-4.4615,-4.4615,-4.4615,-4.4615,-4.4615,-3.8075,-3.7905,0.0,0.0,0.0,0.0,0.0,0.0,0.0,0.0,0.0,0.0,0.0,0.0,0.0,0.0,0.0,-4.1491,0.0,0.0,0.0,0.0,0.0,-4.2286,-4.2286,-4.2726,-4.2946,-4.2946,-4.3403,-4.3775,0.0,0.0,0.0,0.0,-4.4615,0.0,-4.4615,0.0,-4.4615,0.0,0.0,0.0,0.0,-4.4615,-4.4615,-4.4615,-4.4615,-4.4615,-4.4615,0.0,-4.4615,0.0,0.0,0.0,0.0,0.0,0.0,0.0,0.0,0.0,0.0,0.0,0.0,0.0,-4.4615,0.0,-4.4615,0.0,0.0,0.0,0.0,0.0,0.0,0.0,0.0,0.0,0.0,0.0,0.0,0.0,0.0,0.0,0.0,0.0,0.0,0.0,-4.4615,-4.4615,-4.4615,-4.4615,-4.4615,-4.4615,-4.4615,-4.4615,-4.4615,-4.4615,-4.4615,-4.4615,-4.4615,-4.4615,-4.4615,-4.4615,-4.4615,-4.4615,-4.4615,-4.4615,-4.4615,-4.4615,-4.4615,-4.4615,-4.4615,-4.4615,-4.4615,-4.4615,-4.4615,-4.4615,-3.87,0.0,0.0,0.0,0.0,0.0,0.0,0.0,0.0,0.0,0.0,0.0,-4.2236,-4.2286,0.0,0.0,-4.2286,-4.2388,0.0,0.0,-4.2692,0.0,0.0,0.0,0.0,-4.3453,-4.3741,-4.3741,-4.4299,-4.4615,0.0,0.0,0.0,0.0,0.0,-4.4615,-4.4615,0.0,0.0,-4.4615,-4.4615,-4.4615,-4.4615,-4.4615,-4.4615,-4.4615,-4.4615,-4.4615,-4.4615,-4.4615,-4.4615,0.0,-4.4615,0.0,0.0,0.0,0.0,0.0,-4.4615,0.0,0.0,0.0,0.0,0.0,0.0,0.0,0.0,0.0,0.0,0.0,0.0,0.0,0.0,0.0,0.0,0.0,0.0,0.0,0.0,0.0,0.0,0.0,0.0,0.0,0.0,-4.4615,-4.4615,-4.4615,-4.4615,-4.4615,-4.4615,-4.4615,-4.4615,-4.4615,-4.4615,-4.4615,-4.4615,-4.4615,-4.4615,-4.4615,-4.4615,-4.4615,-4.4615,-4.4615,-4.4615,-4.4615,-4.4615,-4.4615,-4.4615,-4.4615,-4.4615,-4.4615,-4.4615,-4.4615,-4.4615,-4.4615,-4.0045,-4.0028,0.0,0.0,0.0,0.0,0.0,0.0,0.0,0.0,0.0,0.0,0.0,0.0,0.0,0.0,0.0,-4.2591,-4.3308,0.0,-4.3724,0.0,0.0,-4.453,0.0,0.0,-4.4564,-4.4564,-4.4598,0.0,0.0,0.0,0.0,0.0,0.0,-4.4615,-4.4615,-4.4615,-4.4615,-4.4615,-4.4615,-4.4615,-4.4615,0.0,-4.4615,-4.4615,-4.4615,0.0,0.0,-4.4615,-4.4615,0.0,0.0,0.0,0.0,0.0,0.0,0.0,0.0,0.0,0.0,-4.4615,0.0,0.0,0.0,0.0,-4.4615,0.0,0.0,0.0,0.0,0.0,0.0,0.0,0.0,0.0,0.0,0.0,0.0,0.0,0.0,0.0,0.0,0.0,0.0,-4.4615,-4.4615,-4.4615,-4.4615,-4.4615,-4.4615,-4.4615,-4.4615,-4.4615,-4.4615,-4.4615,-4.4615,-4.4615,-4.4615,-4.4615,-4.4615,-4.4615,-4.4615,-4.4615,-4.4615,-4.4615,-4.4615,-4.4615,-4.4615,-4.4615,-4.4615,-4.4615,-4.4615,-4.4615,-4.4615,-4.4615,0.0,0.0,0.0,0.0,0.0,0.0,0.0,-4.1441,0.0,0.0,0.0,0.0,0.0,-4.3836,-4.3836,0.0,0.0,-4.3938,-4.4181,-4.4181,0.0,0.0,0.0,-4.4615,0.0,0.0,0.0,0.0,0.0,0.0,0.0,0.0,0.0,0.0,0.0,-4.4615,0.0,0.0,0.0,0.0,0.0,-4.4615,-4.4615,0.0,0.0,-4.4615,-4.4615,-4.4615,0.0,-4.4615,-4.4615,-4.4615,-4.4615,-4.4615,-4.4615,-4.4615,-4.4615,0.0,0.0,0.0,-4.4615,-4.4615,0.0,0.0,0.0,0.0,0.0,0.0,0.0,0.0,0.0,0.0,0.0,0.0,0.0,0.0,0.0,0.0,0.0,0.0,0.0,0.0,0.0,0.0,0.0,-4.4615,-4.4615,-4.4615,-4.4615,-4.4615,-4.4615,-4.4615,-4.4615,-4.4615,-4.4615,-4.4615,-4.4615,-4.4615,-4.4615,-4.4615,-4.4615,-4.4615,-4.4615,-4.4615,-4.4615,-4.4615,-4.4615,-4.4615,-4.4615,-4.4615,-4.4615,-4.4615,-4.4615,-4.4615,-4.4615,-4.4615,-4.0891,0.0,0.0,0.0,0.0,0.0,0.0,0.0,0.0,0.0,-4.3656,0.0,-4.4547,0.0,-4.4615,0.0,-4.4615,-4.4615,-4.4615,-4.4615,0.0,-4.4615,-4.4615,0.0,0.0,0.0,0.0,0.0,0.0,-4.4615,0.0,0.0,0.0,0.0,0.0,0.0,-4.4615,0.0,-4.4615,0.0,0.0,-4.4615,0.0,0.0,-4.4615,-4.4615,0.0,-4.4615,-4.4615,-4.4615,-4.4615,-4.4615,-4.4615,-4.4615,-4.4615,-4.4615,-4.4615,-4.4615,-4.4615,-4.4615,0.0,-4.4615,-4.4615,0.0,-4.4615,0.0,0.0,0.0,0.0,0.0,0.0,0.0,0.0,0.0,0.0,0.0,0.0,-4.4615,0.0,0.0,0.0,0.0,0.0,0.0,-4.4615,-4.4615,-4.4615,-4.4615,0.0,0.0,-4.4615,-4.4615,-4.4615,-4.4615,-4.4615,-4.4615,-4.4615,-4.4615,-4.4615,-4.4615,-4.4615,-4.4615,-4.4615,-4.4615,-4.4615,-4.4615,-4.4615,-4.4615,-4.4615,-4.4615,-4.4615,-4.4615,-4.4615,-4.4615,-4.4615,-4.4615,0.0,0.0,0.0,0.0,-4.188,0.0,0.0,0.0,-4.3443,0.0,-4.413,-4.4615,-4.4615,-4.4615,-4.4615,-4.4615,-4.4615,-4.4615,-4.4615,-4.4615,0.0,0.0,-4.4615,-4.4615,-4.4615,0.0,0.0,0.0,0.0,0.0,0.0,0.0,0.0,0.0,-4.4615,0.0,-4.4615,-4.4615,-4.4615,-4.4615,-4.4615,-4.4615,-4.4615,-4.4615,-4.4615,-4.4615,-4.4615,-4.4615,-4.4615,-4.4615,-4.4615,-4.4615,-4.4615,-4.4615,-4.4615,-4.4615,-4.4615,-4.4615,-4.4615,-4.4615,-4.4615,-4.4615,0.0,0.0,0.0,0.0,-4.4615,0.0,0.0,0.0,0.0,0.0,0.0,0.0,0.0,0.0,0.0,0.0,0.0,0.0,0.0,0.0,0.0,-4.4615,-4.4615,-4.4615,-4.4615,0.0,0.0,0.0,-4.4615,-4.4615,-4.4615,-4.4615,-4.4615,-4.4615,-4.4615,-4.4615,-4.4615,-4.4615,-4.4615,-4.4615,-4.4615,-4.4615,-4.4615,-4.4615,-4.4615,-4.4615,-4.4615,-4.4615,-4.4615,-4.4615,-4.4615,-4.4615,-4.4615,-4.4615,-4.2286,-4.2743,-4.3064,0.0,-4.2997,-4.3132,0.0,0.0,0.0,0.0,-4.4479,-4.4615,-4.4615,-4.4615,-4.4615,-4.4615,-4.4615,0.0,0.0,0.0,0.0,-4.4615,-4.4615,-4.4615,-4.4615,-4.4615,0.0,-4.4615,0.0,0.0,-4.4615,0.0,0.0,0.0,0.0,0.0,-4.4615,-4.4615,-4.4615,-4.4615,-4.4615,-4.4615,0.0,0.0,-4.4615,-4.4615,-4.4615,-4.4615,-4.4615,-4.4615,-4.4615,-4.4615,-4.4615,-4.4615,-4.4615,-4.4615,-4.4615,-4.4615,-4.4615,-4.4615,-4.4615,-4.4615,-4.4615,-4.4615,0.0,0.0,0.0,0.0,0.0,0.0,0.0,0.0,0.0,0.0,0.0,0.0,0.0,0.0,0.0,-4.4615,0.0,0.0,0.0,-4.4615,-4.4615,-4.4615,-4.4615,0.0,0.0,0.0,0.0,-4.4615,-4.4615,-4.4615,-4.4615,-4.4615,-4.4615,-4.4615,-4.4615,-4.4615,-4.4615,-4.4615,-4.4615,-4.4615,-4.4615,-4.4615,-4.4615,-4.4615,-4.4615,-4.4615,-4.4615,-4.4615,-4.4615,-4.4615,-4.4615,-4.4615,-4.3328,0.0,0.0,-4.3927,0.0,0.0,-4.3927,0.0,0.0,-4.4615,-4.4615,0.0,-4.4615,-4.4615,-4.4615,-4.4615,-4.4615,0.0,-4.4615,0.0,0.0,-4.4615,-4.4615,-4.4615,-4.4615,-4.4615,0.0,-4.4615,0.0,0.0,-4.4615,0.0,0.0,0.0,0.0,-4.4615,0.0,-4.4615,-4.4615,-4.4615,-4.4615,0.0,0.0,-4.4615,-4.4615,-4.4615,-4.4615,-4.4615,-4.4615,-4.4615,-4.4615,-4.4615,-4.4615,-4.4615,-4.4615,-4.4615,-4.4615,-4.4615,-4.4615,-4.4615,-4.4615,-4.4615,-4.4615,-4.4615,-4.4615,-4.4615,-4.4615,0.0,0.0,0.0,0.0,0.0,0.0,0.0,0.0,0.0,0.0,0.0,0.0,0.0,-4.4615,0.0,0.0,0.0,-4.4615,-4.4615,0.0,0.0,0.0,0.0,0.0,-4.4615,-4.4615,-4.4615,-4.4615,-4.4615,-4.4615,-4.4615,-4.4615,-4.4615,-4.4615,-4.4615,-4.4615,-4.4615,-4.4615,-4.4615,-4.4615,-4.4615,-4.4615,-4.4615,-4.4615,-4.4615,-4.4615,-4.4615,-4.4615,-4.4615,0.0,0.0,0.0,0.0,0.0,0.0,0.0,-4.4615,0.0,-4.4615,0.0,-4.4649,-4.4733,-4.475,-4.4784,-4.4886,0.0,-4.4902,-4.4902,-4.4801,-4.475,-4.475,-4.4649,-4.4615,-4.4615,-4.4615,0.0,0.0,0.0,0.0,0.0,0.0,0.0,0.0,0.0,0.0,0.0,-4.4615,-4.4615,-4.4615,-4.4615,-4.4615,-4.4615,-4.4615,-4.4615,-4.4615,-4.4615,-4.4615,-4.4615,-4.4615,-4.4615,-4.4615,-4.4615,-4.4615,-4.4615,-4.4615,-4.4615,-4.4615,-4.4615,-4.4615,-4.4615,-4.4615,-4.4615,-4.4615,-4.4615,-4.4615,-4.4615,-4.4615,-4.4615,-4.4615,0.0,0.0,0.0,0.0,0.0,0.0,0.0,0.0,0.0,0.0,0.0,0.0,0.0,0.0,0.0,0.0,0.0,0.0,0.0,0.0,0.0,-4.4615,-4.4615,-4.4615,-4.4615,0.0,-4.4615,-4.4615,-4.4615,-4.4615,-4.4615,-4.4615,-4.4615,-4.4615,-4.4615,-4.4615,-4.4615,-4.4615,-4.4615,-4.4615,-4.4615,-4.4615,-4.4615,-4.4615,-4.4615,-4.4615,0.0,0.0,0.0,0.0,0.0,-4.4615,-4.4615,-4.4615,-4.4615,-4.4615,-4.4615,-4.4852,-4.5449,-4.5517,-4.5754,-4.6346,-4.6397,0.0,0.0,0.0,0.0,-4.5517,-4.4908,-4.4615,-4.4615,-4.4615,-4.4615,0.0,0.0,0.0,0.0,0.0,0.0,0.0,0.0,0.0,-4.4615,-4.4615,0.0,-4.4615,-4.4615,-4.4615,-4.4615,-4.4615,-4.4615,-4.4615,-4.4615,-4.4615,-4.4615,-4.4615,-4.4615,-4.4615,-4.4615,-4.4615,-4.4615,-4.4615,-4.4615,-4.4615,-4.4615,-4.4615,-4.4615,-4.4615,-4.4615,-4.4615,-4.4615,-4.4615,-4.4615,-4.4615,-4.4615,-4.4615,-4.4615,0.0,0.0,0.0,0.0,0.0,0.0,0.0,0.0,0.0,0.0,0.0,0.0,0.0,0.0,0.0,0.0,0.0,0.0,0.0,0.0,0.0,-4.4615,0.0,0.0,0.0,-4.4615,-4.4615,-4.4615,-4.4615,-4.4615,-4.4615,-4.4615,-4.4615,-4.4615,-4.4615,-4.4615,-4.4615,-4.4615,-4.4615,-4.4615,-4.4615,-4.4615,-4.4615,-4.4615,-4.4615,0.0,0.0,0.0,0.0,0.0,0.0,0.0,-4.5162,0.0,-4.5162,-4.5162,-4.5449,-4.6194,-4.6261,-4.6413,-4.6752,-4.6786,-4.6786,-4.6786,-4.6464,-4.6261,-4.6261,-4.5551,0.0,-4.5162,-4.4801,-4.4615,-4.4615,0.0,0.0,0.0,0.0,0.0,0.0,0.0,-4.4615,0.0,0.0,0.0,-4.4615,-4.4615,-4.4615,-4.4615,-4.4615,-4.4615,-4.4615,-4.4615,-4.4615,-4.4615,-4.4615,-4.4615,-4.4615,-4.4615,-4.4615,-4.4615,-4.4615,-4.4615,-4.4615,-4.4615,-4.4615,-4.4615,-4.4615,-4.4615,-4.4615,-4.4615,-4.4615,-4.4615,-4.4615,-4.4615,-4.4615,-4.4615,-4.4615,0.0,0.0,0.0,0.0,0.0,0.0,0.0,0.0,0.0,0.0,0.0,0.0,0.0,0.0,0.0,0.0,0.0,0.0,0.0,0.0,0.0,0.0,0.0,0.0,0.0,-4.4615,-4.4615,-4.4395,-4.3995,-4.4429,-4.435,-4.3995,-4.4429,-4.4615,-4.4615,-4.4615,-4.4615,-4.4615,-4.4615,-4.4615,-4.4615,-4.4615,-4.4615,-4.4615,0.0,-4.4776,0.0,0.0,-4.4733,0.0,-4.5618,-4.5838,-4.594,-4.594,-4.594,-4.621,-4.6955,-4.7022,-4.709,-4.7242,-4.7259,-4.7259,-4.7259,-4.7124,-4.7022,-4.7022,-4.6329,-4.5872,-4.5703,-4.5128,-4.4767,0.0,0.0,0.0,0.0,0.0,0.0,0.0,0.0,0.0,0.0,0.0,-4.4615,-4.4615,-4.4615,-4.4615,-4.4615,-4.4615,-4.4615,-4.4615,-4.4615,-4.4615,-4.4615,-4.4615,-4.4615,-4.4615,-4.4615,-4.4615,-4.4615,-4.4615,-4.4615,-4.4615,-4.4615,-4.4615,-4.4615,-4.4615,-4.4615,-4.4615,-4.4615,-4.4615,-4.4615,-4.4615,-4.4615,-4.4615,-4.4615,-4.4615,0.0,0.0,0.0,0.0,0.0,0.0,0.0,0.0,0.0,0.0,0.0,0.0,0.0,0.0,0.0,0.0,0.0,0.0,0.0,0.0,0.0,-4.4615,-4.4615,0.0,-4.4615,-4.4615,-4.4445,-4.4012,-4.3409,-4.3876,-4.3842,-4.3426,-4.4062,-4.4445,-4.4615,-4.4615,-4.4615,-4.4615,-4.4615,-4.4615,-4.4615,-4.4615,-4.4615,-4.4615,0.0,0.0,0.0,0.0,0.0,0.0,-4.5703,-4.6261,-4.6684,-4.6684,-4.6684,-4.6972,-4.7733,-4.7817,-4.8088,-4.8748,-4.8798,-4.8798,-4.8798,-4.8189,-4.7817,-4.7817,-4.709,-4.638,-4.572,-4.5635,-4.5263,0.0,0.0,-4.4615,0.0,0.0,0.0,0.0,0.0,0.0,0.0,-4.4615,-4.4615,-4.4615,-4.4615,-4.4615,-4.4615,-4.4615,-4.4615,-4.4615,-4.4615,-4.4615,-4.4615,-4.4615,-4.4615,-4.4615,-4.4615,-4.4615,-4.4615,-4.4615,-4.4615,-4.4615,-4.4615,-4.4615,-4.4615,-4.4615,-4.4615,-4.4615,-4.4615,-4.4615,-4.4615,-4.4615,-4.4615,-4.4615,-4.4615,-4.4615,-4.4615,0.0,0.0,0.0,0.0,0.0,0.0,0.0,0.0,0.0,0.0,-4.4615,0.0,0.0,0.0,0.0,0.0,0.0,0.0,-4.4615,0.0,-4.4615,-4.4615,-4.4615,-4.4615,-4.4598,-4.3859,-4.346,-4.3375,-4.2794,-4.2844,-4.3392,-4.3477,-4.3927,-4.4615,-4.4615,-4.4615,-4.4615,-4.4615,-4.4615,-4.4615,-4.4615,-4.4615,-4.4615,0.0,0.0,0.0,0.0,0.0,0.0,0.0,-4.7276,-4.7631,-4.8054,-4.775,-4.775,-4.8494,-4.8578,-4.868,-4.8984,-4.9001,-4.9001,-4.9001,-4.8731,-4.8578,-4.8578,-4.7868,-4.7327,-4.7039,-4.616,-4.5568,0.0,0.0,0.0,0.0,0.0,0.0,0.0,0.0,-4.4615,-4.4615,-4.4615,-4.4615,-4.4615,-4.4615,-4.4615,-4.4615,-4.4615,-4.4615,-4.4615,-4.4615,-4.4615,-4.4615,-4.4615,-4.4615,-4.4615,-4.4615,-4.4615,-4.4615,-4.4615,-4.4615,-4.4615,-4.4615,-4.4615,-4.4615,-4.4615,-4.4615,-4.4615,-4.4615,-4.4615,-4.4615,-4.4615,-4.4615,-4.4615,-4.4615,-4.4615,-4.4615,0.0,0.0,0.0,0.0,0.0,0.0,0.0,0.0,0.0,0.0,0.0,0.0,0.0,0.0,0.0,0.0,0.0,0.0,-4.4615,0.0,-4.4615,-4.4615,-4.4113,-4.3876,-4.3876,-4.3098,-4.2506,-4.2083,-4.2236,-4.2709,-4.3426,-4.391,-4.4282,-4.4615,-4.4615,-4.4615,-4.4615,-4.4615,-4.4615,-4.4615,-4.4615,-4.4615,-4.4615,-4.6472,0.0,-4.6503,0.0,-4.6733,-4.731,-4.7804,-4.8075,-4.8426,-4.8934,-4.8562,-4.8426,-4.8951,-4.9001,-4.9001,-4.9001,-4.9001,-4.9001,-4.9001,-4.9001,-4.9001,-4.9001,-4.8511,0.0,-4.7889,-4.6887,-4.6143,-4.5703,-4.5179,0.0,0.0,0.0,0.0,0.0,-4.4615,-4.4615,-4.4615,-4.4615,-4.4615,-4.4615,-4.4615,-4.4615,-4.4615,-4.4615,-4.4615,-4.4615,-4.4615,-4.4615,-4.4615,-4.4615,-4.4615,-4.4615,-4.4615,-4.4615,-4.4615,-4.4615,-4.4615,-4.4615,-4.4615,-4.4615,-4.4615,-4.4615,-4.4615,-4.4615,-4.4615,-4.4615,-4.4615,-4.4615,-4.4615,-4.4615,-4.4615,-4.4615,-4.4615,-4.4615,0.0,0.0,0.0,0.0,0.0,0.0,-4.4615,-4.4615,-4.4615,0.0,0.0,0.0,0.0,0.0,0.0,0.0,0.0,0.0,0.0,0.0,0.0,-4.347,-4.3081,-4.3081,-4.2337,-4.1694,-4.1238,-4.1965,-4.2574,-4.3132,-4.4147,-4.4615,-4.4615,-4.4615,-4.4615,-4.4615,-4.4615,-4.4615,-4.4615,-4.4615,-4.4615,-4.4615,-4.842,-4.8039,-4.7582,-4.7227,-4.7556,-4.7872,-4.7889,-4.8528,-4.8984,-4.9001,-4.9001,-4.8984,-4.9001,-4.9001,-4.9001,-4.9001,-4.9001,-4.9001,-4.9001,-4.9001,-4.9001,0.0,0.0,-4.8663,-4.7906,-4.7872,-4.7175,-4.5703,0.0,0.0,-4.4615,0.0,-4.4615,-4.4615,-4.4615,-4.4615,-4.4615,-4.4615,-4.4615,-4.4615,-4.4615,-4.4615,-4.4615,-4.4615,-4.4615,-4.4615,-4.4615,-4.4615,-4.4615,-4.4615,-4.4615,-4.4615,-4.4615,-4.4615,-4.4615,-4.4615,-4.4615,-4.4615,-4.4615,-4.4615,-4.4615,-4.4615,-4.4615,-4.4615,-4.4615,-4.4615,-4.4615,-4.4615,-4.4615,-4.4615,-4.4615,-4.4615,-4.4615,-4.4615,0.0,0.0,0.0,0.0,0.0,0.0,-4.4615,-4.4615,-4.4615,0.0,0.0,0.0,0.0,0.0,0.0,0.0,0.0,-4.4615,-4.3826,0.0,-4.3409,-4.2675,-4.2303,-4.2286,-4.1576,-4.1221,-4.1238,-4.1965,-4.2286,-4.2388,-4.3938,-4.4615,-4.4615,-4.4615,-4.4615,-4.4615,-4.4615,-4.4615,-4.4615,-4.4615,-4.4615,-4.4615,-4.8713,-4.859,-4.8452,-4.8088,-4.8367,-4.8663,-4.8663,-4.8849,-4.9001,-4.9001,-4.9001,-4.9001,-4.9001,-4.9001,-4.9001,0.0,-4.9001,-4.9001,0.0,-4.9001,-4.9001,-4.9001,-4.9001,-4.89,-4.8663,-4.8173,-4.7652,-4.7179,0.0,0.0,0.0,-4.4615,-4.4615,-4.4615,-4.4615,-4.4615,-4.4615,-4.4615,-4.4615,-4.4615,-4.4615,-4.4615,-4.4615,-4.4615,-4.4615,-4.4615,-4.4615,-4.4615,-4.4615,-4.4615,-4.4615,-4.4615,-4.4615,-4.4615,-4.4615,-4.4615,-4.4615,-4.4615,-4.4615,-4.4615,-4.4615,-4.4615,-4.4615,-4.4615,-4.4615,-4.4615,-4.4615,-4.4615,-4.4615,-4.4615,-4.4615,-4.4615,-4.4615,-4.4615,-4.4615,0.0,0.0,0.0,0.0,0.0,-4.4615,-4.4615,0.0,-4.4615,0.0,0.0,0.0,0.0,0.0,0.0,0.0,0.0,-4.3047,0.0,-4.2642,-4.1914,-4.1542,-4.1542,-4.0798,-4.0696,-4.1238,-4.1965,-4.2574,-4.3115,-4.413,-4.4615,-4.4615,-4.4615,-4.4615,-4.4615,-4.4615,-4.4615,-4.4615,-4.4615,-4.4615,-4.4615,-4.9937,-4.9758,-4.9538,-4.9137,-4.9091,-4.9094,-4.9094,-4.9032,-4.9001,-4.9001,-4.9001,-4.9001,-4.9001,-4.9001,0.0,-4.9001,-4.9001,-4.9001,-4.9001,-4.9001,-4.9001,-4.9001,-4.9001,-4.9001,-4.9001,-4.8562,0.0,-4.7889,-4.643,-4.5466,-4.4993,-4.4733,-4.4615,-4.4615,-4.4615,-4.4615,-4.4615,-4.4615,-4.4615,-4.4615,-4.4615,-4.4615,-4.4615,-4.4615,-4.4615,-4.4615,-4.4615,-4.4615,-4.4615,-4.4615,-4.4615,-4.4615,-4.4615,-4.4615,-4.4615,-4.4615,-4.4615,-4.4615,-4.4615,-4.4615,-4.4615,-4.4615,-4.4615,-4.4615,-4.4615,-4.4615,-4.4615,-4.4615,-4.4615,-4.4615,-4.4615,-4.4615,-4.4615,-4.4615,-4.4615,-4.4615,-4.4615,0.0,0.0,0.0,0.0,0.0,0.0,-4.4344,-4.4147,0.0,0.0,0.0,0.0,0.0,0.0,-4.2997,-4.2269,0.0,-4.188,-4.1153,-4.0781,-4.0781,-4.0333,-4.0476,-4.1238,-4.1965,-4.2709,-4.3426,-4.4248,-4.4615,-4.4615,-4.4615,-4.4615,-4.4615,-4.4615,-4.4615,-4.4615,-4.4615,-4.4615,-4.4615,-5.1778,-5.127,-5.0694,0.0,-4.9661,0.0,-4.9229,-4.9077,-4.9001,-4.9001,-4.9001,-4.9001,-4.9001,-4.9001,-4.9001,-4.9001,0.0,0.0,0.0,-4.9001,-4.9001,-4.9001,-4.9001,-4.9001,-4.9001,-4.9001,-4.8646,-4.7889,-4.6549,-4.5805,-4.5703,-4.4993,-4.4649,-4.4615,-4.4615,-4.4615,-4.4615,-4.4615,-4.4615,-4.4615,-4.4615,-4.4615,-4.4615,-4.4615,-4.4615,-4.4615,-4.4615,-4.4615,-4.4615,-4.4615,-4.4615,-4.4615,-4.4615,-4.4615,-4.4615,-4.4615,-4.4615,-4.4615,-4.4615,-4.4615,-4.4615,-4.4615,-4.4615,-4.4615,-4.4615,-4.4615,-4.4615,-4.4615,-4.4615,-4.4598,-4.4598,-4.4598,-4.4615,-4.4643,-4.4626,-4.4598,-4.4598,0.0,0.0,0.0,0.0,0.0,0.0,-4.3792,-4.3308,0.0,0.0,0.0,0.0,0.0,-4.2151,-4.2219,-4.1508,-4.1119,-4.1119,-4.0426,-4.0096,-4.0096,-4.0096,-4.0493,-4.1305,-4.1982,-4.2726,-4.3538,-4.4265,-4.4615,-4.4615,-4.4615,-4.4615,-4.4615,-4.4615,-4.4615,-4.4615,-4.4615,-4.4615,-4.4598,0.0,0.0,-5.0991,-5.0575,-5.008,-4.9674,-4.9471,-4.926,-4.9124,-4.9001,-4.9001,-4.9001,-4.9001,-4.9001,-4.9001,-4.9001,-4.9001,-4.9001,-4.9001,-4.9001,-4.9001,-4.9001,-4.9001,-4.9001,-4.9001,-4.9001,-4.8646,-4.7889,-4.7534,-4.6819,-4.5703,-4.5517,-4.5128,-4.4615,-4.4615,-4.4615,-4.4615,-4.4615,-4.4615,-4.4615,-4.4615,-4.4615,-4.4615,-4.4615,-4.4615,-4.4615,-4.4615,-4.4615,-4.4615,-4.4615,-4.4615,-4.4615,-4.4615,-4.4615,-4.4615,-4.4615,-4.4615,-4.4615,-4.4615,-4.4615,-4.4615,-4.4615,-4.4615,-4.4615,-4.4615,-4.4615,-4.4615,-4.4615,-4.4615,-4.4626,-4.472,-4.4748,-4.4793,-4.4886,-4.4831,-4.4748,-4.4748,-4.4654,0.0,0.0,-4.4062,-4.369,-4.369,-4.2997,-4.2557,0.0,0.0,0.0,0.0,-4.0942,-4.0891,-4.1441,-4.073,-4.0367,-4.0367,-4.0197,-4.0096,-4.0096,-4.0096,-4.079,-4.2049,-4.2219,-4.3031,-4.4344,-4.453,-4.4615,-4.4615,-4.4615,-4.4615,-4.4615,-4.4615,-4.4615,-4.4615,-4.4615,-4.4615,-4.4513,-5.2408,-5.1939,-5.1449,-5.1131,-5.0577,-5.0137,-4.9854,-4.9547,-4.926,-4.9107,-4.9032,-4.9001,-4.9001,-4.9001,-4.9001,-4.9001,-4.9001,-4.9001,-4.9001,-4.9001,-4.9001,-4.9001,-4.9001,-4.9001,-4.9001,-4.9001,-4.8798,-4.8409,-4.8058,-4.7483,-4.6718,-4.6363,-4.5805,-4.5094,-4.5094,-4.4936,-4.4615,-4.4615,-4.4615,-4.4615,-4.4615,-4.4615,-4.4615,-4.4615,-4.4615,-4.4615,-4.4615,-4.4615,-4.4615,-4.4615,-4.4615,-4.4615,-4.4615,-4.4615,-4.4615,-4.4615,-4.4615,-4.4615,-4.4615,-4.4615,-4.4615,-4.4615,-4.4615,-4.4615,-4.4615,-4.4615,-4.4615,-4.4615,-4.4654,-4.4737,-4.4858,-4.4923,-4.5005,-4.5086,-4.4978,-4.4886,-4.4803,-4.4376,0.0,-4.4045,-4.3369,-4.2912,-4.2912,-4.2236,-4.1796,-4.1796,-4.1102,0.0,-4.0696,-4.0333,-4.0282,-4.0679,-4.0316,-4.0096,-4.0096,-4.0096,-4.0096,-4.0096,-4.0426,-4.1187,-4.2303,-4.2642,-4.3453,-4.4615,-4.4615,-4.4615,-4.4615,-4.4615,-4.4615,-4.4615,-4.4615,-4.4615,-4.4615,-4.4615,-4.4615,-4.4496,-5.285,-5.2431,-5.2012,-5.1725,-5.1166,-5.064,-5.0341,-4.9884,-4.9547,-4.932,-4.9155,-4.9063,-4.9032,-4.9032,-4.9032,-4.9001,-4.9001,-4.9001,-4.9001,-4.9001,-4.9001,-4.9001,-4.9001,-4.9001,-4.9001,-4.9001,-4.9001,-4.9001,-4.8392,-4.799,-4.7872,-4.7259,-4.6566,-4.5872,-4.5754,-4.5348,-4.4767,-4.4649,-4.4615,-4.4615,-4.4615,-4.4615,-4.4615,-4.4615,-4.4615,-4.4615,-4.4615,-4.4615,-4.4615,-4.4615,-4.4615,-4.4615,-4.4615,-4.4615,-4.4615,-4.4615,-4.4615,-4.4615,-4.4615,-4.4615,-4.4615,-4.4615,-4.4615,-4.4615,-4.4643,-4.4626,-4.4626,-4.4682,-4.4776,-4.4896,-4.5086,-4.5203,-4.5283,-4.531,-4.5177,-4.4998,-4.4732,0.0,-4.3386,-4.3267,-4.2591,-4.2144,-4.2144,-4.15,-4.106,-4.1086,-4.0519,-4.0146,-4.0121,-4.0121,-4.0138,-4.0096,-4.0096,-4.0096,-4.0096,-4.0096,-4.0096,-4.0113,-4.0849,-4.1593,-4.232,-4.3064,-4.3842,-4.4626,-4.4626,-4.4626,-4.4654,-4.4654,-4.4654,-4.4626,-4.4626,-4.4626,-4.4615,-4.4615,-4.453,-4.4327,-5.2977,-5.2721,-5.2412,-5.2137,-5.175,-5.1288,-5.0776,-5.0369,-4.9971,-4.9649,-4.95,-4.9367,-4.9199,-4.9168,-4.9107,-4.9001,-4.9001,-4.9001,-4.9001,-4.9001,-4.9001,-4.9001,-4.9001,-4.9001,-4.9001,-4.9001,-4.9001,-4.9001,-4.89,-4.8528,-4.7889,-4.777,-4.7344,-4.6599,-4.5974,-4.5652,-4.55,-4.484,-4.4615,-4.4615,-4.4615,-4.4615,-4.4615,-4.4615,-4.4615,-4.4615,-4.4615,-4.4615,-4.4615,-4.4615,-4.4615,-4.4615,-4.4615,-4.4615,-4.4615,-4.4615,-4.4615,-4.4615,-4.4615,-4.4615,-4.4615,-4.4615,-4.4615,-4.4626,-4.472,-4.4776,-4.4831,-4.5059,-4.5123,-4.5257,-4.5606,-4.5684,-4.5735,-4.5862,-4.5658,-4.5191,-4.4336,0.0,-4.3352,-4.2567,-4.1813,-4.1425,-4.1537,-4.0875,-4.05,-4.0607,-4.0487,-4.0387,-4.028,-4.028,-4.0213,-4.0096,-4.0096,-4.0096,-4.0096,-4.0096,-4.0096,-4.0113,-4.0849,-4.1593,-4.232,-4.3064,-4.3898,-4.4776,-4.4776,-4.4831,-4.4923,-4.4923,-4.4886,-4.4776,-4.4776,-4.4709,-4.4615,-4.4615,-4.4164,-4.3487,-5.3103,-5.2955,-5.2743,-5.2563,-5.2203,-5.1775,-5.1314,-5.0893,-5.0502,-5.0143,-4.9924,-4.9762,-4.9602,-4.9513,-4.9441,-4.9381,-4.9199,-4.9107,-4.9107,-4.9032,-4.9001,-4.9001,-4.9001,-4.9001,-4.9001,-4.9001,-4.9001,-4.9001,-4.9001,-4.8832,-4.8494,-4.8494,-4.8105,-4.7394,-4.7056,-4.6667,-4.6244,-4.55,-4.5179,-4.5145,-4.4767,-4.4615,-4.4615,-4.4615,-4.4654,-4.4709,-4.4709,-4.4748,-4.4803,-4.4737,-4.4709,-4.4709,-4.4626,-4.4615,-4.4615,-4.4615,-4.4615,-4.4615,-4.4615,-4.4615,-4.4615,-4.4615,-4.4654,-4.472,-4.4886,-4.5005,-4.5177,-4.5389,-4.558,-4.5811,-4.6087,-4.6235,-4.6192,-4.5745,-4.5457,0.0,0.0,-4.304,-4.2406,-4.198,-4.1206,-4.0815,-4.0998,-4.0747,-4.0621,-4.0758,-4.0782,-4.0717,-4.0573,-4.0534,-4.0429,-4.0213,-4.0138,-4.0096,-4.0096,-4.0096,-4.0324,-4.0807,-4.1553,-4.2379,-4.3303,-4.4026,-4.4636,-4.514,-4.5203,-4.523,-4.522,-4.522,-4.5086,-4.4913,-4.4831,-4.4737,-4.4564,-4.4113,-4.3724,-4.3223,-5.3185,-5.3103,-5.2999,-5.2868,-5.2545,-5.2155,-5.1786,-5.1365,-5.0991,-5.061,-5.0418,-5.0261,-5.0097,-4.9982,-4.9866,-4.9808,-4.9513,-4.935,-4.932,-4.9229,-4.9124,-4.9001,-4.9001,-4.9001,-4.9001,-4.9001,-4.9001,-4.9001,-4.9001,-4.9001,-4.9001,-4.9001,-4.8714,-4.8142,-4.7973,-4.7597,-4.7005,-4.6278,-4.5872,-4.5652,-4.5077,-4.4767,-4.4615,-4.4615,-4.4682,-4.4803,-4.4803,-4.4886,-4.4978,-4.4858,-4.4803,-4.4793,-4.4626,-4.4615,-4.4615,-4.4615,-4.4654,-4.4682,-4.4654,-4.4682,-4.4737,-4.4737,-4.4831,-4.4978,-4.5167,-4.5363,-4.5606,-4.5819,-4.6119,-4.6411,-4.6619,-4.6664,-4.6453,-4.5693,0.0,0.0,0.0,-4.2305,-4.1644,-4.1423,-4.0802,-4.0517,-4.0823,-4.0931,-4.1053,-4.1192,-4.1214,-4.1146,-4.1007,-4.0901,-4.0728,-4.0453,-4.0238,-4.0163,-4.0196,-4.0366,-4.079,-4.1495,-4.2467,-4.3374,-4.4199,-4.4992,-4.5398,-4.5546,-4.5658,-4.5632,-4.5546,-4.552,-4.531,-4.5032,-4.4913,-4.4618,-4.4231,-4.3639,-4.32,-4.2753,-5.3185,-5.3185,-5.3143,-5.2999,-5.2765,-5.2472,-5.2132,-5.1722,-5.1367,-5.1079,-5.0982,-5.0839,-5.0585,-5.053,-5.0418,-5.0091,-4.9936,-4.9796,-4.9679,-4.9649,-4.9441,-4.9032,-4.9001,-4.9001,-4.9001,-4.9001,-4.9001,-4.9001,-4.9001,-4.9001,-4.9001,-4.9001,-4.8968,-4.89,-4.8193,-4.7855,-4.7753,-4.7022,-4.6312,-4.5703,-4.5652,-4.5213,-4.4615,-4.4615,-4.4682,-4.4803,-4.4803,-4.4886,-4.4978,-4.4858,-4.4803,-4.4793,-4.4626,-4.4615,-4.4615,-4.4615,-4.4793,-4.4923,-4.4831,-4.4968,-4.5167,-4.5167,-4.5257,-4.5424,-4.5684,-4.5862,-4.607,-4.6519,-4.673,-4.6972,-4.7341,-4.6834,-4.6272,-4.6072,0.0,0.0,-4.2748,-4.2339,-4.1799,-4.0868,-4.0752,-4.0937,-4.1323,-4.1475,-4.1613,-4.1817,-4.1839,-4.1749,-4.1542,-4.1431,-4.1203,-4.0864,-4.0485,-4.0337,-4.0485,-4.1151,-4.1585,-4.1778,-4.3399,-4.4267,-4.4506,-4.5362,-4.5837,-4.5963,-4.5963,-4.5963,-4.5938,-4.5811,-4.5529,-4.515,-4.5032,-4.4361,-4.3477,-4.3409,-4.262,-4.1546,-5.3185,-5.3185,-5.3185,-5.3124,-5.2893,-5.2654,-5.2449,-5.2162,-5.1907,-5.1632,-5.1647,-5.1579,-5.1297,-5.1158,-5.0982,-5.0686,-5.0391,-5.0143,-5.0028,-4.9884,-4.9602,-4.9138,-4.9032,-4.9001,-4.9001,-4.9001,-4.9001,-4.9001,-4.9001,-4.9001,-4.9001,-4.9001,-4.9001,-4.8984,-4.8714,-4.8595,-4.8545,-4.7817,-4.7327,-4.6959,-4.6075,-4.5534,-4.5229,-4.4784,-4.472,-4.4923,-4.4923,-4.5059,-4.5211,-4.4995,-4.4923,-4.4886,-4.4682,-4.4615,-4.4626,-4.4803,-4.5113,-4.5389,-4.5503,-4.5494,-4.5468,-4.5555,-4.5735,-4.5938,-4.6137,-4.6435,-4.6765,-4.7017,-4.7266,-4.7358,-4.7011,-4.6767,-4.6241,-4.5046,0.0,-4.3629,-4.2295,-4.1873,-4.1557,-4.1186,-4.1163,-4.1351,-4.1788,-4.1984,-4.2172,-4.2378,-4.2398,-4.2297,-4.211,-4.1723,-4.1525,-4.1507,-4.1255,-4.1018,-4.0813,-4.1571,-4.2345,-4.3119,-4.4248,-4.5187,-4.5951,-4.6257,-4.6471,-4.6495,-4.6495,-4.6357,-4.6112,-4.5988,-4.5632,-4.5142,-4.4626,-4.408,-4.342,-4.2687,-4.2091,-4.1577,-5.3185,-5.3185,-5.3185,-5.3185,-5.2995,-5.2761,-5.2613,-5.2439,-5.2216,-5.198,-5.2126,-5.2126,-5.184,-5.1705,-5.1518,-5.1254,-5.0874,-5.0637,-5.0499,-5.02,-4.9854,-4.9381,-4.926,-4.9216,-4.9155,-4.9216,-4.9216,-4.9155,-4.9216,-4.9185,-4.9063,-4.9063,-4.9032,-4.9001,-4.9032,-4.9063,-4.9029,-4.8582,-4.8273,-4.795,-4.6695,-4.6004,-4.5687,-4.4942,-4.4793,-4.494,-4.494,-4.5086,-4.5238,-4.5005,-4.4968,-4.4951,-4.472,-4.4737,-4.4858,-4.515,-4.552,-4.5862,-4.6193,-4.6217,-4.6144,-4.6126,-4.6339,-4.6596,-4.6713,-4.7035,-4.7323,-4.7496,-4.7529,-4.7385,-4.686,-4.6426,-4.5713,-4.4412,-4.3838,-4.3218,-4.2174,-4.1831,-4.1657,-4.1565,-4.1657,-4.1878,-4.2251,-4.2494,-4.2691,-4.2863,-4.2845,-4.2769,-4.2575,-4.2172,-4.2002,-4.211,-4.2229,-4.2163,-4.1907,-4.2538,-4.3395,-4.4511,-4.5334,-4.6152,-4.6962,-4.6962,-4.6893,-4.6795,-4.6772,-4.6495,-4.6062,-4.5938,-4.5606,-4.5135,-4.4353,-4.3802,-4.3321,-4.2284,-4.1795,-4.1609,-5.3185,-5.3185,-5.3185,-5.3185,-5.2995,-5.2761,-5.2613,-5.2439,-5.2264,-5.2126,-5.234,-5.2387,-5.2132,-5.2084,-5.1987,-5.1715,-5.1479,-5.1246,-5.1105,-5.0665,-5.02,-4.9737,-4.9708,-4.9619,-4.9518,-4.9619,-4.9619,-4.9518,-4.9619,-4.953,-4.9199,-4.9199,-4.9138,-4.9001,-4.9138,-4.9199,-4.9229,-4.9428,-4.9061,-4.8309,-4.7523,-4.6686,-4.5824,-4.5092,-4.4803,-4.4803,-4.4803,-4.4886,-4.4978,-4.4858,-4.4886,-4.4978,-4.4858,-4.4978,-4.5283,-4.5684,-4.5988,-4.6308,-4.6771,-4.7107,-4.7236,-4.6976,-4.7107,-4.7341,-4.7472,-4.7615,-4.7762,-4.7951,-4.7469,-4.7017,-4.7075,-4.5773,-4.4619,-4.4418,-4.367,-4.2899,-4.2369,-4.2308,-4.2187,-4.1956,-4.2192,-4.2478,-4.2674,-4.2956,-4.3123,-4.3196,-4.3214,-4.3105,-4.2901,-4.2769,-4.2671,-4.2609,-4.3384,-4.384,-4.3924,-4.4118,-4.4742,-4.5829,-4.6686,-4.7173,-4.7302,-4.7302,-4.712,-4.6778,-4.6661,-4.6284,-4.5786,-4.5658,-4.5424,-4.5117,-4.4309,-4.3632,-4.3001,-4.2355,-4.1789,-4.1373,-5.3185,-5.3185,-5.3185,-5.3185,-5.306,-5.2934,-5.2893,-5.2739,-5.2645,-5.2599,-5.2735,-5.2757,-5.2472,-5.2449,-5.2304,-5.1882,-5.1665,-5.1513,-5.1394,-5.1333,-5.114,-5.0785,-5.008,-4.9619,-4.9518,-4.9619,-4.9679,-4.9649,-4.975,-4.9737,-4.956,-4.956,-4.9471,-4.9367,-4.9381,-4.9411,-4.9411,-4.9471,-4.9061,-4.8309,-4.7523,-4.6658,-4.5813,-4.5092,-4.4858,-4.4923,-4.4923,-4.5103,-4.5264,-4.514,-4.515,-4.5283,-4.5336,-4.5606,-4.5938,-4.6161,-4.6507,-4.6903,-4.7236,-4.7539,-4.7747,-4.7515,-4.756,-4.7648,-4.7708,-4.7888,-4.8068,-4.8128,-4.7586,-4.6892,-4.636,-4.5406,-4.4454,-4.3689,-4.3287,-4.2955,-4.257,-4.251,-4.249,-4.2391,-4.2613,-4.2844,-4.3032,-4.3215,-4.334,-4.341,-4.3376,-4.3323,-4.3251,-4.3068,-4.3248,-4.3849,-4.4064,-4.4717,-4.5923,-4.5776,-4.5927,-4.6445,-4.7175,-4.7533,-4.7575,-4.7385,-4.712,-4.6778,-4.6661,-4.6284,-4.5786,-4.5752,-4.5278,-4.4509,-4.3894,-4.3263,-4.2625,-4.2228,-4.196,-4.1744,-5.3185,-5.3185,-5.3185,-5.3185,-5.3082,-5.2999,-5.2999,-5.289,-5.2806,-5.2806,-5.2934,-5.2915,-5.2698,-5.2676,-5.254,-5.2209,-5.2066,-5.192,-5.1815,-5.184,-5.1697,-5.1331,-5.0649,-5.0194,-4.9924,-5.0068,-5.0068,-4.9971,-5.0097,-5.004,-4.9796,-4.9796,-4.9679,-4.95,-4.9269,-4.9132,-4.9115,-4.8883,-4.8517,-4.8055,-4.7283,-4.6599,-4.5964,-4.5241,-4.5005,-4.5086,-4.5086,-4.5247,-4.5459,-4.5389,-4.5503,-4.576,-4.6045,-4.6273,-4.6531,-4.676,-4.7057,-4.7407,-4.7621,-4.787,-4.805,-4.797,-4.7972,-4.8014,-4.8014,-4.8131,-4.8228,-4.8228,-4.7625,-4.6856,-4.6049,-4.5241,-4.4399,-4.3414,-4.3251,-4.3105,-4.2841,-4.2823,-4.2823,-4.2785,-4.2975,-4.316,-4.3269,-4.3376,-4.3464,-4.3497,-4.3463,-4.3446,-4.3446,-4.3633,-4.3981,-4.451,-4.5075,-4.5858,-4.6883,-4.6898,-4.7023,-4.7297,-4.765,-4.7785,-4.7744,-4.7432,-4.712,-4.6795,-4.659,-4.6284,-4.5852,-4.5548,-4.5039,-4.4418,-4.355,-4.3068,-4.2802,-4.2388,-4.2207,-4.2148,-5.3185,-5.3185,-5.3185,-5.3185,-5.3103,-5.302,-5.302,-5.2893,-5.2846,-5.2846,-5.2955,-5.2977,-5.2828,-5.2806,-5.2761,-5.2613,-5.2477,-5.2366,-5.2214,-5.2119,-5.1843,-5.1408,-5.1195,-5.0919,-5.0511,-5.0653,-5.0579,-5.0338,-5.04,-5.0199,-4.9775,-4.9775,-4.9648,-4.9367,-4.8815,-4.8564,-4.8512,-4.7982,-4.771,-4.7589,-4.6916,-4.6473,-4.6158,-4.5515,-4.5257,-4.5257,-4.5283,-4.545,-4.5684,-4.5709,-4.5988,-4.6363,-4.6794,-4.6954,-4.7044,-4.7428,-4.7618,-4.7783,-4.797,-4.811,-4.8226,-4.8287,-4.8306,-4.8306,-4.8306,-4.8306,-4.8306,-4.8306,-4.7663,-4.6874,-4.614,-4.5296,-4.4435,-4.3631,-4.3449,-4.3341,-4.3141,-4.316,-4.3196,-4.3141,-4.3305,-4.3412,-4.3412,-4.3463,-4.3515,-4.3515,-4.3515,-4.3533,-4.3606,-4.4305,-4.4782,-4.4911,-4.6267,-4.7035,-4.7126,-4.7567,-4.7933,-4.8187,-4.803,-4.7893,-4.7752,-4.7432,-4.7098,-4.6795,-4.6566,-4.6308,-4.5992,-4.5205,-4.483,-4.4644,-4.3351,-4.3062,-4.3275,-4.2683,-4.2532,-4.255,-5.3185,-5.3185,-5.3185,-5.3185,-5.3185,-5.3164,-5.3164,-5.3143,-5.3103,-5.3103,-5.3143,-5.3103,-5.2977,-5.2955,-5.2872,-5.2613,-5.2568,-5.2291,-5.1629,-5.1659,-5.1343,-5.0507,-5.0448,-5.0225,-4.9829,-4.9904,-4.9898,-4.9863,-4.9337,-4.9012,-4.8802,-4.8802,-4.8713,-4.8568,-4.8313,-4.8216,-4.8216,-4.807,-4.7671,-4.7142,-4.6986,-4.6456,-4.5754,-4.5702,-4.5658,-4.5684,-4.5912,-4.6087,-4.6259,-4.6537,-4.6747,-4.6949,-4.7258,-4.7475,-4.7609,-4.771,-4.7891,-4.8108,-4.8148,-4.8208,-4.8267,-4.8287,-4.8306,-4.8306,-4.8306,-4.8306,-4.8306,-4.8306,-4.7663,-4.7058,-4.6874,-4.5663,-4.4618,-4.4382,-4.3815,-4.334,-4.3196,-4.3287,-4.334,-4.3341,-4.3429,-4.348,-4.348,-4.3497,-4.3515,-4.3515,-4.3515,-4.3773,-4.4415,-4.4617,-4.5278,-4.6544,-4.6853,-4.7309,-4.7931,-4.786,-4.7893,-4.8032,-4.7747,-4.7578,-4.7557,-4.7227,-4.698,-4.6801,-4.6842,-4.6708,-4.6424,-4.5774,-4.5106,-4.4417,-4.3643,-4.3146,-4.2848,-4.2916,-4.286,-4.2649,-5.3185,-5.3185,-5.3185,-5.3185,-5.3185,-5.3185,-5.3185,-5.3185,-5.3185,-5.3185,-5.3185,-5.3185,-5.3103,-5.3103,-5.2895,-5.2364,-5.2309,-5.1937,-5.107,-5.1079,-5.0854,-5.0243,-5.0203,-5.0075,-4.9794,-4.943,-4.9281,-4.9419,-4.9064,-4.8776,-4.8598,-4.8598,-4.8521,-4.8365,-4.7928,-4.7727,-4.771,-4.7343,-4.6976,-4.6634,-4.6685,-4.6423,-4.5988,-4.6137,-4.6211,-4.6308,-4.6483,-4.6695,-4.6967,-4.7244,-4.7374,-4.7478,-4.7747,-4.7909,-4.8012,-4.8034,-4.8131,-4.8247,-4.8247,-4.8286,-4.8306,-4.8306,-4.8306,-4.8306,-4.8306,-4.8306,-4.8306,-4.8306,-4.7957,-4.7553,-4.7168,-4.6415,-4.5572,-4.4784,-4.4289,-4.3868,-4.3412,-4.3393,-4.3446,-4.3446,-4.348,-4.3515,-4.3515,-4.3515,-4.3515,-4.3515,-4.3864,-4.4268,-4.4673,-4.5425,-4.6232,-4.7076,-4.7346,-4.767,-4.811,-4.7749,-4.7666,-4.7847,-4.7681,-4.7593,-4.7593,-4.7294,-4.7138,-4.712,-4.7143,-4.6905,-4.6494,-4.5796,-4.4967,-4.4095,-4.3452,-4.3053,-4.2825,-4.2938,-4.2804,-4.249,-5.3185,-5.3185,-5.3185,-5.3185,-5.3185,-5.3185,-5.3185,-5.3185,-5.3185,-5.3185,-5.3185,-5.3148,-5.3023,-5.2876,-5.2527,-5.1848,-5.1775,-5.1403,-5.0497,-5.0442,-5.0266,-4.9892,-4.9871,-4.9828,-4.9702,-4.8981,-4.8749,-4.9043,-4.89,-4.8708,-4.8495,-4.8495,-4.8445,-4.831,-4.7615,-4.7315,-4.7262,-4.6645,-4.6405,-4.6405,-4.6501,-4.6548,-4.6572,-4.669,-4.6824,-4.6939,-4.7017,-4.7284,-4.76,-4.7811,-4.7872,-4.7913,-4.813,-4.8226,-4.8226,-4.8267,-4.8306,-4.8306,-4.8306,-4.8306,-4.8306,-4.8306,-4.8306,-4.8306,-4.8306,-4.8306,-4.8306,-4.8306,-4.8306,-4.8104,-4.7424,-4.7186,-4.6654,-4.5333,-4.4984,-4.4635,-4.3809,-4.3699,-4.3662,-4.3533,-4.3515,-4.3515,-4.3515,-4.3608,-4.3699,-4.3699,-4.4452,-4.4984,-4.5095,-4.6379,-4.7168,-4.7296,-4.7764,-4.8032,-4.8032,-4.7603,-4.7515,-4.7741,-4.7741,-4.772,-4.7678,-4.7446,-4.7428,-4.7536,-4.7309,-4.6958,-4.6493,-4.557,-4.4693,-4.3889,-4.3227,-4.2957,-4.2938,-4.2938,-4.2689,-4.2371,-5.3185,-5.3185,-5.3185,-5.3185,-5.3185,-5.3185,-5.3185,-5.3185,-5.3185,-5.3185,-5.3185,-5.2949,-5.2234,-5.1536,-5.1077,-5.0967,-5.0967,-5.0618,-4.9793,-4.9738,-4.9388,-4.8595,-4.8559,-4.8519,-4.8457,-4.8327,-4.8431,-4.8753,-4.8069,-4.7705,-4.7665,-4.7665,-4.7643,-4.7621,-4.7407,-4.7308,-4.729,-4.7183,-4.7147,-4.7147,-4.7169,-4.7169,-4.7191,-4.732,-4.7403,-4.7428,-4.7606,-4.779,-4.7951,-4.809,-4.8148,-4.8149,-4.8267,-4.8287,-4.8287,-4.8287,-4.8306,-4.8306,-4.8306,-4.8306,-4.8306,-4.8306,-4.8306,-4.8306,-4.8306,-4.8306,-4.8306,-4.8306,-4.8306,-4.8269,-4.8159,-4.7571,-4.7021,-4.6801,-4.6195,-4.5461,-4.4654,-4.4544,-4.4287,-4.3588,-4.3515,-4.3515,-4.3515,-4.4121,-4.4544,-4.4544,-4.5278,-4.6049,-4.6746,-4.6984,-4.7424,-4.8122,-4.8153,-4.8168,-4.8168,-4.7872,-4.7811,-4.7951,-4.7832,-4.7767,-4.7678,-4.7533,-4.7578,-4.7715,-4.7143,-4.6837,-4.6658,-4.5258,-4.4527,-4.4176,-4.3451,-4.3123,-4.3068,-4.3068,-4.2881,-4.2653,-5.3185,-5.3185,-5.3185,-5.3185,-5.3185,-5.3185,-5.3185,-5.3185,-5.3041,-5.2601,-5.2527,-5.2215,-5.1426,-5.1004,-5.0618,-5.016,-5.0123,-4.9756,-4.893,-4.8875,-4.8691,-4.8324,-4.8306,-4.8305,-4.8267,-4.8247,-4.8314,-4.848,-4.7931,-4.7642,-4.7615,-4.7615,-4.7615,-4.7615,-4.7554,-4.7533,-4.7533,-4.7533,-4.7533,-4.7533,-4.756,-4.7585,-4.7585,-4.7726,-4.7788,-4.7788,-4.7972,-4.8092,-4.817,-4.8247,-4.8247,-4.8267,-4.8287,-4.8306,-4.8306,-4.8306,-4.8306,-4.8306,-4.8306,-4.8306,-4.8306,-4.8306,-4.8306,-4.8306,-4.8306,-4.8306,-4.8306,-4.8306,-4.8306,-4.8306,-4.8306,-4.8012,-4.7608,-4.7168,-4.6801,-4.6305,-4.548,-4.5369,-4.5241,-4.4874,-4.4837,-4.4837,-4.4837,-4.5168,-4.5369,-4.5369,-4.6122,-4.6727,-4.7076,-4.7516,-4.792,-4.8306,-4.8228,-4.8187,-4.8187,-4.7933,-4.7872,-4.7992,-4.7854,-4.7832,-4.7868,-4.7827,-4.7613,-4.7337,-4.7048,-4.643,-4.5571,-4.4931,-4.4273,-4.3652,-4.3324,-4.3105,-4.2994,-4.3068,-4.2975,-4.2844]},{"header":{"parameterUnit":"m.s-1","parameterCategory":1,"la1":30.6,"la2":28.766,"lo1":-90.7593,"lo2":-88.6598,"dy":0.0162,"dx":0.0183,"nx":116,"ny":114,"refTime":"2023-08-12T12:00:00:Z","depth":0,"parameterNumber":3,"parameterNumberName":"V-component_of_WINDS"},"data":[0.0,0.0,0.0,0.0,0.0,0.0,0.0,0.0,0.0,0.0,0.0,0.0,0.0,0.0,0.0,0.0,0.0,0.0,0.0,0.0,0.0,0.0,0.0,0.0,0.0,0.0,0.0,0.0,0.0,0.0,0.0,0.0,0.0,0.0,0.0,0.0,0.0,0.0,0.0,0.0,0.0,0.0,0.0,0.0,0.0,0.0,0.0,0.0,0.0,0.0,0.0,0.0,0.0,0.0,0.0,0.0,0.0,0.0,0.0,0.0,0.0,0.0,0.0,0.0,0.0,0.0,0.0,0.0,0.0,0.0,0.0,0.0,0.0,0.0,0.0,0.0,0.0,0.0,0.0,0.0,0.0,0.0,0.0,0.0,0.0,0.0,0.0,0.0,0.0,0.0,0.0,0.0,0.0,0.0,0.0,0.0,0.0,0.0,0.0,0.0,0.0,0.0,0.0,0.0,0.0,0.0,0.0,0.0,0.0,0.0,0.0,0.0,0.0,0.0,0.0,0.0,0.0,0.0,0.0,0.0,0.0,0.0,0.0,0.0,0.0,0.0,0.0,0.0,0.0,0.0,0.0,0.0,0.0,0.0,0.0,0.0,0.0,0.0,0.0,0.0,0.0,0.0,0.0,0.0,0.0,0.0,0.0,0.0,0.0,0.0,0.0,0.0,0.0,0.0,0.0,0.0,0.0,0.0,0.0,0.0,0.0,0.0,0.0,0.0,0.0,0.0,0.0,0.0,0.0,0.0,0.0,0.0,0.0,0.0,0.0,0.0,0.0,0.0,0.0,0.0,0.0,0.0,0.0,0.0,0.0,0.0,0.0,0.0,0.0,0.0,0.0,0.0,0.0,0.0,0.0,0.0,0.0,0.0,0.0,0.0,0.0,0.0,0.0,0.0,0.0,0.0,0.0,0.0,0.0,0.0,0.0,0.0,0.0,0.0,0.0,0.0,0.0,0.0,0.0,0.0,0.0,0.0,0.0,0.0,0.0,0.0,0.0,0.0,0.0,0.0,0.0,0.0,0.0,0.0,0.0,0.0,0.0,0.0,0.0,0.0,0.0,0.0,0.0,0.0,0.0,0.0,0.0,0.0,0.0,0.0,0.0,0.0,0.0,0.0,0.0,0.0,0.0,0.0,0.0,0.0,0.0,0.0,0.0,0.0,0.0,0.0,0.0,0.0,0.0,0.0,0.0,0.0,0.0,0.0,0.0,0.0,0.0,0.0,0.0,0.0,0.0,0.0,0.0,0.0,0.0,0.0,0.0,0.0,0.0,0.0,0.0,0.0,0.0,0.0,0.0,0.0,0.0,0.0,0.0,0.0,0.0,0.0,0.0,0.0,0.0,0.0,0.0,0.0,0.0,0.0,0.0,0.0,0.0,0.0,0.0,0.0,0.0,0.0,0.0,0.0,0.0,0.0,0.0,0.0,0.0,0.0,0.0,0.0,0.0,0.0,0.0,0.0,0.0,0.0,0.0,0.0,0.0,0.0,0.0,0.0,0.0,0.0,0.0,0.0,0.0,0.0,0.0,0.0,0.0,0.0,0.0,0.0,0.0,0.0,0.0,0.0,0.0,0.0,0.0,0.0,0.0,0.0,0.0,0.0,0.0,0.0,0.0,0.0,0.0,0.0,0.0,0.0,0.0,0.0,0.0,0.0,0.0,0.0,0.0,0.0,0.0,0.0,0.0,0.0,0.0,0.0,0.0,0.0,0.0,0.0,0.0,0.0,0.0,0.0,0.0,0.0,0.0,0.0,0.0,0.0,0.0,0.0,0.0,0.0,0.0,0.0,0.0,0.0,0.0,0.0,0.0,0.0,0.0,0.0,0.0,0.0,0.0,0.0,0.0,0.0,0.0,0.0,0.0,0.0,0.0,0.0,0.0,0.0,0.0,0.0,0.0,0.0,0.0,0.0,0.0,0.0,0.0,0.0,0.0,0.0,0.0,0.0,0.0,0.0,0.0,0.0,0.0,0.0,0.0,0.0,0.0,0.0,0.0,0.0,0.0,0.0,0.0,0.0,0.0,0.0,0.0,0.0,0.0,0.0,0.0,0.0,0.0,0.0,0.0,0.0,0.0,0.0,0.0,0.0,0.0,0.0,0.0,0.0,0.0,0.0,0.0,0.0,0.0,0.0,0.0,0.0,0.0,0.0,0.0,0.0,0.0,0.0,0.0,0.0,0.0,0.0,0.0,0.0,0.0,0.0,0.0,0.0,0.0,0.0,0.0,0.0,0.0,0.0,0.0,0.0,0.0,0.0,0.0,0.0,0.0,0.0,0.0,0.0,0.0,0.0,0.0,0.0,0.0,0.0,0.0,0.0,0.0,0.0,0.0,0.0,0.0,0.0,0.0,0.0,0.0,0.0,0.0,0.0,0.0,0.0,0.0,0.0,0.0,0.0,0.0,0.0,0.0,0.0,0.0,0.0,0.0,0.0,0.0,0.0,0.0,0.0,0.0,0.0,0.0,0.0,0.0,0.0,0.0,0.0,0.0,0.0,0.0,0.0,0.0,0.0,0.0,0.0,0.0,0.0,0.0,0.0,0.0,0.0,0.0,0.0,0.0,0.0,0.0,0.0,0.0,0.0,0.0,0.0,0.0,0.0,0.0,0.0,0.0,0.0,0.0,0.0,0.0,0.0,0.0,0.0,0.0,0.0,0.0,0.0,0.0,0.0,0.0,0.0,0.0,0.0,0.0,0.0,0.0,0.0,0.0,0.0,0.0,0.0,0.0,0.0,0.0,0.0,0.0,0.0,0.0,0.0,0.0,0.0,0.0,0.0,0.0,0.0,0.0,0.0,0.0,0.0,0.0,0.0,0.0,0.0,0.0,0.0,0.0,0.0,0.0,0.0,0.0,0.0,0.0,0.0,0.0,0.0,0.0,0.0,0.0,0.0,0.0,0.0,0.0,0.0,0.0,0.0,0.0,0.0,0.0,0.0,0.0,0.0,0.0,0.0,0.0,0.0,0.0,0.0,0.0,0.0,0.0,0.0,0.0,0.0,0.0,0.0,0.0,0.0,0.0,0.0,0.0,0.0,0.0,0.0,0.0,0.0,0.0,0.0,0.0,0.0,0.0,0.0,0.0,0.0,0.0,0.0,0.0,0.0,0.0,0.0,0.0,0.0,0.0,0.0,0.0,0.0,0.0,0.0,0.0,0.0,0.0,0.0,0.0,0.0,0.0,0.0,0.0,0.0,0.0,0.0,0.0,0.0,0.0,0.0,0.0,0.0,0.0,0.0,0.0,0.0,0.0,0.0,0.0,0.0,0.0,0.0,0.0,0.0,0.0,0.0,0.0,0.0,0.0,0.0,0.0,0.0,0.0,0.0,0.0,0.0,0.0,0.0,0.0,0.0,0.0,0.0,0.0,0.0,0.0,0.0,0.0,0.0,0.0,0.0,0.0,0.0,0.0,0.0,0.0,0.0,0.0,0.0,0.0,0.0,0.0,0.0,0.0,0.0,0.0,0.0,0.0,0.0,0.0,0.0,0.0,0.0,0.0,0.0,0.0,0.0,0.0,0.0,0.0,0.0,0.0,0.0,0.0,0.0,0.0,0.0,0.0,0.0,0.0,0.0,0.0,0.0,0.0,0.0,0.0,0.0,0.0,0.0,0.0,0.0,0.0,0.0,0.0,0.0,0.0,0.0,0.0,0.0,0.0,0.0,0.0,0.0,0.0,0.0,0.0,0.0,0.0,0.0,0.0,0.0,0.0,0.0,0.0,0.0,0.0,0.0,0.0,0.0,0.0,0.0,0.0,0.0,0.0,0.0,0.0,0.0,0.0,0.0,0.0,0.0,0.0,0.0,0.0,0.0,0.0,0.0,0.0,0.0,0.0,0.0,0.0,0.0,0.0,0.0,0.0,0.0,0.0,0.0,0.0,0.0,0.0,0.0,0.0,0.0,0.0,0.0,0.0,0.0,0.0,0.0,0.0,0.0,0.0,0.0,0.0,0.0,0.0,0.0,0.0,0.0,0.0,0.0,0.0,0.0,0.0,0.0,0.0,0.0,0.0,0.0,0.0,0.0,0.0,0.0,0.0,0.0,0.0,0.0,0.0,0.0,0.0,0.0,0.0,0.0,0.0,0.0,0.0,0.0,0.0,0.0,0.0,0.0,0.0,0.0,0.0,0.0,0.0,0.0,0.0,0.0,0.0,0.0,0.0,0.0,0.0,0.0,0.0,0.0,0.0,0.0,0.0,0.0,0.0,0.0,0.0,0.0,0.0,0.0,0.0,0.0,0.0,0.0,0.0,0.0,0.0,0.0,0.0,0.0,0.0,0.0,0.0,0.0,0.0,0.0,0.0,0.0,0.0,0.0,0.0,0.0,0.0,0.0,0.0,0.0,0.0,0.0,0.0,0.0,0.0,0.0,0.0,0.0,0.0,0.0,0.0,0.0,0.0,0.0,0.0,0.0,0.0,0.0,0.0,0.0,0.0,0.0,0.0,0.0,0.0,0.0,0.0,0.0,0.0,0.0,0.0,0.0,0.0,0.0,0.0,0.0,0.0,0.0,0.0,0.0,0.0,0.0,0.0,0.0,0.0,0.0,0.0,0.0,0.0,0.0,0.0,0.0,0.0,0.0,0.0,0.0,0.0,0.0,0.0,0.0,0.0,0.0,0.0,0.0,0.0,0.0,0.0,0.0,0.0,0.0,0.0,0.0,0.0,0.0,0.0,0.0,0.0,0.0,0.0,0.0,0.0,0.0,0.0,0.0,0.0,0.0,0.0,0.0,0.0,0.0,0.0,0.0,0.0,0.0,0.0,0.0,0.0,0.0,0.0,0.0,0.0,0.0,0.0,0.0,0.0,0.0,0.0,0.0,0.0,0.0,0.0,0.0,0.0,0.0,0.0,0.0,0.0,0.0,0.0,0.0,0.0,0.0,0.0,0.0,0.0,0.0,0.0,0.0,0.0,0.0,0.0,0.0,0.0,0.0,0.0,0.0,0.0,0.0,0.0,0.0,0.0,0.0,0.0,0.0,0.0,0.0,0.0,0.0,0.0,0.0,0.0,0.0,0.0,0.0,0.0,0.0,0.0,0.0,0.0,0.0,0.0,0.0,0.0,0.0,0.0,0.0,0.0,0.0,0.0,0.0,0.0,0.0,0.0,0.0,0.0,0.0,0.0,0.0,0.0,0.0,0.0,0.0,0.0,0.0,0.0,0.0,0.0,0.0,0.0,0.0,0.0,0.0,0.0,0.0,0.0,0.0,0.0,0.0,0.0,0.0,0.0,0.0,0.0,0.0,0.0,0.0,0.0,0.0,0.0,0.0,0.0,0.0,0.0,0.0,0.0,0.0,0.0,0.0,0.0,0.0,0.0,0.0,0.0,0.0,0.0,0.0,0.0,0.0,0.0,0.0,0.0,0.0,0.0,0.0,0.0,0.0,0.0,0.0,0.0,0.0,0.0,0.0,0.0,0.0,0.0,0.0,0.0,0.0,0.0,0.0,0.0,0.0,0.0,0.0,0.0,0.0,0.0,0.0,0.0,0.0,0.0,0.0,0.0,0.0,0.0,0.0,0.0,0.0,0.0,0.0,0.0,0.0,0.0,0.0,0.0,0.0,0.0,0.0,0.0,0.0,0.0,0.0,0.0,0.0,0.0,0.0,0.0,0.0,0.0,0.0,0.0,0.0,0.0,0.0,0.0,0.0,0.0,0.0,0.0,0.0,0.0,0.0,0.0,0.0,0.0,0.0,0.0,0.0,0.0,0.0,0.0,0.0,0.0,0.0,0.0,0.0,0.0,0.0,0.0,0.0,0.0,0.0,0.0,0.0,0.0,0.0,0.0,0.0,0.0,0.0,0.0,0.0,0.0,0.0,0.0,0.0,0.0,0.0,0.0,0.0,0.0,0.0,0.0,0.0,0.0,0.0,0.0,0.0,0.0,0.0,0.0,0.0,0.0,0.0,0.0,0.0,0.0,0.0,0.0,0.0,0.0,0.0,0.0,0.0,0.0,0.0,0.0,0.0,0.0,0.0,0.0,0.0,0.0,0.0,0.0,0.0,0.0,0.0,0.0,0.0,0.0,0.0,0.0,0.0,0.0,0.0,0.0,0.0,0.0,0.0,0.0,0.0,0.0,0.0,0.0,0.0,-2.6496,0.0,0.0,0.0,0.0,0.0,0.0,0.0,0.0,0.0,0.0,0.0,0.0,0.0,0.0,0.0,0.0,0.0,0.0,0.0,0.0,0.0,0.0,0.0,0.0,0.0,0.0,0.0,0.0,0.0,0.0,0.0,0.0,0.0,0.0,0.0,0.0,0.0,0.0,0.0,-2.7801,-2.8171,-2.8354,-2.8021,-2.7852,-2.7775,0.0,0.0,0.0,0.0,0.0,0.0,0.0,0.0,0.0,0.0,0.0,0.0,0.0,0.0,0.0,0.0,0.0,0.0,0.0,0.0,0.0,0.0,0.0,0.0,0.0,0.0,0.0,0.0,0.0,0.0,0.0,0.0,0.0,0.0,0.0,0.0,0.0,0.0,0.0,0.0,0.0,0.0,0.0,0.0,0.0,0.0,0.0,0.0,0.0,0.0,0.0,0.0,0.0,0.0,0.0,0.0,0.0,0.0,0.0,0.0,0.0,0.0,0.0,0.0,0.0,0.0,0.0,0.0,0.0,0.0,0.0,-2.6835,0.0,0.0,0.0,0.0,0.0,0.0,0.0,0.0,0.0,0.0,0.0,0.0,0.0,0.0,0.0,0.0,0.0,0.0,0.0,0.0,0.0,0.0,0.0,0.0,0.0,0.0,0.0,0.0,0.0,0.0,0.0,0.0,0.0,0.0,0.0,0.0,0.0,-2.8415,-2.8792,-2.9157,-2.947,-2.9702,-2.9429,-2.8709,-2.8709,0.0,0.0,0.0,0.0,0.0,0.0,0.0,0.0,0.0,0.0,0.0,0.0,0.0,0.0,0.0,0.0,0.0,0.0,0.0,0.0,0.0,0.0,0.0,0.0,0.0,0.0,0.0,0.0,0.0,0.0,0.0,0.0,0.0,0.0,0.0,0.0,0.0,0.0,0.0,0.0,0.0,0.0,0.0,0.0,0.0,0.0,0.0,0.0,0.0,0.0,0.0,0.0,0.0,0.0,0.0,0.0,0.0,0.0,0.0,0.0,0.0,0.0,0.0,-2.9015,-2.8975,-2.9071,-2.8895,-2.8775,-2.8682,-2.7933,-2.7738,-2.7926,-2.7573,0.0,0.0,0.0,0.0,0.0,0.0,0.0,0.0,0.0,0.0,0.0,0.0,0.0,0.0,0.0,0.0,0.0,0.0,0.0,0.0,0.0,-2.1769,-2.2138,-2.2553,-2.3298,-2.3875,0.0,0.0,0.0,0.0,0.0,0.0,0.0,-2.8486,-2.891,-2.9563,-2.9638,-2.9714,-2.9753,-2.9792,-2.9753,-2.9636,-2.9636,-2.9636,-2.9624,0.0,0.0,0.0,0.0,0.0,0.0,0.0,0.0,0.0,0.0,0.0,0.0,0.0,0.0,0.0,0.0,0.0,0.0,0.0,0.0,0.0,0.0,0.0,0.0,0.0,0.0,0.0,0.0,0.0,0.0,0.0,0.0,0.0,0.0,0.0,0.0,0.0,0.0,0.0,0.0,0.0,-2.7957,-2.8449,0.0,0.0,0.0,0.0,0.0,0.0,0.0,0.0,0.0,0.0,0.0,0.0,0.0,-3.1173,-3.1132,-3.0941,-3.0819,-3.0778,-3.0573,-3.0396,-3.0177,-3.0136,-2.9952,-2.9654,-2.9696,0.0,-2.8179,-2.8096,0.0,0.0,0.0,0.0,0.0,0.0,0.0,0.0,0.0,0.0,0.0,0.0,0.0,0.0,0.0,0.0,0.0,0.0,0.0,0.0,0.0,-2.2365,-2.2852,-2.3482,-2.4129,-2.4671,-2.5052,0.0,0.0,0.0,0.0,0.0,-2.8812,-2.9138,-2.9464,-2.9792,-2.9792,-2.9792,-2.9792,-2.9792,-2.9792,-2.9792,-2.9792,-2.9792,-2.9792,-2.965,0.0,0.0,0.0,0.0,0.0,0.0,0.0,0.0,0.0,0.0,0.0,0.0,0.0,0.0,0.0,0.0,0.0,0.0,0.0,0.0,0.0,0.0,0.0,0.0,0.0,0.0,0.0,0.0,0.0,0.0,0.0,0.0,0.0,0.0,0.0,0.0,0.0,0.0,0.0,-2.8481,-2.8929,-2.9262,-2.9788,-3.0113,0.0,0.0,0.0,0.0,0.0,0.0,0.0,0.0,0.0,-3.1386,-3.1386,-3.1386,-3.1386,-3.1207,-3.1083,-3.1083,-3.0906,-3.0741,-3.0604,-3.0604,-3.0533,-3.0379,-3.0462,-3.0182,-2.9622,-2.9388,-2.9511,-2.9931,0.0,0.0,0.0,0.0,-2.7432,-2.6581,0.0,0.0,0.0,0.0,0.0,0.0,0.0,0.0,0.0,0.0,0.0,0.0,-2.2553,-2.3001,-2.3556,-2.4322,-2.485,-2.536,-2.5906,-2.6641,0.0,0.0,0.0,-2.8963,-2.9151,-2.9566,-2.9792,-2.9792,-2.9792,-2.9792,-2.9792,-2.9792,-2.9867,-3.0005,-3.0005,-2.993,-2.9792,-2.9792,-2.9792,-2.9792,0.0,0.0,0.0,0.0,0.0,0.0,0.0,0.0,0.0,0.0,0.0,0.0,0.0,0.0,0.0,0.0,0.0,0.0,0.0,0.0,0.0,0.0,0.0,0.0,0.0,0.0,0.0,0.0,0.0,0.0,0.0,0.0,0.0,0.0,0.0,0.0,0.0,-2.9471,-2.9822,-3.0181,-3.057,-3.0809,0.0,0.0,0.0,0.0,0.0,0.0,-3.1813,-3.1813,-3.1813,-3.1813,-3.1813,-3.1813,-3.1813,-3.1714,-3.1631,-3.1589,-3.1452,-3.1368,-3.1284,-3.1284,-3.1243,-3.1201,-3.1201,-3.1201,-3.1146,-3.0446,-3.0379,-3.0682,-3.0349,-3.0044,-2.9623,-2.8518,-2.7509,-2.6595,0.0,0.0,0.0,0.0,0.0,0.0,0.0,0.0,0.0,0.0,0.0,-2.2365,-2.315,-2.3593,-2.4141,-2.4909,-2.5347,-2.5966,-2.6861,-2.7149,-2.7745,-2.8762,-2.8863,-2.9189,-2.9741,-2.9779,-2.9792,-2.9792,-2.9792,-2.9792,-2.9792,-2.9792,-3.0068,-3.057,-3.057,-3.0281,-2.9792,-2.9792,-2.9792,-2.9792,-2.9792,0.0,0.0,0.0,0.0,0.0,0.0,0.0,0.0,0.0,0.0,0.0,0.0,0.0,0.0,0.0,0.0,0.0,0.0,0.0,0.0,0.0,0.0,0.0,0.0,0.0,0.0,0.0,0.0,0.0,0.0,0.0,0.0,0.0,0.0,0.0,0.0,0.0,0.0,-3.1248,-3.1336,0.0,0.0,0.0,0.0,-3.2177,-3.2679,-3.2993,-3.2993,-3.2993,-3.2993,-3.2993,-3.2993,-3.2993,-3.2993,-3.2993,-3.2993,-3.2993,-3.2993,-3.2852,-3.2593,-3.2593,-3.2506,-3.2314,-3.2314,-3.2314,-3.2228,-3.0906,-3.0396,-3.0354,-2.9905,-2.944,-2.8958,-2.7994,-2.7018,-2.6148,0.0,0.0,0.0,0.0,0.0,0.0,0.0,0.0,0.0,-2.1987,-2.2553,-2.315,-2.3824,-2.4311,-2.4802,-2.5347,-2.5758,-2.6307,-2.7124,-2.7571,-2.8147,-2.8863,-2.9289,-2.9578,-2.9792,-2.9792,-2.9792,-2.9792,-2.9792,-2.998,-3.0319,-3.0319,-3.0608,-3.111,-3.111,-3.1009,-3.0821,-3.0821,-3.0821,-3.0821,-3.0821,-3.0821,0.0,0.0,0.0,0.0,0.0,0.0,0.0,0.0,0.0,0.0,0.0,0.0,0.0,0.0,0.0,0.0,0.0,0.0,0.0,0.0,0.0,0.0,0.0,0.0,0.0,0.0,0.0,0.0,0.0,0.0,0.0,0.0,0.0,0.0,0.0,0.0,0.0,-3.1361,-3.17,0.0,-3.1913,-3.2441,-3.2767,-3.2767,-3.2998,-3.3124,-3.3124,-3.3124,-3.3124,-3.3124,-3.3124,-3.3124,-3.3124,-3.3124,-3.3124,-3.3124,-3.3124,-3.3038,-3.2939,-3.2939,-3.2909,-3.2822,-3.268,-3.2593,-3.2513,-3.16,-3.1226,-3.1182,-3.0715,-3.022,-2.9642,-2.85,-2.7527,-2.6588,0.0,0.0,0.0,0.0,0.0,0.0,0.0,0.0,0.0,-2.2327,-2.2964,-2.3641,-2.4236,-2.4778,-2.5264,-2.5688,-2.6027,-2.6582,-2.7507,-2.7896,-2.8436,-2.9189,-2.9591,-2.9792,-2.9792,-2.9792,-2.9792,-2.9792,-2.998,-3.0256,-3.062,-3.0796,-3.116,-3.1675,-3.1675,-3.1775,-3.1951,-3.1951,-3.1738,-3.1386,-3.1386,-3.1386,-3.1386,0.0,0.0,0.0,0.0,0.0,0.0,0.0,0.0,0.0,0.0,0.0,0.0,0.0,0.0,0.0,0.0,0.0,0.0,0.0,0.0,0.0,0.0,0.0,0.0,0.0,0.0,0.0,0.0,0.0,0.0,0.0,0.0,0.0,0.0,0.0,-3.1738,-3.1938,-3.229,-3.2503,-3.2503,-3.2855,-3.3124,-3.3124,-3.3124,-3.3156,-3.3345,-3.3357,-3.3432,-3.3621,-3.3633,-3.3633,-3.3633,-3.3633,-3.3633,-3.3633,-3.3633,-3.3633,-3.3633,-3.3633,-3.3633,-3.3633,-3.327,-3.3093,-3.2961,-3.2145,-3.1632,-3.1274,-3.0896,-3.0408,-2.9806,-2.8706,-2.7704,-2.6791,0.0,0.0,0.0,0.0,0.0,0.0,0.0,-2.1244,-2.1731,-2.2327,-2.3113,-2.3861,-2.4454,-2.5004,-2.55,-2.5875,-2.6097,-2.6731,-2.8034,-2.8109,-2.8612,-2.9741,-2.9792,-2.9792,-2.9792,-2.9792,-2.9792,-2.9792,-3.0344,-3.062,-3.0658,-3.1173,-3.1712,-3.224,-3.224,-3.2554,-3.3124,-3.3124,-3.2441,-3.1436,-3.1436,-3.1436,-3.1436,0.0,0.0,0.0,0.0,0.0,0.0,0.0,0.0,0.0,0.0,0.0,0.0,0.0,0.0,0.0,0.0,0.0,0.0,0.0,0.0,0.0,0.0,0.0,0.0,0.0,0.0,0.0,0.0,0.0,0.0,0.0,0.0,0.0,-3.224,-3.224,-3.2441,-3.3048,-3.3124,-3.3124,-3.3106,-3.3106,-3.3106,-3.3174,-3.3174,-3.337,-3.3897,-3.3922,-3.4173,-3.4655,-3.468,-3.468,-3.468,-3.468,-3.468,-3.468,-3.468,-3.468,-3.468,-3.468,-3.468,-3.468,-3.4226,-3.386,-3.3538,-3.2536,-3.1538,-3.0624,-3.0297,-2.9909,-2.9347,-2.8362,-2.7526,-2.6764,0.0,0.0,0.0,0.0,0.0,0.0,0.0,-2.1474,-2.1997,-2.274,-2.3519,-2.4261,-2.4814,-2.5394,-2.5828,-2.6097,-2.6305,-2.6894,-2.8034,-2.8109,-2.8612,-2.9741,-2.9792,-2.9792,-2.9792,-2.9792,-2.9792,-2.9792,-3.0344,-3.0809,-3.1185,-3.1738,-3.229,-3.2842,-3.2842,-3.293,-3.3124,-3.3124,-3.2905,-3.2616,-3.2616,-3.2616,-3.2616,0.0,0.0,0.0,0.0,0.0,0.0,0.0,0.0,0.0,0.0,0.0,0.0,0.0,0.0,0.0,0.0,0.0,0.0,0.0,0.0,0.0,0.0,0.0,0.0,0.0,0.0,0.0,0.0,0.0,0.0,0.0,0.0,-3.2842,-3.2842,-3.2842,-3.2893,-3.3056,-3.3124,-3.3232,-3.3633,-3.3671,-3.3847,-3.4236,-3.4274,-3.4336,-3.4487,-3.45,-3.4562,-3.4713,-3.468,-3.468,-3.468,-3.468,-3.468,-3.468,-3.468,-3.468,-3.468,-3.468,-3.468,-3.468,-3.4421,-3.4148,-3.3814,-3.3004,-3.2312,-3.1562,-3.039,-2.9322,-2.8373,-2.7857,-2.7098,-2.6235,0.0,0.0,0.0,0.0,0.0,0.0,0.0,-2.1436,-2.1911,-2.2665,-2.3519,-2.4261,-2.4754,-2.5442,-2.5945,-2.6062,-2.6327,-2.6964,-2.8034,-2.8549,-2.9114,-2.9767,-2.9792,-2.9792,-2.9792,-2.9792,-2.9792,-2.9792,-3.0557,-3.1097,-3.1411,-3.2202,-3.2754,-3.3124,-3.3124,-3.3124,-3.3124,-3.3124,-3.3124,-3.3124,-3.3124,-3.3124,-3.3124,-3.3124,-3.2867,-3.2579,-3.2579,-3.2215,-3.1738,-3.1738,0.0,0.0,0.0,0.0,0.0,0.0,0.0,0.0,0.0,0.0,0.0,0.0,0.0,0.0,0.0,0.0,0.0,0.0,0.0,0.0,0.0,0.0,0.0,0.0,-3.3269,-3.342,-3.342,-3.342,-3.342,-3.342,-3.3621,-3.3884,-3.4211,-3.4248,-3.4374,-3.47,-3.468,-3.4781,-3.5006,-3.5019,-3.5165,-3.5403,-3.5416,-3.5416,-3.5416,-3.5416,-3.5416,-3.5416,-3.5416,-3.5416,-3.5416,-3.5416,-3.5416,-3.5416,-3.5151,-3.4873,-3.444,-3.3672,-3.2814,0.0,0.0,0.0,0.0,0.0,-2.6968,-2.6192,0.0,0.0,0.0,0.0,0.0,0.0,0.0,-2.1244,-2.1693,-2.2289,-2.3224,-2.4043,-2.4442,-2.53,-2.5875,-2.5945,-2.628,-2.6964,-2.8034,-2.9164,-2.9792,-2.9792,-2.9792,-2.9792,-2.9792,-2.9792,-2.9792,-2.9792,-3.0871,-3.1386,-3.1411,-3.2596,-3.3124,-3.3124,-3.3124,-3.3124,-3.3124,-3.3124,-3.3124,-3.3124,-3.3124,-3.3124,-3.3124,-3.3124,-3.3124,-3.3124,-3.3124,-3.2754,-3.2303,-3.2303,0.0,0.0,0.0,0.0,0.0,0.0,0.0,0.0,0.0,0.0,0.0,0.0,0.0,0.0,0.0,0.0,0.0,0.0,0.0,0.0,0.0,0.0,0.0,0.0,-3.3671,-3.3985,-3.3985,-3.4048,-3.406,-3.3997,-3.4424,-3.4705,-3.4768,-3.4768,-3.4839,-3.4901,-3.4901,-3.5115,-3.5571,0.0,0.0,0.0,0.0,-3.6531,-3.6593,-3.6593,-3.6593,-3.6593,-3.6593,-3.6593,-3.6593,-3.6593,-3.6593,-3.6546,-3.621,-3.5803,-3.526,-3.4408,-3.3169,-3.1676,-3.0689,-2.9845,-2.9055,-2.7804,-2.697,-2.6455,0.0,0.0,0.0,0.0,0.0,0.0,0.0,-2.1244,-2.1655,-2.2101,-2.3038,-2.3838,-2.436,-2.517,-2.5793,-2.6097,-2.6361,-2.6964,-2.8034,-2.9164,-2.9792,-2.9792,-2.9792,-2.9792,-2.9792,-2.9792,-2.9792,-2.9792,-3.0871,-3.1386,-3.1411,-3.2596,-3.3124,-3.3124,-3.3124,-3.3124,-3.3124,-3.3124,-3.3124,-3.3124,-3.3124,-3.3124,-3.3124,-3.3124,-3.3124,-3.3124,-3.3124,-3.3006,-3.2918,-3.2918,-3.2842,-3.2797,-3.2797,-3.2797,0.0,0.0,0.0,0.0,0.0,0.0,0.0,0.0,0.0,0.0,0.0,0.0,0.0,0.0,0.0,0.0,0.0,0.0,0.0,-3.4336,-3.45,-3.4562,-3.4562,-3.4906,-3.5019,-3.4613,-3.4663,-3.4856,-3.5295,-3.5345,-3.5567,-3.6006,-3.6091,-3.6141,-3.6194,-3.6207,-3.6458,-3.701,-3.7023,-3.7236,-3.7688,-3.7688,-3.7688,-3.7688,0.0,0.0,-3.7688,-3.7688,-3.7688,-3.7663,-3.6969,-3.6442,-3.6088,-3.4857,-3.3277,-3.144,-2.9421,-2.8447,-2.8016,-2.7307,-2.7014,-2.6894,0.0,0.0,0.0,0.0,0.0,0.0,0.0,-2.1089,-2.1474,-2.1769,-2.2665,-2.3471,-2.3936,-2.4767,-2.5453,-2.5863,-2.6507,-2.714,-2.7657,-2.8737,-2.9365,-2.9365,-2.9641,-2.9792,-2.9792,-2.9792,-2.9792,-2.9792,-3.0608,-3.1135,-3.1411,-3.2252,-3.2805,-3.3124,-3.3124,-3.3124,-3.3124,-3.3124,-3.3124,-3.3124,-3.3124,-3.3124,-3.3124,-3.3124,-3.3124,-3.3124,-3.3124,-3.3124,-3.3124,-3.3124,-3.3124,-3.3124,-3.3124,-3.3124,-3.3124,0.0,0.0,0.0,0.0,0.0,0.0,0.0,0.0,0.0,0.0,0.0,0.0,0.0,0.0,-3.3658,0.0,0.0,-3.4399,-3.4675,-3.4906,-3.5094,-3.5094,-3.5604,-3.5742,-3.5157,-3.5378,-3.5655,-3.5931,-3.5956,-3.6069,-3.6392,-3.6405,-3.6531,-3.6807,-3.682,-3.7023,-3.7575,-3.76,-3.7726,-3.8002,-3.8002,-3.8002,-3.8002,-3.8002,-3.8002,-3.8002,-3.8002,-3.8002,-3.799,-3.7418,-3.6961,-3.6428,-3.4589,-3.2859,-3.1216,-2.9569,-2.8726,-2.8374,-2.7865,-2.7519,-2.7344,0.0,0.0,0.0,0.0,0.0,0.0,0.0,0.0,-2.1205,-2.1359,-2.2225,-2.2964,-2.3372,-2.4263,-2.5052,-2.5606,-2.6638,-2.7245,-2.7281,-2.831,-2.8888,-2.8888,-2.9478,-2.9792,-2.9792,-2.9792,-2.9792,-2.9792,-3.0344,-3.0834,-3.1248,-3.1901,-3.2466,-3.2918,-3.3074,-3.3124,-3.3124,-3.3124,-3.3124,-3.3124,-3.3124,-3.3124,-3.3124,-3.3124,-3.3124,-3.3124,-3.3124,-3.3124,-3.3124,-3.3124,-3.3124,-3.3124,-3.3124,-3.3124,-3.3124,-3.3124,-3.3124,0.0,0.0,0.0,0.0,0.0,0.0,0.0,0.0,0.0,-3.337,-3.3809,-3.3985,-3.4223,-3.4776,-3.4876,-3.4868,-3.5027,-3.5416,-3.5658,-3.5658,-3.6081,-3.6194,-3.5708,-3.6094,-3.6405,-3.6405,-3.6405,-3.6455,-3.6556,-3.6568,-3.6807,-3.7312,-3.7349,-3.76,-3.8153,-3.8165,-3.8228,-3.8329,-3.8329,-3.8329,-3.8329,-3.8329,-3.8329,-3.8329,-3.8329,-3.8279,-3.8229,-3.7629,-3.6901,-3.6045,-3.3839,-3.2225,-3.0996,-2.99,-2.929,-2.8973,-2.8504,-2.8076,-2.7836,0.0,0.0,0.0,0.0,0.0,0.0,0.0,0.0,0.0,-2.0945,-2.1693,-2.2365,-2.2777,-2.3703,-2.473,-2.5758,-2.659,-2.7126,-2.7281,-2.831,-2.8888,-2.8888,-2.9478,-2.9792,-2.9792,-2.9792,-2.9792,-2.9792,-3.0344,-3.0645,-3.0721,-3.1738,-3.2252,-3.2328,-3.2842,-3.3124,-3.3124,-3.3124,-3.3124,-3.3124,-3.3124,-3.3124,-3.3124,-3.3124,-3.3124,-3.3124,-3.3124,-3.3124,-3.3124,-3.3124,-3.3124,-3.3124,-3.3124,-3.3124,-3.3124,-3.3124,0.0,-3.3124,-3.3124,-3.3124,-3.3124,-3.3124,-3.3124,-3.3124,0.0,0.0,-3.3822,-3.3884,-3.4286,-3.4756,-3.5307,-3.5408,-3.5617,-3.6094,-3.6279,-3.6317,-3.6317,-3.6367,-3.638,-3.6329,-3.6367,-3.6405,-3.6405,-3.6405,-3.6619,-3.7048,-3.7098,-3.7324,-3.7889,-3.7914,-3.8178,-3.8755,-3.8781,-3.9007,-3.9496,-3.9509,-3.9509,-3.9509,-3.9509,-3.9509,-3.9509,-3.9509,-3.9393,-3.9047,-3.7224,-3.5591,-3.4031,-3.2619,-3.1518,-3.0596,-2.9548,-2.8983,-2.8727,-2.8398,-2.8262,-2.8223,0.0,0.0,0.0,0.0,0.0,0.0,0.0,0.0,0.0,0.0,-2.1397,-2.1921,-2.2327,-2.3457,-2.4467,-2.5123,-2.58,-2.623,-2.63,-2.7136,-2.7742,-2.8064,-2.861,-2.9056,-2.9378,-2.9378,-2.9378,-2.9378,-2.9719,-3.0032,-3.026,-3.0829,-3.127,-3.1625,-3.2054,-3.2296,-3.2481,-3.2754,-3.2853,-3.2896,-3.3038,-3.3124,-3.3124,-3.3124,-3.3124,-3.3124,-3.3124,-3.3124,0.0,-3.3124,-3.3124,-3.3124,-3.3124,-3.3124,-3.3124,-3.3124,-3.3124,0.0,-3.3124,-3.3124,-3.3124,0.0,-3.3319,-3.3558,-3.3558,-3.3985,-3.4462,-3.4788,-3.4994,-3.532,-3.5918,-3.6019,-3.6094,0.0,-3.6405,-3.6405,-3.6405,-3.6405,-3.6405,-3.6405,-3.6405,-3.6405,-3.6405,-3.6694,-3.6935,-3.7161,-3.7475,-3.7914,-3.8479,-3.8504,-3.8768,-3.9333,-3.9346,-3.9459,-3.9697,-3.9697,-3.9697,-3.9697,-3.9697,-3.9697,-3.9685,-3.953,-3.905,-3.8226,-3.6819,-3.5313,-3.3723,-3.2652,-3.1491,-3.0304,-2.9551,-2.9063,-2.8684,-2.8408,-2.8291,-2.8291,0.0,0.0,0.0,0.0,0.0,0.0,0.0,0.0,0.0,0.0,0.0,-2.154,-2.2025,-2.3113,-2.3959,-2.4443,-2.4945,-2.5312,-2.543,-2.6104,-2.67,-2.7054,-2.7762,-2.8299,-2.8612,-2.8809,-2.8934,-2.8934,-2.9157,-2.9367,-2.9585,-2.988,-3.0225,-3.0592,-3.0889,-3.1168,-3.1433,-3.1982,-3.2272,-3.2327,-3.2791,-3.2982,-3.2995,-3.3068,-3.3124,-3.3124,-3.3124,-3.3124,-3.3124,-3.3124,-3.3124,-3.3124,-3.3124,-3.3124,-3.3124,-3.3124,-3.3124,-3.3124,-3.3124,0.0,0.0,-3.3269,-3.3608,-3.3935,-3.4085,-3.455,-3.5019,-3.542,-3.5621,-3.5893,-3.6329,-3.6405,-3.6405,-3.6405,-3.6405,-3.6405,-3.6405,-3.6405,-3.6405,-3.6405,-3.6543,-3.6631,-3.6631,-3.6948,-3.7312,-3.7626,-3.8015,-3.8492,-3.9069,-3.9094,-3.9283,-3.9685,-3.9697,-3.9697,-3.9697,-3.9697,-3.9697,-3.9697,-3.9645,-3.9581,-3.9581,-3.905,-3.8238,-3.7162,-3.6057,-3.477,-3.3415,-3.2399,-3.1277,-3.0118,-2.9525,-2.9021,-2.8735,-2.8393,-2.8291,-2.8291,0.0,0.0,0.0,0.0,0.0,0.0,0.0,0.0,0.0,0.0,0.0,0.0,0.0,0.0,-2.3075,-2.3861,-2.4251,-2.46,-2.5004,-2.5721,-2.6069,-2.5959,-2.709,-2.7642,-2.7448,-2.8143,-2.851,-2.851,-2.8724,-2.8736,-2.8546,-2.9068,-2.9239,-2.9064,-2.9396,-2.9676,-2.9893,-3.0651,-3.1082,-3.1424,-3.2327,-3.2711,-3.2766,-3.2982,-3.3124,-3.3124,-3.3124,-3.3124,-3.3124,-3.3124,-3.3124,-3.3124,-3.3124,-3.3124,0.0,-3.3124,-3.3124,-3.3124,-3.3124,0.0,-3.3206,-3.3746,-3.3884,-3.4035,-3.4575,-3.5082,-3.5483,-3.5495,-3.5968,-3.6392,-3.6405,-3.6405,-3.6405,-3.6405,-3.6405,-3.6405,-3.6405,-3.6405,-3.6405,-3.6405,-3.6883,-3.7161,0.0,-3.7174,-3.7638,-3.8793,-3.8881,-3.9082,-3.9634,-3.9672,-3.9672,-3.9697,-3.9697,-3.9697,-3.9697,-3.9697,-3.9697,-3.9697,-3.9426,-3.931,-3.9258,-3.8133,-3.7162,-3.6177,-3.4681,-3.3561,-3.2633,-3.1305,-3.0547,-3.0135,-2.9248,-2.8916,-2.8848,-2.8447,-2.8291,-2.8291,0.0,0.0,0.0,0.0,0.0,0.0,0.0,0.0,0.0,0.0,0.0,0.0,0.0,0.0,0.0,0.0,-2.3165,-2.3534,-2.3644,-2.429,-2.4726,-2.4912,-2.5559,-2.6047,-2.6314,-2.689,-2.7249,-2.7423,-2.7765,-2.7834,-2.7644,-2.7795,-2.7805,-2.7625,-2.7892,-2.8165,-2.8441,-2.9347,-3.0145,-3.0879,-3.1504,-3.213,-3.2711,-3.2797,-3.2939,-3.3124,0.0,-3.3124,-3.3124,-3.3124,-3.3124,-3.3124,-3.3124,-3.3124,-3.3124,-3.3124,-3.3124,-3.3124,-3.3124,0.0,-3.3206,-3.3759,-3.4173,-3.4587,-3.5094,-3.5692,-3.6094,-3.6094,-3.6279,-3.6405,-3.6405,-3.6405,-3.6405,-3.6405,-3.6405,-3.6405,-3.6405,-3.6405,-3.6543,-3.6908,-3.7073,0.0,0.0,0.0,0.0,-3.8894,-3.9207,-3.9496,-3.9685,-3.9697,-3.9697,-3.9697,-3.9697,-3.9697,-3.9697,-3.9697,-3.9697,-3.9685,-3.9206,-3.8554,-3.7791,-3.7042,-3.5947,-3.4681,-3.3786,-3.2903,-3.2055,-3.1397,-3.0756,-3.0166,-2.9883,-2.9414,-2.8896,-2.876,-2.8535,-2.8291,0.0,0.0,0.0,0.0,0.0,0.0,0.0,0.0,0.0,0.0,0.0,0.0,0.0,0.0,0.0,0.0,0.0,-2.2703,-2.2777,-2.3298,-2.3627,-2.3676,-2.4231,-2.4662,-2.4884,-2.5492,-2.596,-2.6293,-2.6637,-2.6758,-2.6745,-2.6652,-2.6476,-2.6299,-2.6299,-2.6485,-2.6889,-2.7831,-2.8749,-2.9644,-3.0637,-3.1516,-3.2235,-3.255,-3.2853,0.0,-3.3124,-3.3124,-3.3124,-3.3124,-3.3124,-3.3124,-3.3124,-3.3124,-3.3124,-3.3124,-3.3124,-3.3124,-3.3124,-3.3262,-3.3508,-3.406,-3.4613,-3.5119,-3.5705,-3.6107,-3.6405,-3.6405,-3.6405,-3.6405,-3.6405,-3.6405,-3.6405,-3.6405,-3.6405,-3.6405,-3.6405,-3.6405,-3.6619,-3.7123,-3.7362,-3.7839,0.0,0.0,0.0,-3.917,-3.9496,-3.9697,-3.9697,-3.9594,-3.953,-3.953,-3.9426,-3.9374,-3.9374,-3.9374,-3.927,-3.9102,-3.8461,-3.759,-3.6491,-3.5729,-3.4736,-3.3515,-3.2903,-3.2227,-3.1614,-3.1276,-3.0877,-3.043,-3.0264,-2.9766,-2.9131,-2.8975,-2.8652,-2.8291,0.0,0.0,0.0,0.0,0.0,0.0,0.0,0.0,0.0,0.0,0.0,0.0,0.0,0.0,0.0,0.0,0.0,0.0,-2.2327,-2.2703,-2.274,-2.2365,-2.321,-2.3536,-2.3133,-2.3974,-2.46,-2.509,-2.5293,-2.5546,-2.5779,-2.5527,-2.5327,-2.5115,-2.4669,-2.4722,-2.5232,-2.6205,-2.7012,-2.7835,-2.9691,-3.0764,-3.1321,-3.2247,-3.2803,-3.3043,-3.3068,-3.3081,-3.3124,-3.3124,-3.3124,-3.3124,-3.3124,-3.3124,-3.3124,-3.3124,-3.3124,-3.3124,-3.3124,-3.3483,-3.4035,-3.4587,-3.5094,-3.5646,-3.6279,-3.6405,-3.6405,-3.6405,-3.6405,-3.6405,0.0,0.0,-3.6405,-3.6405,-3.6405,-3.6405,-3.6405,-3.643,-3.6656,0.0,0.0,0.0,0.0,0.0,0.0,-3.9645,0.0,-3.9645,-3.9645,-3.9374,-3.9258,-3.9206,-3.8945,-3.8736,-3.8736,-3.8736,-3.8461,-3.7933,-3.7311,-3.6437,-3.5323,-3.4357,-3.3459,-3.2571,-3.2008,-3.1614,-3.1276,-3.0995,-3.0889,-3.085,-3.04,-2.9971,-2.9551,-2.9111,-2.8682,-2.832,0.0,0.0,0.0,0.0,0.0,0.0,0.0,0.0,0.0,0.0,0.0,0.0,0.0,0.0,0.0,0.0,0.0,0.0,-2.1282,-2.1655,-2.1769,-2.1512,-2.2026,-2.2293,-2.2215,-2.2741,-2.3181,-2.3491,-2.4031,-2.4345,-2.4399,-2.4502,-2.4401,-2.4133,-2.4046,-2.4143,-2.4497,-2.5115,-2.6043,-2.7247,-2.8114,-2.9129,-3.0253,-3.1051,-3.1718,-3.2249,-3.266,0.0,0.0,0.0,0.0,0.0,0.0,-3.3124,-3.3124,-3.3124,-3.3124,-3.3124,-3.3124,-3.3483,-3.4035,-3.4587,-3.5094,-3.5646,-3.6279,-3.6405,-3.6405,-3.6405,-3.6405,-3.6405,0.0,0.0,0.0,-3.6405,-3.6405,0.0,-3.6405,-3.6757,0.0,-3.7739,0.0,-3.8527,-3.9152,-3.908,0.0,0.0,-3.927,-3.9218,-3.8736,-3.8684,-3.8514,-3.8356,-3.825,-3.8198,-3.8198,-3.7962,-3.7643,-3.7346,-3.6514,-3.5521,-3.4357,-3.3618,-3.2732,-3.1672,-3.1498,-3.1276,-3.1005,-3.0947,-3.0889,-3.0879,-3.0762,-3.0439,-2.999,-2.956,-2.9131,-2.8711,0.0,0.0,0.0,0.0,0.0,0.0,0.0,0.0,0.0,0.0,0.0,0.0,0.0,0.0,0.0,0.0,0.0,0.0,0.0,-2.1205,-2.1282,-2.1099,-2.1359,-2.1519,-2.146,-2.1763,-2.2084,-2.2473,-2.2849,-2.3115,-2.332,-2.3527,-2.3569,-2.3398,-2.3448,-2.3624,-2.3937,-2.4401,-2.5179,0.0,0.0,-2.7988,-2.8965,-2.9932,-3.0634,-3.1215,0.0,0.0,0.0,0.0,0.0,-3.3124,-3.3124,-3.3124,-3.3124,-3.3124,0.0,-3.3124,-3.3124,-3.3658,-3.4336,-3.4605,-3.5316,-3.5981,-3.6329,-3.6405,-3.6405,-3.6405,-3.6405,0.0,0.0,0.0,0.0,0.0,0.0,0.0,-3.6228,-3.6559,-3.7058,0.0,-3.7888,0.0,-3.8675,-3.8449,-3.8133,0.0,-3.8514,-3.8736,-3.825,-3.788,-3.7548,-3.7453,-3.7173,-3.7054,-3.7054,-3.6827,-3.6557,-3.6134,-3.5245,-3.4357,-3.3402,-3.2675,-3.1893,-3.1102,0.0,-3.1054,-3.0889,-3.0889,-3.0889,-3.0889,-3.0889,-3.0605,-3.0146,-2.9726,-2.9287,-2.8857,0.0,0.0,0.0,0.0,0.0,0.0,0.0,0.0,0.0,0.0,0.0,0.0,0.0,0.0,0.0,0.0,0.0,0.0,0.0,0.0,0.0,-2.0867,-2.1012,-2.1051,-2.0867,-2.1012,-2.1318,-2.1749,-2.1769,-2.204,-2.2432,-2.2665,-2.278,-2.2757,-2.2957,-2.3187,-2.3467,-2.3917,-2.4368,-2.4903,-2.6183,-2.6986,-2.7549,0.0,0.0,0.0,0.0,0.0,0.0,0.0,-3.3018,-3.3124,-3.3124,-3.3124,-3.3124,-3.3124,-3.3124,-3.3124,-3.3124,-3.3884,-3.468,-3.468,-3.5554,-3.6405,-3.6405,-3.6405,-3.6405,-3.6405,0.0,-3.6405,-3.6405,-3.6405,-3.6405,-3.6405,0.0,-3.5968,-3.5968,-3.6246,-3.6603,-3.7019,-3.7351,-3.7585,-3.7832,-3.7471,-3.7042,-3.6592,-3.7388,-3.7868,-3.7655,-3.6904,-3.6417,-3.6363,-3.5861,-3.5587,-3.5576,-3.5532,-3.5245,-3.4636,-3.3797,-3.313,-3.2571,-3.1662,-3.116,-3.0889,-3.0889,-3.0889,-3.0889,-3.0889,-3.0889,-3.0889,-3.0889,-3.0644,-3.0234,-2.9814,-2.9375,-2.8945,0.0,0.0,0.0,0.0,0.0,0.0,0.0,0.0,0.0,0.0,-2.0605,-2.0605,0.0,0.0,0.0,0.0,0.0,0.0,0.0,0.0,0.0,0.0,-2.0683,-2.0683,-2.0644,-2.0683,-2.0722,0.0,0.0,-2.136,-2.1438,-2.1879,-2.2085,-2.2095,-2.2432,-2.2755,-2.304,-2.3441,-2.3894,-2.4378,-2.4763,-2.5296,-2.5995,0.0,0.0,0.0,0.0,0.0,0.0,0.0,-3.2564,-3.3124,-3.3124,-3.3124,-3.3124,-3.3124,-3.3124,-3.3124,-3.3124,-3.3884,-3.468,-3.468,-3.5554,-3.6405,-3.6405,-3.6405,0.0,0.0,-3.6405,-3.6405,-3.6405,-3.6405,0.0,-3.6405,0.0,0.0,0.0,0.0,-3.6668,0.0,0.0,0.0,0.0,0.0,0.0,0.0,0.0,-3.563,-3.5861,-3.5411,-3.4958,-3.4458,-3.4636,-3.458,-3.4291,-3.4078,-3.3797,-3.3402,-3.2732,-3.2285,-3.196,-3.1498,-3.116,-3.0889,-3.0889,0.0,-3.0889,-3.0889,-3.0889,-3.0889,-3.0889,-3.084,-3.0713,-3.0254,-2.9814,-2.9394,0.0,0.0,0.0,0.0,0.0,0.0,0.0,-1.9902,-1.9902,-1.9902,-2.0088,-2.0312,-2.0576,-2.0605,0.0,0.0,0.0,0.0,0.0,0.0,0.0,0.0,0.0,0.0,0.0,0.0,0.0,0.0,0.0,0.0,0.0,0.0,0.0,0.0,0.0,0.0,0.0,-2.3044,-2.3424,0.0,0.0,0.0,0.0,0.0,0.0,0.0,0.0,0.0,0.0,0.0,-3.2162,-3.2564,-3.298,-3.3124,-3.3124,-3.3124,-3.3124,-3.3124,-3.3124,-3.3884,-3.468,-3.468,-3.5554,-3.6405,-3.6405,0.0,0.0,0.0,-3.6405,-3.6405,-3.6405,0.0,0.0,0.0,0.0,0.0,0.0,0.0,0.0,0.0,0.0,0.0,0.0,0.0,0.0,0.0,0.0,-3.4078,-3.4869,-3.4368,-3.3741,-3.3063,-3.3413,-3.3413,-3.3063,-3.296,-3.2732,-3.2399,-3.194,-3.1662,-3.1556,-3.1218,-3.0995,-3.0889,-3.0889,0.0,-3.0889,-3.0889,-3.0889,-3.0889,-3.0889,-3.0889,-3.083,-3.0371,-2.9932,-2.9502,0.0,0.0,0.0,0.0,0.0,0.0,0.0,-1.9287,-1.9287,-1.9287,-1.957,-1.9912,-2.0292,-2.0498,-2.0605,0.0,0.0,0.0,0.0,0.0,0.0,0.0,0.0,0.0,0.0,0.0,0.0,0.0,0.0,0.0,0.0,0.0,0.0,0.0,0.0,0.0,0.0,0.0,0.0,0.0,0.0,0.0,0.0,0.0,0.0,0.0,0.0,0.0,0.0,0.0,-3.1662,-3.202,-3.2627,-3.2895,-3.2952,-3.2995,-3.3025,-3.3025,-3.3068,-3.3884,-3.468,-3.4623,-3.5462,-3.6323,-3.6216,-3.6228,0.0,0.0,-3.6275,-3.6275,-3.631,0.0,0.0,0.0,0.0,0.0,0.0,0.0,0.0,0.0,0.0,0.0,0.0,0.0,0.0,0.0,0.0,0.0,-3.3864,-3.3254,-3.2638,-3.1998,-3.2342,-3.2352,-3.1998,-3.1998,-3.1893,-3.1624,-3.1334,-3.1218,-3.1218,-3.1005,-3.0889,-3.0889,-3.0889,0.0,0.0,-3.0889,-3.0889,-3.0889,-3.0889,-3.0889,-3.085,-3.0478,-3.0019,-2.9521,0.0,0.0,0.0,0.0,0.0,0.0,0.0,-1.9287,-1.9287,-1.9287,-1.9316,-1.9365,-1.9394,-2.0136,-2.0605,0.0,0.0,0.0,0.0,0.0,0.0,0.0,0.0,0.0,0.0,0.0,0.0,0.0,0.0,0.0,0.0,0.0,0.0,0.0,0.0,0.0,0.0,0.0,0.0,0.0,0.0,0.0,0.0,0.0,0.0,0.0,0.0,0.0,0.0,0.0,0.0,-3.1916,-3.2008,-3.2197,-3.2519,-3.268,0.0,0.0,-3.3025,-3.3884,-3.4623,-3.4396,-3.5183,-3.5955,-3.5716,0.0,0.0,-3.6015,-3.586,-3.5764,-3.6015,-3.562,-3.5368,0.0,0.0,-3.4216,0.0,0.0,0.0,0.0,0.0,0.0,0.0,0.0,0.0,0.0,0.0,0.0,-3.2018,-3.196,-3.1787,-3.1383,-3.173,-3.173,-3.1383,-3.1383,-3.1276,-3.1005,-3.0947,-3.0947,-3.0947,-3.0889,-3.0889,-3.0889,-3.0889,0.0,0.0,-3.0889,-3.0889,-3.0889,-3.0889,-3.0889,-3.0889,-3.084,-3.0293,-2.956,0.0,0.0,0.0,0.0,0.0,0.0,-1.8525,-1.8525,-1.8525,-1.8525,-1.874,-1.8896,-1.8896,-1.9434,-1.9893,-2.0156,0.0,0.0,0.0,0.0,0.0,0.0,0.0,0.0,0.0,0.0,0.0,0.0,0.0,0.0,0.0,0.0,0.0,0.0,0.0,0.0,0.0,0.0,0.0,0.0,0.0,0.0,0.0,0.0,0.0,0.0,0.0,0.0,0.0,0.0,0.0,0.0,-3.1381,-3.1513,0.0,0.0,-3.2711,-3.2766,-3.3025,-3.3633,-3.4209,-3.4309,-3.4796,-3.5275,-3.5343,0.0,-3.5175,-3.5464,-3.532,-3.5223,-3.5476,-3.4932,-3.4531,-3.4628,0.0,0.0,0.0,0.0,0.0,0.0,0.0,0.0,0.0,0.0,0.0,0.0,0.0,0.0,-3.1286,-3.1392,-3.1392,-3.1054,-3.117,-3.117,-3.1054,-3.1054,-3.1005,-3.0889,-3.0889,-3.0889,-3.0889,-3.0889,-3.0889,-3.0889,-3.0889,0.0,0.0,-3.0889,-3.0889,-3.0889,-3.0889,-3.0889,-3.0859,-3.0576,-3.0088,-2.9531,0.0,0.0,0.0,0.0,0.0,-1.8008,-1.8008,-1.8008,-1.8008,-1.8008,-1.8237,-1.8412,-1.8412,-1.873,-1.9082,-1.9502,-1.9766,0.0,0.0,0.0,0.0,0.0,0.0,0.0,0.0,0.0,-2.0605,-2.0605,-2.0605,0.0,0.0,0.0,0.0,0.0,0.0,0.0,0.0,0.0,0.0,0.0,0.0,0.0,0.0,0.0,0.0,0.0,0.0,0.0,0.0,0.0,0.0,0.0,0.0,0.0,0.0,0.0,-3.2407,-3.2494,-3.281,-3.3264,-3.3769,-3.4033,-3.4252,-3.4507,0.0,0.0,-3.4433,-3.4775,-3.458,-3.4433,-3.4665,-3.4078,-3.3534,-3.3534,0.0,-3.2314,0.0,0.0,0.0,0.0,0.0,0.0,0.0,0.0,0.0,0.0,0.0,0.0,-3.0889,-3.1054,-3.1112,-3.0898,-3.0889,-3.0889,-3.0889,-3.0889,-3.0889,-3.0889,-3.0889,-3.0889,-3.0889,-3.0889,-3.0889,-3.0889,-3.0889,0.0,0.0,-3.0889,-3.0889,-3.0889,-3.0889,-3.081,-3.0644,-3.0322,-2.9853,-2.9336,0.0,0.0,0.0,0.0,0.0,0.0,-1.8008,-1.8008,-1.8008,-1.8008,-1.8018,-1.8018,-1.8018,-1.8018,-1.8193,-1.8578,-1.9387,0.0,0.0,0.0,0.0,0.0,0.0,0.0,0.0,0.0,-2.0605,-2.0605,-2.0605,-2.0605,-2.0605,0.0,0.0,0.0,0.0,0.0,0.0,0.0,0.0,0.0,0.0,0.0,0.0,0.0,0.0,0.0,0.0,0.0,0.0,0.0,0.0,0.0,0.0,0.0,0.0,0.0,-3.1705,-3.1805,-3.23,-3.2793,-3.3277,-3.3542,-3.3621,-3.3707,0.0,0.0,-3.3346,-3.3892,-3.3595,-3.3296,-3.356,-3.2951,-3.242,-3.242,-3.1721,0.0,0.0,0.0,0.0,0.0,0.0,0.0,0.0,0.0,0.0,0.0,0.0,0.0,-3.0889,-3.0889,-3.0889,-3.0889,-3.0889,-3.0889,-3.0889,-3.0889,-3.0889,-3.0889,-3.0889,-3.0889,-3.0889,-3.0889,-3.0889,-3.0889,0.0,0.0,0.0,-3.0889,-3.0889,-3.0889,-3.0889,-3.0605,-3.0205,-3.0195,-2.9658,-2.8926,0.0,0.0,0.0,0.0,0.0,0.0,0.0,-1.8008,-1.8008,-1.8008,-1.8008,-1.8008,-1.8008,-1.8008,-1.8057,-1.8159,-1.8685,0.0,0.0,0.0,0.0,0.0,0.0,0.0,0.0,0.0,-2.0605,-2.0605,-2.0605,-2.0605,-2.0605,-2.0605,-2.0605,0.0,0.0,0.0,0.0,0.0,0.0,0.0,0.0,0.0,0.0,0.0,0.0,0.0,0.0,0.0,0.0,0.0,0.0,0.0,0.0,0.0,0.0,-3.0695,0.0,0.0,-3.1849,-3.2059,-3.2321,-3.2951,-3.2853,-3.266,-3.3078,0.0,-3.2432,-3.2622,-3.2331,-3.2117,-3.2235,-3.1739,-3.1249,-3.1043,-3.0484,0.0,0.0,0.0,0.0,0.0,0.0,0.0,0.0,0.0,0.0,0.0,0.0,0.0,-3.0889,-3.0889,-3.0889,-3.0889,-3.0889,-3.0889,-3.0889,-3.0889,-3.0889,-3.0889,-3.0889,-3.0889,-3.0889,-3.0889,-3.0889,0.0,0.0,0.0,0.0,-3.0889,-3.0889,-3.0859,-3.0537,-3.0322,-3.0127,-2.9541,-2.915,-2.8877,0.0,0.0,0.0,0.0,0.0,0.0,0.0,-1.8008,-1.8008,-1.8008,-1.8008,-1.8008,-1.8008,-1.8008,-1.8008,-1.8008,-1.8217,0.0,0.0,0.0,0.0,0.0,0.0,0.0,0.0,-2.0605,-2.0605,-2.0605,-2.0605,-2.0605,-2.0605,-2.0605,-2.0605,-2.0605,-2.0605,0.0,0.0,0.0,0.0,0.0,0.0,0.0,-2.3179,0.0,0.0,0.0,0.0,0.0,0.0,0.0,0.0,0.0,0.0,0.0,0.0,0.0,-3.0532,-3.0713,0.0,-3.1205,-3.1331,-3.2207,-3.1969,0.0,0.0,0.0,-3.1578,-3.1669,-3.1476,-3.127,-3.1187,-3.0785,-3.0391,-2.9973,-2.9606,0.0,0.0,0.0,0.0,0.0,0.0,0.0,0.0,0.0,0.0,0.0,0.0,0.0,-3.0889,-3.0889,-3.0889,-3.0889,-3.0889,-3.0889,-3.0889,-3.0889,-3.0889,-3.0889,-3.0889,-3.0889,-3.0889,-3.0889,-3.0889,0.0,0.0,0.0,0.0,-3.0889,-3.0791,-3.0605,-3.0312,-3.0,-2.9648,-2.9111,-2.8818,-2.8643,0.0,0.0,0.0,0.0,0.0,0.0,0.0,-1.8008,-1.8008,-1.8008,-1.8008,-1.8008,-1.8008,-1.8008,-1.8008,-1.8008,0.0,0.0,0.0,0.0,0.0,0.0,0.0,0.0,-2.0605,-2.0605,-2.0605,-2.0605,-2.0605,-2.0605,-2.0605,-2.0605,-2.0605,-2.0605,-2.0605,-2.0605,-2.0683,-2.1492,-2.2063,-2.244,-2.2628,-2.2858,0.0,0.0,0.0,0.0,0.0,0.0,0.0,0.0,0.0,0.0,0.0,0.0,0.0,0.0,0.0,0.0,0.0,-3.0306,0.0,0.0,0.0,0.0,0.0,0.0,0.0,-3.1023,-3.0868,-3.062,-3.0339,-3.0088,-2.9732,-2.9132,0.0,0.0,0.0,0.0,0.0,0.0,0.0,0.0,0.0,0.0,0.0,0.0,0.0,0.0,-3.0889,-3.0889,-3.0889,-3.0889,-3.0889,-3.0889,-3.0889,-3.0889,-3.0889,-3.0889,-3.0889,-3.0889,-3.0889,-3.0889,-3.0889,0.0,0.0,0.0,0.0,-3.081,-3.0547,-3.0146,-3.0117,-2.9619,-2.8916,-2.8887,-2.8633,-2.8291,0.0,0.0,0.0,0.0,0.0,0.0,0.0,0.0,0.0,0.0,-1.8008,-1.8008,-1.8008,-1.8008,-1.8008,0.0,0.0,0.0,0.0,0.0,0.0,0.0,0.0,0.0,-2.0595,-2.0605,-2.0605,-2.0605,-2.0605,-2.0605,-2.0605,-2.0605,-2.0605,-2.0605,-2.0605,-2.076,-2.1079,-2.1759,-2.2252,-2.2665,-2.2852,-2.288,0.0,0.0,0.0,0.0,-2.4952,-2.6113,0.0,0.0,0.0,0.0,0.0,0.0,0.0,0.0,-2.9737,-2.9485,-2.9439,0.0,-2.9291,-3.0297,-3.0101,-2.9846,0.0,0.0,0.0,0.0,0.0,0.0,0.0,0.0,0.0,0.0,0.0,0.0,0.0,0.0,0.0,0.0,0.0,0.0,0.0,0.0,0.0,0.0,0.0,-3.0889,-3.0889,-3.0889,-3.0889,-3.0889,-3.0889,-3.0889,-3.0889,-3.0889,-3.0889,-3.0889,-3.0889,-3.0889,-3.0889,-3.0889,-3.0889,0.0,0.0,0.0,-3.0332,-3.001,-2.9814,-2.9687,-2.9355,-2.9101,-2.8877,-2.8555,-2.8379,-2.8291,0.0,0.0,0.0,0.0,0.0,0.0,0.0,0.0,0.0,0.0,0.0,0.0,0.0,0.0,0.0,0.0,0.0,0.0,0.0,0.0,0.0,0.0,0.0,-2.0117,-2.0595,-2.0605,-2.0605,-2.0605,-2.0605,-2.0605,-2.0605,-2.0605,-2.0605,-2.0605,-2.0693,-2.0974,-2.1359,-2.1873,-2.2289,-2.2553,-2.259,0.0,0.0,0.0,0.0,0.0,-2.4577,-2.5732,0.0,-2.7044,-2.6992,-2.7069,0.0,0.0,0.0,0.0,-2.9359,-2.8943,-2.8653,-2.856,-2.8744,-2.9348,-2.9253,-2.9205,-2.9765,0.0,0.0,0.0,0.0,0.0,0.0,0.0,0.0,0.0,0.0,0.0,0.0,0.0,0.0,0.0,0.0,0.0,0.0,0.0,0.0,0.0,0.0,-3.0889,-3.0889,-3.0889,-3.0889,-3.0889,-3.0684,-3.0674,-3.0889,-3.0889,-3.0889,-3.0889,-3.0889,-3.0781,-3.0576,-3.0576,-3.0469,0.0,0.0,0.0,-2.9893,-2.9658,-2.9453,-2.9248,-2.9014,-2.8799,-2.8603,-2.8379,-2.8291,-2.8291,0.0,0.0,0.0,0.0,0.0,0.0,0.0,0.0,0.0,0.0,0.0,0.0,0.0,0.0,0.0,0.0,0.0,0.0,0.0,0.0,0.0,0.0,0.0,-2.0049,-2.0595,-2.0605,-2.0605,-2.0605,-2.0605,-2.0605,-2.0605,-2.0605,-2.0605,-2.0644,-2.0819,-2.1128,-2.1578,-2.1959,-2.2214,-2.2365,-2.2176,0.0,0.0,0.0,0.0,0.0,0.0,0.0,0.0,-2.691,-2.6734,-2.6665,-2.7758,0.0,0.0,0.0,0.0,0.0,-2.8045,-2.8102,-2.8267,-2.8449,-2.8424,-2.8531,-2.8993,0.0,0.0,0.0,0.0,0.0,0.0,0.0,0.0,0.0,0.0,0.0,0.0,0.0,0.0,0.0,0.0,0.0,0.0,0.0,0.0,0.0,0.0,-3.0693,-3.0693,-3.0693,-3.0693,-3.0693,-3.0312,-3.0293,-3.0684,-3.0693,-3.0693,-3.0693,-3.0693,-3.0478,-3.0098,-3.0098,-2.9902,-2.9626,0.0,0.0,-2.9463,-2.946,-2.916,-2.8818,-2.8818,-2.8603,-2.8291,-2.8291,-2.8291,-2.8291,0.0,0.0,0.0,0.0,0.0,0.0,0.0,0.0,0.0,0.0,0.0,0.0,0.0,0.0,0.0,0.0,0.0,0.0,0.0,0.0,0.0,-1.9248,-1.9346,-1.9756,-2.0586,-2.0605,-2.0605,-2.0605,-2.0605,-2.0605,-2.0605,-2.0605,-2.0693,-2.0867,-2.0906,-2.1205,-2.1769,-2.1997,-2.2214,-2.2365,-2.2176,0.0,0.0,0.0,0.0,0.0,0.0,0.0,0.0,-2.5937,-2.6021,-2.6323,-2.6758,0.0,0.0,0.0,0.0,0.0,-2.7867,-2.7584,-2.7461,-2.7441,-2.7532,-2.7712,-2.8161,-2.8348,0.0,0.0,0.0,0.0,0.0,0.0,0.0,0.0,0.0,0.0,0.0,0.0,0.0,0.0,0.0,0.0,0.0,0.0,0.0,0.0,0.0,-2.9832,-2.9832,-2.9832,-2.9832,-2.9832,-2.9707,-2.9707,-2.9832,-2.9832,-2.9832,-2.9832,-2.9832,-2.9736,-2.9668,-2.9668,-2.9629,-2.9551,0.0,-2.9023,-2.8994,-2.8633,-2.8447,-2.8389,-2.8389,-2.835,-2.8291,-2.8291,-2.8291,-2.8291,0.0,0.0,0.0,0.0,0.0,0.0,0.0,0.0,0.0,0.0,0.0,0.0,0.0,0.0,0.0,0.0,0.0,0.0,0.0,0.0,0.0,-1.9248,-1.9287,-1.9725,-2.0586,-2.0605,-2.0605,-2.0605,-2.0605,-2.0605,-2.0605,-2.0693,-2.0819,-2.0906,-2.1244,-2.1617,-2.1997,-2.2176,-2.2327,-2.2365,0.0,0.0,0.0,0.0,0.0,0.0,0.0,0.0,0.0,0.0,-2.5884,-2.5986,-2.6626,0.0,0.0,0.0,0.0,0.0,-2.7204,-2.6822,-2.6633,-2.6417,-2.6913,-2.7449,-2.7647,-2.8013,0.0,0.0,0.0,0.0,0.0,0.0,0.0,0.0,0.0,0.0,0.0,0.0,0.0,0.0,0.0,0.0,0.0,0.0,0.0,0.0,0.0,0.0,-2.9626,-2.9626,-2.9626,-2.9626,-2.9336,-2.9219,-2.9219,-2.8994,-2.9111,-2.9626,-2.9626,-2.9443,-2.9219,-2.9219,-2.9092,-2.8867,0.0,-2.8584,-2.8564,-2.8369,-2.8291,-2.8291,-2.8291,-2.8291,-2.8291,-2.8291,-2.8291,-2.8291,0.0,0.0,0.0,0.0,0.0,0.0,0.0,0.0,0.0,0.0,0.0,0.0,0.0,0.0,0.0,0.0,0.0,0.0,0.0,0.0,-1.8496,-1.9258,-1.9385,-1.9785,-2.0586,-2.0605,-2.0605,-2.0605,-2.0605,-2.0605,-2.0654,-2.0819,-2.0984,-2.1138,-2.154,-2.1883,-2.2176,-2.2289,-2.2327,-2.2289,0.0,0.0,0.0,0.0,0.0,0.0,0.0,0.0,0.0,0.0,0.0,0.0,0.0,0.0,0.0,-2.7721,-2.7773,-2.7441,-2.6688,-2.6294,-2.6052,-2.5781,0.0,-2.7298,-2.7298,-2.7823,-2.8291,0.0,0.0,0.0,0.0,0.0,0.0,0.0,0.0,0.0,0.0,0.0,0.0,0.0,0.0,0.0,0.0,0.0,0.0,0.0,0.0,0.0,-2.9323,-2.9323,-2.9323,-2.9323,-2.8945,-2.8769,-2.8769,-2.8447,-2.8623,-2.9323,-2.9323,-2.9101,-2.8769,-2.8769,-2.8594,-2.8291,-2.8291,-2.8291,-2.8291,-2.8291,-2.8291,-2.8291,-2.8291,-2.8291,-2.8291,-2.8291,-2.8291,-2.8291,0.0,0.0,0.0,0.0,0.0,0.0,0.0,0.0,0.0,0.0,0.0,0.0,0.0,0.0,0.0,0.0,0.0,0.0,0.0,0.0,-1.8763,-1.9268,-1.9668,-2.0088,-2.0595,-2.0605,-2.0605,-2.0605,-2.0605,-2.0693,-2.0867,-2.0906,-2.1205,-2.1731,-2.1578,-2.1845,-2.2365,-2.2176,-2.2101,-2.2101,-2.2111,0.0,0.0,0.0,0.0,0.0,0.0,0.0,0.0,0.0,0.0,0.0,0.0,0.0,-2.7323,-2.7545,-2.7631,-2.7441,-2.6688,-2.6294,-2.6052,-2.5781,-2.6377,-2.7012,-2.7012,-2.7676,0.0,-2.8291,0.0,0.0,0.0,0.0,0.0,0.0,0.0,0.0,0.0,0.0,0.0,0.0,0.0,0.0,0.0,0.0,0.0,0.0,0.0,0.0,-2.8389,-2.8389,-2.8389,-2.8389,-2.8359,-2.834,-2.834,-2.831,-2.832,-2.8389,-2.8389,-2.8369,-2.834,-2.834,-2.832,-2.8291,-2.8291,-2.8291,-2.8291,-2.8291,-2.8291,-2.8291,-2.8291,-2.8291,-2.8291,-2.8291,-2.8291,-2.8291,0.0,0.0,0.0,0.0,0.0,0.0,0.0,0.0,0.0,0.0,0.0,0.0,0.0,0.0,0.0,0.0,0.0,0.0,0.0,-1.852,-1.8909,-1.9648,-1.9824,-2.0117,-2.0595,-2.0605,-2.0605,-2.0605,-2.0605,-2.0693,-2.0906,-2.1022,-2.1282,-2.1617,-2.1807,-2.1997,-2.2214,-2.2252,-2.2289,-2.2289,-2.2289,-2.2507,0.0,0.0,0.0,0.0,0.0,0.0,0.0,0.0,-2.5822,-2.5859,-2.6626,-2.6972,-2.7166,-2.7509,-2.7394,-2.7051,-2.6438,-2.6062,-2.582,-2.5732,-2.6387,0.0,0.0,-2.7676,-2.8291,-2.8291,-2.8291,0.0,0.0,0.0,0.0,0.0,0.0,0.0,0.0,0.0,0.0,0.0,0.0,0.0,0.0,0.0,0.0,0.0,0.0,0.0,-2.8291,-2.8291,-2.8291,-2.8291,-2.8291,-2.8291,-2.8291,-2.8291,-2.8291,-2.8291,-2.8291,-2.8291,-2.8291,-2.8291,-2.8291,-2.8291,-2.8291,-2.8291,-2.8291,-2.8291,-2.8291,-2.8291,-2.8291,-2.8291,-2.8291,-2.8291,-2.8291,-2.8291,0.0,0.0,0.0,0.0,0.0,0.0,0.0,0.0,0.0,0.0,0.0,0.0,0.0,0.0,0.0,0.0,0.0,0.0,-1.8588,-1.8861,-1.927,-1.9855,-2.0049,-2.0254,-2.0595,-2.0605,-2.0605,-2.0605,-2.0605,-2.0731,-2.0984,-2.1128,-2.1397,-2.1693,-2.1921,-2.2073,-2.2214,-2.2289,-2.2365,-2.2488,-2.2638,-2.3047,0.0,0.0,0.0,0.0,0.0,0.0,0.0,0.0,-2.6047,-2.6054,-2.6943,-2.7213,-2.728,-2.7634,-2.7336,-2.6812,-2.6342,-2.5965,-2.5693,-2.5693,0.0,0.0,-2.6982,-2.7676,-2.8291,-2.8291,-2.8291,0.0,0.0,0.0,0.0,0.0,0.0,0.0,0.0,0.0,0.0,0.0,0.0,0.0,0.0,0.0,0.0,0.0,0.0,0.0,0.0,-2.8291,-2.8291,-2.8291,-2.8291,-2.8291,-2.8291,-2.8291,-2.8291,-2.8291,-2.8291,-2.8291,-2.8291,-2.8291,-2.8291,-2.8291,-2.8291,-2.8291,-2.8291,-2.8291,-2.8291,-2.8291,-2.8291,-2.8291,-2.8291,-2.8291,-2.8291,-2.8291,0.0,0.0,0.0,0.0,0.0,0.0,0.0,0.0,0.0,0.0,0.0,0.0,0.0,0.0,0.0,0.0,0.0,0.0,-1.8617,-1.9407,-1.9912,-1.9922,-2.0332,-2.0605,-2.0605,-2.0605,-2.0605,-2.0605,-2.0605,-2.0809,-2.1205,-2.1205,-2.1512,-2.2063,-2.1883,-2.2025,-2.2365,-2.2187,-2.2338,-2.2746,-2.3231,-2.3541,-2.3842,0.0,0.0,0.0,0.0,0.0,0.0,0.0,-2.6603,-2.6715,-2.7458,-2.7709,-2.7723,-2.7953,-2.7478,-2.686,-2.6592,-2.612,-2.5693,0.0,0.0,0.0,-2.6914,-2.7676,-2.8291,-2.8291,0.0,-2.8291,-2.8291,0.0,0.0,0.0,0.0,0.0,0.0,0.0,0.0,0.0,0.0,0.0,0.0,0.0,0.0,0.0,0.0,0.0,0.0,-2.8291,-2.8291,-2.8291,-2.8291,-2.8291,-2.8291,-2.8291,-2.8291,-2.8291,-2.8291,-2.8291,-2.8291,-2.8291,-2.8291,-2.8291,-2.8291,-2.8291,-2.8291,-2.8291,-2.8291,-2.8291,-2.8291,-2.8291,-2.8291,-2.8291,-2.8291,-2.8291,0.0,0.0,0.0,0.0,0.0,0.0,0.0,0.0,0.0,0.0,0.0,0.0,0.0,0.0,0.0,0.0,0.0,0.0,-1.9455,-1.9775,-2.0049,-2.04,-2.0537,-2.0605,-2.0605,-2.0605,-2.0605,-2.0605,-2.0605,-2.0731,-2.0984,-2.0984,-2.1177,-2.1474,-2.154,-2.1731,-2.2018,-2.2573,-2.2941,-2.3214,-2.3698,-2.4245,-2.477,0.0,0.0,0.0,0.0,0.0,0.0,0.0,0.0,0.0,-2.7019,-2.7317,-2.7413,-2.7495,-2.7109,-2.6534,-2.6294,-2.5965,0.0,-2.5693,0.0,0.0,0.0,-2.7451,0.0,0.0,0.0,-2.8291,-2.8291,0.0,0.0,0.0,0.0,0.0,0.0,0.0,0.0,0.0,0.0,0.0,0.0,0.0,0.0,0.0,0.0,0.0,0.0,-2.8291,-2.8291,-2.8291,-2.8291,-2.8291,-2.8291,-2.8291,-2.8291,-2.8291,-2.8291,-2.8291,-2.8291,-2.8291,-2.8291,-2.8291,-2.8291,-2.8291,-2.8291,-2.8291,-2.8291,-2.8291,-2.8291,-2.8291,-2.8291,-2.8291,-2.8291,-2.8291,0.0,0.0,0.0,0.0,0.0,0.0,0.0,0.0,0.0,0.0,0.0,0.0,0.0,0.0,0.0,0.0,0.0,0.0,0.0,-2.0078,-2.0293,-2.0595,-2.0605,-2.0605,-2.0605,-2.0605,-2.0605,-2.0605,-2.0605,-2.0693,-2.0906,-2.0906,-2.1022,-2.1215,-2.132,-2.1642,-2.2097,-2.2649,-2.3222,-2.3827,-2.4223,-2.4751,-2.5308,0.0,0.0,0.0,0.0,0.0,0.0,0.0,0.0,0.0,-2.7112,-2.7313,-2.7425,-2.7321,-2.6928,-2.6448,-2.6197,-2.5917,0.0,-2.5693,-2.5937,-2.6289,-2.6885,0.0,0.0,0.0,0.0,0.0,0.0,0.0,0.0,0.0,0.0,0.0,0.0,0.0,0.0,0.0,0.0,0.0,0.0,0.0,0.0,0.0,0.0,0.0,0.0,-2.8291,-2.8291,-2.8291,-2.8291,-2.8291,-2.8291,-2.8291,-2.8291,-2.8291,-2.8291,-2.8291,-2.8291,-2.8291,-2.8291,-2.8291,-2.8291,-2.8291,-2.8291,-2.8291,-2.8291,-2.8291,-2.8291,-2.8291,-2.8291,-2.8291,-2.8291,-2.8291,0.0,0.0,0.0,0.0,0.0,0.0,0.0,0.0,0.0,0.0,0.0,0.0,0.0,0.0,0.0,0.0,0.0,0.0,0.0,0.0,-2.0605,-2.0605,-2.0605,-2.0605,-2.0605,-2.0605,-2.0605,-2.0605,-2.0605,-2.0693,-2.0867,-2.0867,-2.0974,-2.1167,-2.1207,-2.1681,-2.2462,-2.2584,-2.329,-2.4404,-2.4697,-2.5096,-2.5447,-2.5523,0.0,0.0,0.0,0.0,0.0,0.0,0.0,0.0,-2.734,-2.7522,-2.7489,-2.7262,-2.6832,-2.64,-2.6149,0.0,0.0,-2.5693,-2.5713,0.0,0.0,0.0,0.0,0.0,0.0,0.0,0.0,0.0,0.0,0.0,0.0,0.0,0.0,0.0,0.0,0.0,0.0,0.0,0.0,0.0,0.0,0.0,0.0,0.0,0.0,-2.8291,-2.8291,-2.8291,-2.8291,-2.8291,-2.8291,-2.8291,-2.8291,-2.8291,-2.8291,-2.8291,-2.8291,-2.8291,-2.8291,-2.8291,-2.8291,-2.8291,-2.8291,-2.8291,-2.8291,-2.8291,-2.8291,-2.8291,-2.8291,-2.8252,-2.8232,-2.8232,0.0,0.0,0.0,0.0,0.0,0.0,0.0,0.0,0.0,0.0,0.0,0.0,0.0,0.0,0.0,0.0,0.0,0.0,0.0,0.0,-2.0605,-2.0605,-2.0605,-2.0605,-2.0605,-2.0605,-2.0605,-2.0605,-2.0605,-2.0605,-2.0654,-2.0654,-2.0683,-2.0741,-2.1214,-2.161,-2.2018,-2.3083,-2.3773,-2.4238,-2.486,-2.5093,-2.502,-2.5041,-2.4871,0.0,0.0,0.0,0.0,0.0,0.0,0.0,-2.6527,-2.6728,-2.6955,-2.6476,-2.6294,-2.6149,-2.5868,-2.5732,0.0,0.0,0.0,0.0,0.0,0.0,0.0,0.0,0.0,0.0,0.0,0.0,0.0,0.0,0.0,0.0,0.0,0.0,0.0,0.0,0.0,0.0,0.0,0.0,0.0,0.0,0.0,0.0,-2.8291,-2.8291,-2.8291,-2.8291,-2.8291,-2.8291,-2.8291,-2.8291,-2.8291,0.0,-2.8291,-2.8291,-2.8291,-2.8291,-2.8291,-2.8291,-2.8291,-2.8291,-2.8291,-2.8291,-2.8291,-2.8291,-2.8291,-2.8291,-2.8252,-2.792,-2.7855,-2.7806,0.0,0.0,0.0,0.0,0.0,0.0,0.0,0.0,0.0,0.0,0.0,0.0,0.0,0.0,0.0,0.0,0.0,0.0,0.0,0.0,-2.0605,-2.0605,-2.0605,-2.0605,-2.0605,-2.0605,-2.0605,-2.0605,-2.0605,-2.0605,-2.0605,-2.0605,-2.0605,-2.0625,-2.1115,-2.1579,-2.2059,-2.3061,-2.3813,-2.4325,-2.4935,-2.5158,-2.5052,-2.5284,-2.5164,-2.489,-2.5211,0.0,0.0,0.0,0.0,0.0,0.0,0.0,-2.663,-2.6245,-2.61,-2.6052,0.0,0.0,0.0,0.0,0.0,0.0,0.0,0.0,0.0,0.0,0.0,0.0,0.0,0.0,0.0,0.0,0.0,0.0,0.0,0.0,0.0,0.0,0.0,0.0,0.0,0.0,0.0,0.0,0.0,-2.8291,-2.8291,-2.8291,-2.8291,-2.8291,-2.8291,-2.8291,-2.8291,-2.8291,-2.8291,-2.8291,-2.8291,-2.8291,-2.8291,-2.8291,-2.8291,-2.8291,-2.8291,-2.8291,-2.8291,-2.8291,-2.8174,-2.7988,-2.7988,-2.7871,-2.7656,-2.7441,-2.7353,-2.7324,0.0,0.0,0.0,0.0,0.0,0.0,0.0,0.0,0.0,0.0,0.0,0.0,0.0,0.0,0.0,0.0,0.0,0.0,0.0,0.0,0.0,-2.0605,-2.0605,-2.0605,-2.0605,-2.0605,-2.0605,-2.0605,-2.0605,-2.0605,-2.0605,-2.0605,-2.0644,-2.0742,-2.1152,-2.1663,-2.2302,-2.2948,-2.3689,-2.4378,-2.4912,-2.5104,-2.5114,-2.5632,-2.5557,-2.5231,-2.5447,-2.5564,-2.5579,-2.5792,0.0,0.0,0.0,0.0,-2.6304,-2.61,-2.6052,-2.5955,0.0,0.0,0.0,0.0,0.0,0.0,0.0,0.0,0.0,0.0,0.0,0.0,0.0,0.0,0.0,0.0,0.0,0.0,0.0,0.0,0.0,0.0,0.0,0.0,0.0,0.0,0.0,0.0,0.0,-2.8291,-2.8291,-2.8291,-2.8291,-2.8291,-2.8291,-2.8291,-2.8291,-2.8291,-2.8291,-2.8291,-2.8291,-2.8252,-2.8184,-2.8184,-2.8223,-2.8291,-2.8223,-2.8184,-2.8174,-2.8105,-2.7871,-2.7559,-2.7559,-2.7334,-2.7002,-2.6934,-2.6904,-2.6894,0.0,0.0,0.0,0.0,0.0,0.0,0.0,0.0,0.0,0.0,0.0,0.0,0.0,0.0,0.0,0.0,0.0,0.0,-2.0605,0.0,0.0,-2.0605,-2.0605,-2.0605,-2.0605,-2.0605,-2.0605,-2.0605,-2.0605,-2.0605,-2.0605,-2.0605,-2.0771,-2.1122,-2.1602,-2.2031,-2.2503,-2.3193,-2.3531,-2.3707,-2.4517,-2.4768,-2.4642,-2.5323,-2.535,-2.5174,-2.5581,-2.5742,-2.5802,-2.6006,-2.6059,0.0,0.0,0.0,-2.5781,-2.5781,-2.5732,-2.5732,0.0,0.0,0.0,0.0,0.0,0.0,0.0,0.0,0.0,0.0,0.0,0.0,0.0,0.0,0.0,0.0,0.0,0.0,0.0,0.0,0.0,0.0,0.0,0.0,0.0,0.0,0.0,0.0,-2.8291,-2.8291,-2.8291,-2.8291,-2.8291,-2.8291,-2.8291,-2.8291,-2.8291,-2.8291,-2.8291,-2.8291,-2.8291,-2.8105,-2.7806,-2.7806,-2.7949,-2.8271,-2.791,-2.7806,-2.7777,-2.7344,-2.7158,-2.71,-2.71,-2.707,-2.6973,-2.6602,-2.6475,-2.6416,0.0,0.0,0.0,0.0,0.0,0.0,0.0,0.0,0.0,0.0,0.0,0.0,0.0,0.0,0.0,-2.0605,-2.0605,-2.0605,-2.0605,-2.0605,-2.0605,-2.0605,-2.0605,-2.0605,-2.0605,-2.0605,-2.0605,-2.0605,-2.0605,-2.0732,0.0,-2.0937,-2.1045,-2.122,-2.1934,-2.2344,-2.2539,-2.3229,-2.3642,-2.387,-2.4557,-2.4834,-2.4917,-2.5599,-2.5577,-2.5348,-2.5797,-2.5871,-2.5767,-2.5858,-2.5868,-2.5868,-2.5732,0.0,0.0,0.0,-2.5693,0.0,-2.5693,0.0,0.0,0.0,0.0,0.0,0.0,0.0,0.0,0.0,0.0,0.0,0.0,0.0,0.0,0.0,0.0,0.0,0.0,0.0,0.0,0.0,0.0,0.0,0.0,0.0,0.0,0.0,-2.8291,-2.8291,-2.8291,-2.8291,-2.8291,-2.8291,-2.8291,-2.8174,-2.7949,-2.7939,-2.7822,-2.7578,-2.7578,-2.748,-2.7305,-2.7305,-2.7402,-2.7568,-2.7383,-2.7305,-2.7285,-2.709,-2.6875,-2.666,-2.666,-2.6514,-2.623,-2.6094,-2.6025,-2.5996,0.0,0.0,0.0,0.0,0.0,0.0,0.0,0.0,0.0,0.0,0.0,0.0,0.0,0.0,0.0,0.0,-2.0605,-2.0605,-2.0605,-2.0605,-2.0605,-2.0605,-2.0605,-2.0605,-2.0605,-2.0605,-2.0605,-2.0605,-2.0713,-2.0908,-2.12,-2.1414,-2.1522,0.0,-2.2227,-2.2568,-2.2695,-2.3309,-2.3762,-2.4068,-2.4656,-2.4992,-2.5185,-2.5775,-2.5804,-2.5512,-2.5885,-2.5868,-2.5693,-2.5693,-2.5693,-2.5693,-2.5693,-2.5693,0.0,0.0,0.0,0.0,0.0,0.0,0.0,0.0,0.0,0.0,0.0,0.0,0.0,0.0,0.0,0.0,0.0,0.0,0.0,0.0,0.0,0.0,0.0,0.0,0.0,0.0,0.0,0.0,0.0,0.0,0.0,0.0,-2.8291,-2.8291,-2.8291,-2.8193,-2.8135,-2.8135,-2.8027,-2.7822,-2.751,-2.75,-2.7334,-2.7012,-2.7012,-2.6963,-2.6855,-2.6855,-2.6797,-2.6699,-2.6807,-2.6855,-2.6846,-2.6738,-2.6504,-2.6221,-2.6221,-2.6025,-2.5693,-2.5693,-2.5693,-2.5693,0.0,0.0,0.0,0.0,0.0,0.0,0.0,0.0,0.0,0.0,0.0,0.0,-2.0605,-2.0605,-2.0605,-2.0605,-2.0605,-2.0605,-2.0605,-2.0605,-2.0605,-2.0605,-2.0605,0.0,-2.0605,-2.0605,-2.0605,-2.0605,0.0,0.0,-2.121,-2.207,-2.2451,-2.2451,-2.249,-2.2691,-2.3091,0.0,0.0,0.0,0.0,-2.5104,-2.5135,-2.5575,-2.5703,-2.5703,-2.5723,-2.5684,-2.5693,-2.5693,-2.5693,-2.5693,0.0,0.0,0.0,0.0,0.0,0.0,0.0,0.0,0.0,0.0,0.0,0.0,0.0,0.0,0.0,0.0,0.0,0.0,0.0,0.0,0.0,0.0,0.0,0.0,0.0,0.0,0.0,0.0,0.0,0.0,0.0,0.0,0.0,0.0,-2.8291,-2.8291,-2.8291,-2.792,-2.7748,-2.7748,-2.7295,-2.707,-2.7051,-2.7051,-2.7041,-2.7012,-2.7012,-2.6807,-2.6426,-2.6426,-2.6201,-2.5771,-2.624,-2.6426,-2.6387,-2.5977,-2.5742,-2.5723,-2.5723,-2.5703,-2.5693,-2.5693,-2.5693,-2.5693,0.0,0.0,0.0,0.0,0.0,0.0,0.0,0.0,0.0,0.0,0.0,0.0,0.0,-2.0605,-2.0605,-2.0605,-2.0605,-2.0605,-2.0605,-2.0605,-2.0605,-2.0605,-2.0605,-2.0605,-2.0605,-2.0605,-2.0742,0.0,0.0,-2.1473,-2.206,-2.2363,-2.2656,-2.2877,-2.2877,-2.2955,-2.312,-2.3603,0.0,0.0,0.0,0.0,0.0,0.0,0.0,0.0,0.0,0.0,0.0,0.0,0.0,0.0,0.0,0.0,0.0,0.0,0.0,0.0,0.0,0.0,0.0,0.0,0.0,0.0,0.0,0.0,0.0,0.0,0.0,0.0,0.0,0.0,0.0,0.0,0.0,0.0,0.0,0.0,0.0,0.0,0.0,0.0,0.0,0.0,0.0,0.0,0.0,-2.7773,-2.749,-2.7334,-2.7246,-2.7246,-2.71,-2.6885,-2.6621,-2.6338,-2.6152,-2.6152,-2.6152,-2.6064,-2.5967,-2.5967,-2.584,-2.5693,-2.5908,-2.5967,-2.5957,-2.5752,-2.5693,-2.5693,-2.5693,-2.5693,-2.5693,-2.5693,-2.5693,-2.5693,0.0,0.0,0.0,0.0,0.0,0.0,0.0,0.0,0.0,0.0,0.0,0.0,0.0,0.0,-2.0605,-2.0605,-2.0605,-2.0605,-2.0605,-2.0605,-2.0605,-2.0605,-2.0605,-2.0605,-2.0605,-2.0752,-2.0937,0.0,0.0,0.0,0.0,-2.2656,-2.2828,-2.3101,-2.3247,-2.3315,0.0,0.0,0.0,-2.4678,0.0,0.0,-2.5693,0.0,0.0,0.0,0.0,0.0,0.0,0.0,0.0,0.0,0.0,0.0,0.0,0.0,0.0,0.0,0.0,0.0,0.0,0.0,0.0,0.0,0.0,0.0,0.0,0.0,0.0,0.0,0.0,0.0,0.0,0.0,0.0,0.0,0.0,0.0,0.0,0.0,0.0,0.0,0.0,0.0,0.0,0.0,0.0,0.0,-2.7031,-2.6885,-2.6738,-2.6592,-2.6582,-2.6455,-2.6172,-2.5879,-2.5693,-2.5693,-2.5693,-2.5693,-2.5693,-2.5693,-2.5693,-2.5693,-2.5693,-2.5693,-2.5693,-2.5693,-2.5693,-2.5693,-2.5693,-2.5693,-2.5693,-2.5693,-2.5693,-2.5693,0.0,0.0,0.0,0.0,0.0,0.0,0.0,0.0,0.0,-2.0605,0.0,0.0,0.0,0.0,0.0,-2.0605,-2.0615,-2.0625,-2.0625,-2.0635,-2.0644,-2.0644,-2.0644,-2.0644,-2.0644,0.0,0.0,0.0,0.0,0.0,0.0,0.0,-2.3101,-2.313,-2.3603,-2.3799,-2.3857,0.0,-2.4678,-2.5155,0.0,-2.5693,-2.5693,0.0,0.0,0.0,-2.5693,-2.5693,0.0,-2.5693,0.0,0.0,0.0,0.0,0.0,0.0,0.0,0.0,0.0,0.0,0.0,0.0,0.0,0.0,0.0,0.0,0.0,0.0,0.0,0.0,0.0,0.0,0.0,0.0,0.0,0.0,0.0,0.0,0.0,0.0,0.0,0.0,0.0,0.0,0.0,0.0,-2.6992,-2.6992,-2.6982,-2.6592,-2.6172,-2.5703,-2.5693,-2.5693,-2.5693,-2.5693,-2.5693,-2.5693,-2.5693,-2.5693,-2.5693,-2.5693,-2.5693,-2.5693,-2.5693,-2.5693,-2.5693,-2.5693,-2.5693,-2.5693,-2.5693,-2.5693,-2.5693,-2.5693,-2.5693,-2.5693,0.0,0.0,0.0,0.0,0.0,0.0,0.0,0.0,-2.0605,0.0,0.0,0.0,-2.0605,-2.0605,-2.0605,-2.0605,-2.0859,-2.1045,-2.1045,-2.1348,-2.1564,-2.1564,-2.1564,-2.1564,-2.1564,-2.1641,-2.1855,-2.2158,-2.2393,-2.2666,-2.2925,-2.3042,0.0,0.0,-2.374,-2.4131,-2.4763,-2.4844,0.0,-2.5155,-2.5557,-2.5693,0.0,0.0,0.0,0.0,0.0,-2.5693,-2.5693,0.0,-2.5693,-2.5693,0.0,0.0,0.0,0.0,0.0,0.0,-2.5693,0.0,0.0,0.0,0.0,0.0,0.0,0.0,0.0,0.0,0.0,0.0,0.0,0.0,0.0,0.0,0.0,0.0,0.0,0.0,0.0,0.0,0.0,0.0,0.0,0.0,0.0,0.0,-2.6562,-2.6426,-2.6064,-2.5937,-2.581,-2.5693,-2.5693,-2.5693,-2.5693,-2.5693,-2.5693,-2.5693,-2.5693,-2.5693,-2.5693,-2.5693,-2.5693,-2.5693,-2.5693,-2.5693,-2.5693,-2.5693,-2.5693,-2.5693,-2.5693,-2.5693,-2.5693,-2.5693,-2.5693,-2.5693,0.0,0.0,0.0,0.0,0.0,0.0,0.0,0.0,-2.0605,0.0,0.0,0.0,-2.082,-2.1006,-2.1153,-2.1153,-2.1357,-2.1504,-2.1504,-2.1748,-2.1885,-2.1885,-2.1885,-2.1885,-2.1885,-2.206,-2.2266,-2.251,-2.2685,-2.2857,-2.3101,-2.3276,0.0,0.0,0.0,0.0,0.0,0.0,0.0,0.0,-2.5635,0.0,0.0,-2.5693,-2.5693,0.0,0.0,0.0,-2.5693,-2.5693,-2.5693,0.0,0.0,0.0,0.0,0.0,0.0,0.0,0.0,0.0,0.0,0.0,0.0,0.0,-2.5693,-2.5693,0.0,0.0,0.0,0.0,0.0,0.0,0.0,0.0,0.0,0.0,0.0,0.0,0.0,0.0,0.0,0.0,0.0,-2.6484,-2.6377,-2.6133,-2.6113,-2.6006,-2.5703,-2.5693,-2.5693,-2.5693,-2.5693,-2.5693,-2.5693,-2.5693,-2.5693,-2.5693,-2.5693,-2.5693,-2.5693,-2.5693,-2.5693,-2.5693,-2.5693,-2.5693,-2.5693,-2.5693,-2.5693,-2.5693,-2.5693,-2.5693,-2.5693,-2.5693,-2.5693,-2.5693,0.0,0.0,0.0,0.0,0.0,0.0,0.0,0.0,0.0,0.0,-2.0723,-2.0869,-2.122,-2.165,-2.1885,-2.1885,-2.1924,-2.1953,-2.1953,-2.2002,-2.2021,-2.2021,-2.2021,-2.2021,-2.2021,-2.2393,-2.2578,-2.2578,-2.2916,-2.312,-2.3179,-2.3603,-2.3838,0.0,0.0,0.0,0.0,0.0,0.0,-2.5693,-2.5693,-2.5693,0.0,0.0,-2.5693,-2.5693,-2.5693,-2.5693,-2.5693,-2.5693,-2.5693,0.0,0.0,0.0,0.0,0.0,-2.5693,0.0,0.0,0.0,0.0,0.0,0.0,0.0,-2.5693,-2.5693,-2.5693,0.0,0.0,0.0,0.0,0.0,0.0,0.0,0.0,0.0,0.0,0.0,0.0,0.0,0.0,0.0,-2.5693,-2.5693,-2.5693,-2.5693,-2.5693,-2.5693,-2.5693,-2.5693,-2.5693,-2.5693,-2.5693,-2.5693,-2.5693,-2.5693,-2.5693,-2.5693,-2.5693,-2.5693,-2.5693,-2.5693,-2.5693,-2.5693,-2.5693,-2.5693,-2.5693,-2.5693,-2.5693,-2.5693,-2.5693,-2.5693,-2.5693,-2.5693,-2.5693,-2.5693,-2.0605,0.0,0.0,0.0,0.0,0.0,0.0,0.0,0.0,-2.1055,-2.1406,-2.166,-2.1748,-2.1836,-2.1885,-2.1885,-2.2197,-2.2393,-2.2393,-2.2705,-2.2847,-2.2847,-2.2847,-2.2847,-2.2847,-2.2925,-2.2974,-2.2974,-2.3052,-2.3276,-2.3662,0.0,0.0,0.0,0.0,0.0,0.0,0.0,0.0,-2.5693,-2.5693,0.0,-2.5693,-2.5693,-2.5693,-2.5693,-2.5693,-2.5693,-2.5693,-2.5693,-2.5693,-2.5693,0.0,0.0,0.0,0.0,0.0,0.0,0.0,0.0,0.0,0.0,0.0,0.0,-2.5693,-2.5693,-2.5693,0.0,0.0,0.0,0.0,0.0,0.0,0.0,0.0,0.0,0.0,0.0,0.0,0.0,0.0,0.0,-2.5693,-2.5693,-2.5693,-2.5693,-2.5693,-2.5693,-2.5693,-2.5693,-2.5693,-2.5693,-2.5693,-2.5693,-2.5693,-2.5693,-2.5693,-2.5693,-2.5693,-2.5693,-2.5693,-2.5693,-2.5693,-2.5693,-2.5693,-2.5693,-2.5693,-2.5693,-2.5693,-2.5693,-2.5693,-2.5693,-2.5693,-2.5693,-2.5693,-2.5693,-2.0605,0.0,0.0,0.0,0.0,0.0,0.0,0.0,0.0,-2.1533,-2.1934,-2.2197,-2.2197,-2.2383,-2.251,-2.251,-2.2662,-2.2779,-2.2779,-2.2974,-2.3091,-2.3091,-2.3091,-2.3091,-2.3091,-2.3305,-2.3467,-2.3467,-2.3627,-2.3887,-2.4111,0.0,0.0,0.0,0.0,0.0,0.0,0.0,-2.5693,-2.5693,-2.5693,0.0,-2.5693,-2.5693,-2.5693,-2.5693,-2.5693,-2.5693,-2.5693,-2.5693,-2.5693,0.0,0.0,-2.5693,-2.5693,0.0,-2.5693,-2.5693,0.0,0.0,0.0,-2.5693,0.0,0.0,0.0,-2.5693,-2.5693,-2.5693,0.0,0.0,0.0,0.0,0.0,0.0,0.0,0.0,0.0,0.0,0.0,0.0,0.0,0.0,-2.5693,-2.5693,-2.5693,-2.5693,-2.5693,-2.5693,-2.5693,-2.5693,-2.5693,-2.5693,-2.5693,-2.5693,-2.5693,-2.5693,-2.5693,-2.5693,-2.5693,-2.5693,-2.5693,-2.5693,-2.5693,-2.5693,-2.5693,-2.5693,-2.5693,-2.5693,-2.5693,-2.5693,-2.5693,-2.5693,-2.5693,-2.5693,-2.5693,-2.5693,-2.086,0.0,0.0,0.0,0.0,0.0,0.0,0.0,0.0,-2.1992,-2.2373,-2.2637,-2.2637,0.0,0.0,0.0,-2.3091,-2.313,0.0,0.0,-2.3257,-2.3335,-2.3335,-2.3335,-2.3335,-2.373,-2.3906,-2.3906,-2.4248,-2.4463,0.0,0.0,0.0,0.0,0.0,0.0,0.0,0.0,0.0,-2.5693,0.0,-2.5693,-2.5693,-2.5693,-2.5693,-2.5693,-2.5693,-2.5693,-2.5693,-2.5693,-2.5693,-2.5693,-2.5693,-2.5693,0.0,0.0,0.0,0.0,0.0,0.0,0.0,0.0,0.0,-2.5693,0.0,0.0,0.0,-2.5693,0.0,0.0,0.0,0.0,0.0,0.0,0.0,0.0,0.0,0.0,0.0,0.0,0.0,0.0,0.0,-2.5693,-2.5693,-2.5693,-2.5693,-2.5693,-2.5693,-2.5693,-2.5693,-2.5693,-2.5693,-2.5693,-2.5693,-2.5693,-2.5693,-2.5693,-2.5693,-2.5693,-2.5693,-2.5693,-2.5693,-2.5693,-2.5693,-2.5693,-2.5693,-2.5693,-2.5693,-2.5693,-2.5693,-2.5693,-2.5693,-2.5693,-2.5693,-2.5693,-2.1738,-2.1738,0.0,0.0,0.0,0.0,0.0,0.0,0.0,0.0,0.0,0.0,0.0,0.0,0.0,0.0,0.0,0.0,-2.3691,0.0,0.0,-2.4258,-2.4268,-2.4268,-2.4268,-2.4316,-2.4346,-2.4346,-2.4394,-2.4609,0.0,0.0,0.0,0.0,-2.5664,0.0,0.0,0.0,-2.5693,0.0,-2.5693,-2.5693,0.0,-2.5693,-2.5693,-2.5693,-2.5693,-2.5693,-2.5693,0.0,-2.5693,-2.5693,0.0,-2.5693,-2.5693,0.0,0.0,0.0,0.0,0.0,0.0,0.0,-2.5693,0.0,0.0,0.0,-2.5693,-2.5693,0.0,0.0,0.0,0.0,0.0,0.0,0.0,0.0,0.0,0.0,0.0,0.0,0.0,0.0,0.0,-2.5693,-2.5693,-2.5693,-2.5693,-2.5693,-2.5693,-2.5693,-2.5693,-2.5693,-2.5693,-2.5693,-2.5693,-2.5693,-2.5693,-2.5693,-2.5693,-2.5693,-2.5693,-2.5693,-2.5693,-2.5693,-2.5693,-2.5693,-2.5693,-2.5693,-2.5693,-2.5693,-2.5693,-2.5693,-2.5693,-2.5693,-2.5693,-2.5693,-2.1982,-2.1885,0.0,0.0,0.0,0.0,0.0,0.0,0.0,0.0,0.0,0.0,0.0,0.0,0.0,0.0,0.0,-2.3955,0.0,0.0,0.0,0.0,0.0,-2.4414,-2.4414,-2.4668,-2.4795,-2.4795,-2.5059,-2.5273,0.0,0.0,0.0,0.0,-2.5693,0.0,-2.5693,0.0,-2.5693,0.0,0.0,0.0,0.0,-2.5693,-2.5693,-2.5693,-2.5693,-2.5693,-2.5693,0.0,-2.5693,0.0,0.0,0.0,0.0,0.0,0.0,0.0,0.0,0.0,0.0,0.0,0.0,0.0,-2.5693,0.0,-2.5693,0.0,0.0,0.0,0.0,0.0,0.0,0.0,0.0,0.0,0.0,0.0,0.0,0.0,0.0,0.0,0.0,0.0,0.0,0.0,-2.5693,-2.5693,-2.5693,-2.5693,-2.5693,-2.5693,-2.5693,-2.5693,-2.5693,-2.5693,-2.5693,-2.5693,-2.5693,-2.5693,-2.5693,-2.5693,-2.5693,-2.5693,-2.5693,-2.5693,-2.5693,-2.5693,-2.5693,-2.5693,-2.5693,-2.5693,-2.5693,-2.5693,-2.5693,-2.5693,-2.2344,0.0,0.0,0.0,0.0,0.0,0.0,0.0,0.0,0.0,0.0,0.0,-2.4385,-2.4414,0.0,0.0,-2.4414,-2.4473,0.0,0.0,-2.4648,0.0,0.0,0.0,0.0,-2.5088,-2.5254,-2.5254,-2.5576,-2.5693,0.0,0.0,0.0,0.0,0.0,-2.5693,-2.5693,0.0,0.0,-2.5693,-2.5693,-2.5693,-2.5693,-2.5693,-2.5693,-2.5693,-2.5693,-2.5693,-2.5693,-2.5693,-2.5693,0.0,-2.5693,0.0,0.0,0.0,0.0,0.0,-2.5693,0.0,0.0,0.0,0.0,0.0,0.0,0.0,0.0,0.0,0.0,0.0,0.0,0.0,0.0,0.0,0.0,0.0,0.0,0.0,0.0,0.0,0.0,0.0,0.0,0.0,0.0,-2.5693,-2.5693,-2.5693,-2.5693,-2.5693,-2.5693,-2.5693,-2.5693,-2.5693,-2.5693,-2.5693,-2.5693,-2.5693,-2.5693,-2.5693,-2.5693,-2.5693,-2.5693,-2.5693,-2.5693,-2.5693,-2.5693,-2.5693,-2.5693,-2.5693,-2.5693,-2.5693,-2.5693,-2.5693,-2.5693,-2.5693,-2.3062,-2.3052,0.0,0.0,0.0,0.0,0.0,0.0,0.0,0.0,0.0,0.0,0.0,0.0,0.0,0.0,0.0,-2.459,-2.5067,0.0,-2.5244,0.0,0.0,-2.5645,0.0,0.0,-2.5664,-2.5664,-2.5684,0.0,0.0,0.0,0.0,0.0,0.0,-2.5693,-2.5693,-2.5693,-2.5693,-2.5693,-2.5693,-2.5693,-2.5693,0.0,-2.5693,-2.5693,-2.5693,0.0,0.0,-2.5693,-2.5693,0.0,0.0,0.0,0.0,0.0,0.0,0.0,0.0,0.0,0.0,-2.5693,0.0,0.0,0.0,0.0,-2.5693,0.0,0.0,0.0,0.0,0.0,0.0,0.0,0.0,0.0,0.0,0.0,0.0,0.0,0.0,0.0,0.0,0.0,0.0,-2.5693,-2.5693,-2.5693,-2.5693,-2.5693,-2.5693,-2.5693,-2.5693,-2.5693,-2.5693,-2.5693,-2.5693,-2.5693,-2.5693,-2.5693,-2.5693,-2.5693,-2.5693,-2.5693,-2.5693,-2.5693,-2.5693,-2.5693,-2.5693,-2.5693,-2.5693,-2.5693,-2.5693,-2.5693,-2.5693,-2.5693,0.0,0.0,0.0,0.0,0.0,0.0,0.0,-2.3926,0.0,0.0,0.0,0.0,0.0,-2.5245,-2.5245,0.0,0.0,-2.5304,-2.5508,-2.5508,0.0,0.0,0.0,-2.5693,0.0,0.0,0.0,0.0,0.0,0.0,0.0,0.0,0.0,0.0,0.0,-2.5693,0.0,0.0,0.0,0.0,0.0,-2.5693,-2.5693,0.0,0.0,-2.5693,-2.5693,-2.5693,0.0,-2.5693,-2.5693,-2.5693,-2.5693,-2.5693,-2.5693,-2.5693,-2.5693,0.0,0.0,0.0,-2.5693,-2.5693,0.0,0.0,0.0,0.0,0.0,0.0,0.0,0.0,0.0,0.0,0.0,0.0,0.0,0.0,0.0,0.0,0.0,0.0,0.0,0.0,0.0,0.0,0.0,-2.5693,-2.5693,-2.5693,-2.5693,-2.5693,-2.5693,-2.5693,-2.5693,-2.5693,-2.5693,-2.5693,-2.5693,-2.5693,-2.5693,-2.5693,-2.5693,-2.5693,-2.5693,-2.5693,-2.5693,-2.5693,-2.5693,-2.5693,-2.5693,-2.5693,-2.5693,-2.5693,-2.5693,-2.5693,-2.5693,-2.5693,-2.3549,0.0,0.0,0.0,0.0,0.0,0.0,0.0,0.0,0.0,-2.5205,0.0,-2.5654,0.0,-2.5693,0.0,-2.5693,-2.5693,-2.5693,-2.5693,0.0,-2.5693,-2.5693,0.0,0.0,0.0,0.0,0.0,0.0,-2.5693,0.0,0.0,0.0,0.0,0.0,0.0,-2.5693,0.0,-2.5693,0.0,0.0,-2.5693,0.0,0.0,-2.5693,-2.5693,0.0,-2.5693,-2.5693,-2.5693,-2.5693,-2.5693,-2.5693,-2.5693,-2.5693,-2.5693,-2.5693,-2.5693,-2.5693,-2.5693,0.0,-2.5693,-2.5693,0.0,-2.5693,0.0,0.0,0.0,0.0,0.0,0.0,0.0,0.0,0.0,0.0,0.0,0.0,-2.5693,0.0,0.0,0.0,0.0,0.0,0.0,-2.5693,-2.5693,-2.5693,-2.5693,0.0,0.0,-2.5693,-2.5693,-2.5693,-2.5693,-2.5693,-2.5693,-2.5693,-2.5693,-2.5693,-2.5693,-2.5693,-2.5693,-2.5693,-2.5693,-2.5693,-2.5693,-2.5693,-2.5693,-2.5693,-2.5693,-2.5693,-2.5693,-2.5693,-2.5693,-2.5693,-2.5693,0.0,0.0,0.0,0.0,-2.418,0.0,0.0,0.0,-2.5145,0.0,-2.5478,-2.5693,-2.5693,-2.5693,-2.5693,-2.5693,-2.5693,-2.5693,-2.5693,-2.5693,0.0,0.0,-2.5693,-2.5693,-2.5693,0.0,0.0,0.0,0.0,0.0,0.0,0.0,0.0,0.0,-2.5693,0.0,-2.5693,-2.5693,-2.5693,-2.5693,-2.5693,-2.5693,-2.5693,-2.5693,-2.5693,-2.5693,-2.5693,-2.5693,-2.5693,-2.5693,-2.5693,-2.5693,-2.5693,-2.5693,-2.5693,-2.5693,-2.5693,-2.5693,-2.5693,-2.5693,-2.5693,-2.5693,0.0,0.0,0.0,0.0,-2.5693,0.0,0.0,0.0,0.0,0.0,0.0,0.0,0.0,0.0,0.0,0.0,0.0,0.0,0.0,0.0,0.0,-2.5693,-2.5693,-2.5693,-2.5693,0.0,0.0,0.0,-2.5693,-2.5693,-2.5693,-2.5693,-2.5693,-2.5693,-2.5693,-2.5693,-2.5693,-2.5693,-2.5693,-2.5693,-2.5693,-2.5693,-2.5693,-2.5693,-2.5693,-2.5693,-2.5693,-2.5693,-2.5693,-2.5693,-2.5693,-2.5693,-2.5693,-2.5693,-2.4414,-2.4678,-2.4863,0.0,-2.4824,-2.4902,0.0,0.0,0.0,0.0,-2.5615,-2.5693,-2.5693,-2.5693,-2.5693,-2.5693,-2.5693,0.0,0.0,0.0,0.0,-2.5693,-2.5693,-2.5693,-2.5693,-2.5693,0.0,-2.5693,0.0,0.0,-2.5693,0.0,0.0,0.0,0.0,0.0,-2.5693,-2.5693,-2.5693,-2.5693,-2.5693,-2.5693,0.0,0.0,-2.5693,-2.5693,-2.5693,-2.5693,-2.5693,-2.5693,-2.5693,-2.5693,-2.5693,-2.5693,-2.5693,-2.5693,-2.5693,-2.5693,-2.5693,-2.5693,-2.5693,-2.5693,-2.5693,-2.5693,0.0,0.0,0.0,0.0,0.0,0.0,0.0,0.0,0.0,0.0,0.0,0.0,0.0,0.0,0.0,-2.5693,0.0,0.0,0.0,-2.5693,-2.5693,-2.5693,-2.5693,0.0,0.0,0.0,0.0,-2.5693,-2.5693,-2.5693,-2.5693,-2.5693,-2.5693,-2.5693,-2.5693,-2.5693,-2.5693,-2.5693,-2.5693,-2.5693,-2.5693,-2.5693,-2.5693,-2.5693,-2.5693,-2.5693,-2.5693,-2.5693,-2.5693,-2.5693,-2.5693,-2.5693,-2.4953,0.0,0.0,-2.5361,0.0,0.0,-2.5361,0.0,0.0,-2.5693,-2.5693,0.0,-2.5693,-2.5693,-2.5693,-2.5693,-2.5693,0.0,-2.5693,0.0,0.0,-2.5693,-2.5693,-2.5693,-2.5693,-2.5693,0.0,-2.5693,0.0,0.0,-2.5693,0.0,0.0,0.0,0.0,-2.5693,0.0,-2.5693,-2.5693,-2.5693,-2.5693,0.0,0.0,-2.5693,-2.5693,-2.5693,-2.5693,-2.5693,-2.5693,-2.5693,-2.5693,-2.5693,-2.5693,-2.5693,-2.5693,-2.5693,-2.5693,-2.5693,-2.5693,-2.5693,-2.5693,-2.5693,-2.5693,-2.5693,-2.5693,-2.5693,-2.5693,0.0,0.0,0.0,0.0,0.0,0.0,0.0,0.0,0.0,0.0,0.0,0.0,0.0,-2.5693,0.0,0.0,0.0,-2.5693,-2.5693,0.0,0.0,0.0,0.0,0.0,-2.5693,-2.5693,-2.5693,-2.5693,-2.5693,-2.5693,-2.5693,-2.5693,-2.5693,-2.5693,-2.5693,-2.5693,-2.5693,-2.5693,-2.5693,-2.5693,-2.5693,-2.5693,-2.5693,-2.5693,-2.5693,-2.5693,-2.5693,-2.5693,-2.5693,0.0,0.0,0.0,0.0,0.0,0.0,0.0,-2.5693,0.0,-2.5693,0.0,-2.5713,-2.5762,-2.5771,-2.5791,-2.5849,0.0,-2.5859,-2.5859,-2.5801,-2.5771,-2.5771,-2.5713,-2.5693,-2.5693,-2.5693,0.0,0.0,0.0,0.0,0.0,0.0,0.0,0.0,0.0,0.0,0.0,-2.5693,-2.5693,-2.5693,-2.5693,-2.5693,-2.5693,-2.5693,-2.5693,-2.5693,-2.5693,-2.5693,-2.5693,-2.5693,-2.5693,-2.5693,-2.5693,-2.5693,-2.5693,-2.5693,-2.5693,-2.5693,-2.5693,-2.5693,-2.5693,-2.5693,-2.5693,-2.5693,-2.5693,-2.5693,-2.5693,-2.5693,-2.5693,-2.5693,0.0,0.0,0.0,0.0,0.0,0.0,0.0,0.0,0.0,0.0,0.0,0.0,0.0,0.0,0.0,0.0,0.0,0.0,0.0,0.0,0.0,-2.5693,-2.5693,-2.5693,-2.5693,0.0,-2.5693,-2.5693,-2.5693,-2.5693,-2.5693,-2.5693,-2.5693,-2.5693,-2.5693,-2.5693,-2.5693,-2.5693,-2.5693,-2.5693,-2.5693,-2.5693,-2.5693,-2.5693,-2.5693,-2.5693,0.0,0.0,0.0,0.0,0.0,-2.5693,-2.5693,-2.5693,-2.5693,-2.5693,-2.5693,-2.583,-2.624,-2.6279,-2.6416,-2.6758,-2.6787,0.0,0.0,0.0,0.0,-2.6279,-2.5928,-2.5693,-2.5693,-2.5693,-2.5693,0.0,0.0,0.0,0.0,0.0,0.0,0.0,0.0,0.0,-2.5693,-2.5693,0.0,-2.5693,-2.5693,-2.5693,-2.5693,-2.5693,-2.5693,-2.5693,-2.5693,-2.5693,-2.5693,-2.5693,-2.5693,-2.5693,-2.5693,-2.5693,-2.5693,-2.5693,-2.5693,-2.5693,-2.5693,-2.5693,-2.5693,-2.5693,-2.5693,-2.5693,-2.5693,-2.5693,-2.5693,-2.5693,-2.5693,-2.5693,-2.5693,0.0,0.0,0.0,0.0,0.0,0.0,0.0,0.0,0.0,0.0,0.0,0.0,0.0,0.0,0.0,0.0,0.0,0.0,0.0,0.0,0.0,-2.5693,0.0,0.0,0.0,-2.5693,-2.5693,-2.5693,-2.5693,-2.5693,-2.5693,-2.5693,-2.5693,-2.5693,-2.5693,-2.5693,-2.5693,-2.5693,-2.5693,-2.5693,-2.5693,-2.5693,-2.5693,-2.5693,-2.5693,0.0,0.0,0.0,0.0,0.0,0.0,0.0,-2.6074,0.0,-2.6074,-2.6074,-2.624,-2.667,-2.6709,-2.6797,-2.6992,-2.7012,-2.7012,-2.7012,-2.6826,-2.6709,-2.6709,-2.6299,0.0,-2.6074,-2.5801,-2.5693,-2.5693,0.0,0.0,0.0,0.0,0.0,0.0,0.0,-2.5693,0.0,0.0,0.0,-2.5693,-2.5693,-2.5693,-2.5693,-2.5693,-2.5693,-2.5693,-2.5693,-2.5693,-2.5693,-2.5693,-2.5693,-2.5693,-2.5693,-2.5693,-2.5693,-2.5693,-2.5693,-2.5693,-2.5693,-2.5693,-2.5693,-2.5693,-2.5693,-2.5693,-2.5693,-2.5693,-2.5693,-2.5693,-2.5693,-2.5693,-2.5693,-2.5693,0.0,0.0,0.0,0.0,0.0,0.0,0.0,0.0,0.0,0.0,0.0,0.0,0.0,0.0,0.0,0.0,0.0,0.0,0.0,0.0,0.0,0.0,0.0,0.0,0.0,-2.5693,-2.5693,-2.5567,-2.54,-2.5586,-2.5605,-2.54,-2.5586,-2.5693,-2.5693,-2.5693,-2.5693,-2.5693,-2.5693,-2.5693,-2.5693,-2.5693,-2.5693,-2.5693,0.0,-2.5333,0.0,0.0,-2.5762,0.0,-2.6338,-2.6465,-2.6523,-2.6523,-2.6523,-2.668,-2.7109,-2.7148,-2.7187,-2.7275,-2.7285,-2.7285,-2.7285,-2.7207,-2.7148,-2.7148,-2.6748,-2.6484,-2.6387,-2.6055,-2.5781,0.0,0.0,0.0,0.0,0.0,0.0,0.0,0.0,0.0,0.0,0.0,-2.5693,-2.5693,-2.5693,-2.5693,-2.5693,-2.5693,-2.5693,-2.5693,-2.5693,-2.5693,-2.5693,-2.5693,-2.5693,-2.5693,-2.5693,-2.5693,-2.5693,-2.5693,-2.5693,-2.5693,-2.5693,-2.5693,-2.5693,-2.5693,-2.5693,-2.5693,-2.5693,-2.5693,-2.5693,-2.5693,-2.5693,-2.5693,-2.5693,-2.5693,0.0,0.0,0.0,0.0,0.0,0.0,0.0,0.0,0.0,0.0,0.0,0.0,0.0,0.0,0.0,0.0,0.0,0.0,0.0,0.0,0.0,-2.5693,-2.5693,0.0,-2.5693,-2.5693,-2.5596,-2.541,-2.5125,-2.5332,-2.5312,-2.5135,-2.5439,-2.5596,-2.5693,-2.5693,-2.5693,-2.5693,-2.5693,-2.5693,-2.5693,-2.5693,-2.5693,-2.5693,0.0,0.0,0.0,0.0,0.0,0.0,-2.6387,-2.6709,-2.6953,-2.6953,-2.6953,-2.7119,-2.7559,-2.7607,-2.7764,-2.8144,-2.8174,-2.8174,-2.8174,-2.7822,-2.7607,-2.7607,-2.7187,-2.6777,-2.6396,-2.6348,-2.6133,0.0,0.0,-2.5693,0.0,0.0,0.0,0.0,0.0,0.0,0.0,-2.5693,-2.5693,-2.5693,-2.5693,-2.5693,-2.5693,-2.5693,-2.5693,-2.5693,-2.5693,-2.5693,-2.5693,-2.5693,-2.5693,-2.5693,-2.5693,-2.5693,-2.5693,-2.5693,-2.5693,-2.5693,-2.5693,-2.5693,-2.5693,-2.5693,-2.5693,-2.5693,-2.5693,-2.5693,-2.5693,-2.5693,-2.5693,-2.5693,-2.5693,-2.5693,-2.5693,0.0,0.0,0.0,0.0,0.0,0.0,0.0,0.0,0.0,0.0,-2.5693,0.0,0.0,0.0,0.0,0.0,0.0,0.0,-2.5693,0.0,-2.5693,-2.5693,-2.5693,-2.5693,-2.5684,-2.5322,-2.5155,-2.5106,-2.4707,-2.4736,-2.5116,-2.5165,-2.5361,-2.5693,-2.5693,-2.5693,-2.5693,-2.5693,-2.5693,-2.5693,-2.5693,-2.5693,-2.5693,0.0,0.0,0.0,0.0,0.0,0.0,0.0,-2.7295,-2.75,-2.7744,-2.7568,-2.7568,-2.7998,-2.8047,-2.8105,-2.8281,-2.8291,-2.8291,-2.8291,-2.8135,-2.8047,-2.8047,-2.7637,-2.7324,-2.7158,-2.665,-2.6309,0.0,0.0,0.0,0.0,0.0,0.0,0.0,0.0,-2.5693,-2.5693,-2.5693,-2.5693,-2.5693,-2.5693,-2.5693,-2.5693,-2.5693,-2.5693,-2.5693,-2.5693,-2.5693,-2.5693,-2.5693,-2.5693,-2.5693,-2.5693,-2.5693,-2.5693,-2.5693,-2.5693,-2.5693,-2.5693,-2.5693,-2.5693,-2.5693,-2.5693,-2.5693,-2.5693,-2.5693,-2.5693,-2.5693,-2.5693,-2.5693,-2.5693,-2.5693,-2.5693,0.0,0.0,0.0,0.0,0.0,0.0,0.0,0.0,0.0,0.0,0.0,0.0,0.0,0.0,0.0,0.0,0.0,0.0,-2.5693,0.0,-2.5693,-2.5693,-2.5469,-2.5332,-2.5332,-2.4883,-2.4541,-2.4297,-2.4385,-2.4658,-2.5135,-2.5352,-2.5566,-2.5693,-2.5693,-2.5693,-2.5693,-2.5693,-2.5693,-2.5693,-2.5693,-2.5693,-2.5693,-2.3487,0.0,-2.5645,0.0,-2.671,-2.7314,-2.7669,-2.7826,-2.7959,-2.8252,-2.8037,-2.7959,-2.8262,-2.8291,-2.8291,-2.8291,-2.8291,-2.8291,-2.8291,-2.8291,-2.8291,-2.8291,-2.8008,0.0,-2.7718,-2.707,-2.6641,-2.6387,-2.6084,0.0,0.0,0.0,0.0,0.0,-2.5693,-2.5693,-2.5693,-2.5693,-2.5693,-2.5693,-2.5693,-2.5693,-2.5693,-2.5693,-2.5693,-2.5693,-2.5693,-2.5693,-2.5693,-2.5693,-2.5693,-2.5693,-2.5693,-2.5693,-2.5693,-2.5693,-2.5693,-2.5693,-2.5693,-2.5693,-2.5693,-2.5693,-2.5693,-2.5693,-2.5693,-2.5693,-2.5693,-2.5693,-2.5693,-2.5693,-2.5693,-2.5693,-2.5693,-2.5693,0.0,0.0,0.0,0.0,0.0,0.0,-2.5693,-2.5693,-2.5693,0.0,0.0,0.0,0.0,0.0,0.0,0.0,0.0,0.0,0.0,0.0,0.0,-2.5098,-2.4873,-2.4873,-2.4443,-2.4072,-2.3809,-2.4228,-2.458,-2.4902,-2.5488,-2.5693,-2.5693,-2.5693,-2.5693,-2.5693,-2.5693,-2.5693,-2.5693,-2.5693,-2.5693,-2.5693,-2.329,-2.4543,-2.55,-2.6111,-2.7043,-2.7708,-2.7718,-2.8018,-2.8281,-2.8291,-2.8291,-2.8281,-2.8291,-2.8291,-2.8291,-2.8291,-2.8291,-2.8291,-2.8291,-2.8291,-2.8291,0.0,0.0,-2.8096,-2.7728,-2.7708,-2.7236,-2.6387,0.0,0.0,-2.5693,0.0,-2.5693,-2.5693,-2.5693,-2.5693,-2.5693,-2.5693,-2.5693,-2.5693,-2.5693,-2.5693,-2.5693,-2.5693,-2.5693,-2.5693,-2.5693,-2.5693,-2.5693,-2.5693,-2.5693,-2.5693,-2.5693,-2.5693,-2.5693,-2.5693,-2.5693,-2.5693,-2.5693,-2.5693,-2.5693,-2.5693,-2.5693,-2.5693,-2.5693,-2.5693,-2.5693,-2.5693,-2.5693,-2.5693,-2.5693,-2.5693,-2.5693,-2.5693,0.0,0.0,0.0,0.0,0.0,0.0,-2.5693,-2.5693,-2.5693,0.0,0.0,0.0,0.0,0.0,0.0,0.0,0.0,-2.5693,-2.5303,0.0,-2.5125,-2.4639,-2.4424,-2.4414,-2.4004,-2.3799,-2.3809,-2.4228,-2.4414,-2.4473,-2.5304,-2.5693,-2.5693,-2.5693,-2.5693,-2.5693,-2.5693,-2.5693,-2.5693,-2.5693,-2.5693,-2.5693,-2.3039,-2.4492,-2.5695,-2.645,-2.7434,-2.8096,-2.8096,-2.8203,-2.8291,-2.8291,-2.8291,-2.8291,-2.8291,-2.8291,-2.8291,0.0,-2.8291,-2.8291,0.0,-2.8291,-2.8291,-2.8291,-2.8291,-2.8232,-2.8096,-2.7812,-2.7581,-2.7307,0.0,0.0,0.0,-2.5693,-2.5693,-2.5693,-2.5693,-2.5693,-2.5693,-2.5693,-2.5693,-2.5693,-2.5693,-2.5693,-2.5693,-2.5693,-2.5693,-2.5693,-2.5693,-2.5693,-2.5693,-2.5693,-2.5693,-2.5693,-2.5693,-2.5693,-2.5693,-2.5693,-2.5693,-2.5693,-2.5693,-2.5693,-2.5693,-2.5693,-2.5693,-2.5693,-2.5693,-2.5693,-2.5693,-2.5693,-2.5693,-2.5693,-2.5693,-2.5693,-2.5693,-2.5693,-2.5693,0.0,0.0,0.0,0.0,0.0,-2.5693,-2.5693,0.0,-2.5693,0.0,0.0,0.0,0.0,0.0,0.0,0.0,0.0,-2.4853,0.0,-2.4619,-2.4199,-2.3984,-2.3984,-2.3555,-2.3496,-2.3809,-2.4228,-2.458,-2.4893,-2.5478,-2.5693,-2.5693,-2.5693,-2.5693,-2.5693,-2.5693,-2.5693,-2.5693,-2.5693,-2.5693,-2.5693,-2.2626,-2.4202,-2.5514,-2.6402,-2.7422,-2.813,-2.813,-2.8237,-2.8291,-2.8291,-2.8291,-2.8291,-2.8291,-2.8291,0.0,-2.8291,-2.8291,-2.8291,-2.8291,-2.8291,-2.8291,-2.8291,-2.8291,-2.8291,-2.8291,-2.8037,0.0,-2.7718,-2.6807,-2.625,-2.5977,-2.5762,-2.5693,-2.5693,-2.5693,-2.5693,-2.5693,-2.5693,-2.5693,-2.5693,-2.5693,-2.5693,-2.5693,-2.5693,-2.5693,-2.5693,-2.5693,-2.5693,-2.5693,-2.5693,-2.5693,-2.5693,-2.5693,-2.5693,-2.5693,-2.5693,-2.5693,-2.5693,-2.5693,-2.5693,-2.5693,-2.5693,-2.5693,-2.5693,-2.5693,-2.5693,-2.5693,-2.5693,-2.5693,-2.5693,-2.5693,-2.5693,-2.5693,-2.5693,-2.5693,-2.5693,-2.5693,0.0,0.0,0.0,0.0,0.0,0.0,-2.5538,-2.5488,0.0,0.0,0.0,0.0,0.0,0.0,-2.4824,-2.4404,0.0,-2.418,-2.376,-2.3545,-2.3545,-2.3227,-2.3369,-2.3809,-2.4228,-2.4658,-2.5135,-2.5547,-2.5693,-2.5693,-2.5693,-2.5693,-2.5693,-2.5693,-2.5693,-2.5693,-2.5693,-2.5693,-2.5693,-2.2179,-2.3704,-2.5,0.0,-2.7034,0.0,-2.7853,-2.8121,-2.8291,-2.8291,-2.8291,-2.8291,-2.8291,-2.8291,-2.8291,-2.8291,0.0,0.0,0.0,-2.8291,-2.8291,-2.8291,-2.8291,-2.8291,-2.8291,-2.8291,-2.8086,-2.7718,-2.6875,-2.6445,-2.6387,-2.5977,-2.5713,-2.5693,-2.5693,-2.5693,-2.5693,-2.5693,-2.5693,-2.5693,-2.5693,-2.5693,-2.5693,-2.5693,-2.5693,-2.5693,-2.5693,-2.5693,-2.5693,-2.5693,-2.5693,-2.5693,-2.5693,-2.5693,-2.5693,-2.5693,-2.5693,-2.5693,-2.5693,-2.5693,-2.5693,-2.5693,-2.5693,-2.5693,-2.5693,-2.5693,-2.5693,-2.5693,-2.5693,-2.5684,-2.5684,-2.5684,-2.5693,-2.5645,-2.5635,-2.5684,-2.5684,0.0,0.0,0.0,0.0,0.0,0.0,-2.5283,-2.5067,0.0,0.0,0.0,0.0,0.0,-2.4336,-2.4375,-2.3965,-2.374,-2.374,-2.334,-2.3091,-2.3091,-2.3091,-2.3379,-2.3848,-2.4238,-2.4668,-2.5137,-2.5557,-2.5693,-2.5693,-2.5693,-2.5693,-2.5693,-2.5693,-2.5693,-2.5693,-2.5693,-2.5693,-2.5684,0.0,0.0,-2.439,-2.5284,-2.6209,-2.6971,-2.7422,-2.7799,-2.8077,-2.8291,-2.8291,-2.8291,-2.8291,-2.8291,-2.8291,-2.8291,-2.8291,-2.8291,-2.8291,-2.8291,-2.8291,-2.8291,-2.8291,-2.8291,-2.8291,-2.8291,-2.8086,-2.7718,-2.7513,-2.7031,-2.6387,-2.6279,-2.6055,-2.5693,-2.5693,-2.5693,-2.5693,-2.5693,-2.5693,-2.5693,-2.5693,-2.5693,-2.5693,-2.5693,-2.5693,-2.5693,-2.5693,-2.5693,-2.5693,-2.5693,-2.5693,-2.5693,-2.5693,-2.5693,-2.5693,-2.5693,-2.5693,-2.5693,-2.5693,-2.5693,-2.5693,-2.5693,-2.5693,-2.5693,-2.5693,-2.5693,-2.5693,-2.5693,-2.5693,-2.5635,-2.543,-2.5382,-2.5342,-2.5137,-2.5235,-2.5382,-2.5382,-2.5586,0.0,0.0,-2.5439,-2.5225,-2.5225,-2.4824,-2.457,0.0,0.0,0.0,0.0,-2.3578,-2.3549,-2.3926,-2.3516,-2.3247,-2.3247,-2.3149,-2.3091,-2.3091,-2.3091,-2.3491,-2.4277,-2.4375,-2.4844,-2.5538,-2.5645,-2.5693,-2.5693,-2.5693,-2.5693,-2.5693,-2.5693,-2.5693,-2.5693,-2.5693,-2.5693,-2.5635,-2.1174,-2.2248,-2.3311,-2.4047,-2.5148,-2.61,-2.6718,-2.7323,-2.7799,-2.8067,-2.8237,-2.8291,-2.8291,-2.8291,-2.8291,-2.8291,-2.8291,-2.8291,-2.8291,-2.8291,-2.8291,-2.8291,-2.8291,-2.8291,-2.8291,-2.8291,-2.8174,-2.7949,-2.7816,-2.7483,-2.6973,-2.6768,-2.6445,-2.6035,-2.6035,-2.5879,-2.5693,-2.5693,-2.5693,-2.5693,-2.5693,-2.5693,-2.5693,-2.5693,-2.5693,-2.5693,-2.5693,-2.5693,-2.5693,-2.5693,-2.5693,-2.5693,-2.5693,-2.5693,-2.5693,-2.5693,-2.5693,-2.5693,-2.5693,-2.5693,-2.5693,-2.5693,-2.5693,-2.5693,-2.5693,-2.5693,-2.5693,-2.5693,-2.5586,-2.544,-2.5186,-2.503,-2.4883,-2.4735,-2.4932,-2.5137,-2.5284,-2.5363,0.0,-2.543,-2.5039,-2.4775,-2.4775,-2.4385,-2.4131,-2.4131,-2.373,0.0,-2.3496,-2.3227,-2.3198,-2.3486,-2.3218,-2.3091,-2.3091,-2.3091,-2.3091,-2.3091,-2.334,-2.3779,-2.4424,-2.4619,-2.5088,-2.5693,-2.5693,-2.5693,-2.5693,-2.5693,-2.5693,-2.5693,-2.5693,-2.5693,-2.5693,-2.5693,-2.5693,-2.5625,-2.0155,-2.1117,-2.2078,-2.2692,-2.3927,-2.511,-2.5789,-2.6663,-2.7323,-2.7691,-2.8023,-2.8184,-2.8237,-2.8237,-2.8237,-2.8291,-2.8291,-2.8291,-2.8291,-2.8291,-2.8291,-2.8291,-2.8291,-2.8291,-2.8291,-2.8291,-2.8291,-2.8291,-2.7939,-2.7777,-2.7708,-2.7285,-2.6885,-2.6484,-2.6416,-2.6182,-2.5781,-2.5713,-2.5693,-2.5693,-2.5693,-2.5693,-2.5693,-2.5693,-2.5693,-2.5693,-2.5693,-2.5693,-2.5693,-2.5693,-2.5693,-2.5693,-2.5693,-2.5693,-2.5693,-2.5693,-2.5693,-2.5693,-2.5693,-2.5693,-2.5693,-2.5693,-2.5693,-2.5693,-2.5645,-2.5635,-2.5635,-2.5538,-2.5333,-2.5079,-2.4735,-2.448,-2.4332,-2.4282,-2.4529,-2.4815,-2.5051,0.0,-2.5049,-2.498,-2.459,-2.427,-2.427,-2.39,-2.3647,-2.3602,-2.3217,-2.3003,-2.3047,-2.3047,-2.3057,-2.3091,-2.3091,-2.3091,-2.3091,-2.3091,-2.3091,-2.3101,-2.3584,-2.4014,-2.4434,-2.4863,-2.5312,-2.5635,-2.5635,-2.5635,-2.5586,-2.5586,-2.5586,-2.5635,-2.5635,-2.5635,-2.5693,-2.5693,-2.5645,-2.5528,-1.9873,-2.0436,-2.111,-2.1729,-2.2636,-2.3712,-2.4834,-2.5734,-2.65,-2.7098,-2.7368,-2.7647,-2.7906,-2.796,-2.8067,-2.8291,-2.8291,-2.8291,-2.8291,-2.8291,-2.8291,-2.8291,-2.8291,-2.8291,-2.8291,-2.8291,-2.8291,-2.8291,-2.8232,-2.8018,-2.7718,-2.765,-2.7334,-2.6904,-2.6543,-2.6357,-2.6269,-2.5889,-2.5693,-2.5693,-2.5693,-2.5693,-2.5693,-2.5693,-2.5693,-2.5693,-2.5693,-2.5693,-2.5693,-2.5693,-2.5693,-2.5693,-2.5693,-2.5693,-2.5693,-2.5693,-2.5693,-2.5693,-2.5693,-2.5693,-2.5693,-2.5693,-2.5693,-2.5635,-2.543,-2.5333,-2.5235,-2.4784,-2.4627,-2.4381,-2.3678,-2.3529,-2.3429,-2.3179,-2.3578,-2.3965,-2.4072,0.0,-2.4715,-2.4514,-2.4141,-2.3796,-2.356,-2.3185,-2.2855,-2.2625,-2.2558,-2.2618,-2.2847,-2.2847,-2.2925,-2.3091,-2.3091,-2.3091,-2.3091,-2.3091,-2.3091,-2.3101,-2.3584,-2.4014,-2.4434,-2.4863,-2.5217,-2.5333,-2.5333,-2.5235,-2.503,-2.503,-2.5137,-2.5333,-2.5333,-2.5489,-2.5693,-2.5693,-2.5498,-2.5107,-1.9591,-1.9931,-2.0378,-2.0838,-2.1623,-2.258,-2.3656,-2.4548,-2.5386,-2.6172,-2.6545,-2.6808,-2.7142,-2.7305,-2.7476,-2.7584,-2.7906,-2.8067,-2.8067,-2.8237,-2.8291,-2.8291,-2.8291,-2.8291,-2.8291,-2.8291,-2.8291,-2.8291,-2.8291,-2.8193,-2.7998,-2.7998,-2.7773,-2.7363,-2.7168,-2.6943,-2.6699,-2.6269,-2.6084,-2.6064,-2.5781,-2.5693,-2.5693,-2.5693,-2.5586,-2.5489,-2.5489,-2.5382,-2.5284,-2.544,-2.5489,-2.5489,-2.5635,-2.5693,-2.5693,-2.5693,-2.5693,-2.5693,-2.5693,-2.5693,-2.5693,-2.5693,-2.5586,-2.543,-2.5137,-2.4883,-2.4529,-2.4134,-2.3728,-2.3279,-2.2728,-2.2426,-2.2156,-2.2003,-2.2417,0.0,0.0,-2.3552,-2.3809,-2.3691,-2.3432,-2.3092,-2.2725,-2.2412,-2.2113,-2.19,-2.1856,-2.1935,-2.2201,-2.2353,-2.2583,-2.2925,-2.3057,-2.3091,-2.3091,-2.3091,-2.3164,-2.3264,-2.369,-2.3977,-2.4127,-2.4593,-2.4742,-2.4637,-2.448,-2.443,-2.4489,-2.4489,-2.4735,-2.5088,-2.5235,-2.544,-2.5664,-2.5469,-2.5244,-2.5018,-1.9424,-1.9591,-1.9815,-2.0162,-2.0831,-2.1737,-2.2652,-2.3544,-2.439,-2.5302,-2.5551,-2.5817,-2.6218,-2.6436,-2.6654,-2.6763,-2.7305,-2.7638,-2.7691,-2.7853,-2.8077,-2.8291,-2.8291,-2.8291,-2.8291,-2.8291,-2.8291,-2.8291,-2.8291,-2.8291,-2.8291,-2.8291,-2.8125,-2.7865,-2.7767,-2.748,-2.7139,-2.6719,-2.6484,-2.6357,-2.6025,-2.5781,-2.5693,-2.5693,-2.5538,-2.5284,-2.5284,-2.5137,-2.4932,-2.5186,-2.5284,-2.5342,-2.5635,-2.5693,-2.5693,-2.5693,-2.5586,-2.5538,-2.5586,-2.5538,-2.544,-2.544,-2.5235,-2.4932,-2.4587,-2.4183,-2.3678,-2.322,-2.2619,-2.2013,-2.1615,-2.1143,-2.0804,-2.0824,0.0,0.0,0.0,-2.2612,-2.2847,-2.2843,-2.2675,-2.2344,-2.182,-2.1535,-2.1257,-2.0988,-2.0943,-2.1078,-2.1347,-2.1633,-2.1998,-2.2539,-2.2882,-2.3013,-2.2916,-2.3013,-2.3136,-2.3238,-2.3661,-2.3796,-2.3749,-2.4049,-2.4075,-2.3836,-2.3578,-2.3628,-2.3836,-2.3886,-2.4282,-2.4833,-2.5088,-2.5373,-2.5537,-2.5195,-2.4941,-2.4621,-1.9424,-1.9424,-1.954,-1.9815,-2.0321,-2.1067,-2.1995,-2.2893,-2.368,-2.4432,-2.4454,-2.4659,-2.5221,-2.5331,-2.5551,-2.6145,-2.6482,-2.6826,-2.7043,-2.7098,-2.7476,-2.8237,-2.8291,-2.8291,-2.8291,-2.8291,-2.8291,-2.8291,-2.8291,-2.8291,-2.8291,-2.8291,-2.8271,-2.8232,-2.7894,-2.7699,-2.764,-2.7148,-2.6738,-2.6387,-2.6357,-2.6103,-2.5693,-2.5693,-2.5538,-2.5284,-2.5284,-2.5137,-2.4932,-2.5186,-2.5284,-2.5342,-2.5635,-2.5693,-2.5693,-2.5693,-2.5342,-2.503,-2.5235,-2.499,-2.4587,-2.4587,-2.4381,-2.4026,-2.3529,-2.3179,-2.2719,-2.1692,-2.1234,-2.079,-2.0034,-1.9579,-1.9403,-1.9675,0.0,0.0,-2.1197,-2.1748,-2.2108,-2.219,-2.1954,-2.1481,-2.0772,-2.051,-2.0184,-1.9666,-1.9621,-1.9857,-2.0374,-2.06,-2.1051,-2.1785,-2.2441,-2.2706,-2.2441,-2.2811,-2.2874,-2.2684,-2.3258,-2.3414,-2.3169,-2.33,-2.3229,-2.2979,-2.2979,-2.2979,-2.3029,-2.3279,-2.3827,-2.4578,-2.4833,-2.5034,-2.5165,-2.5125,-2.4421,-2.3505,-1.9424,-1.9424,-1.9424,-1.9533,-2.004,-2.0608,-2.1124,-2.1873,-2.257,-2.3191,-2.3062,-2.3167,-2.3784,-2.3991,-2.4317,-2.4927,-2.5606,-2.6172,-2.6391,-2.6663,-2.7142,-2.8014,-2.8237,-2.8291,-2.8291,-2.8291,-2.8291,-2.8291,-2.8291,-2.8291,-2.8291,-2.8291,-2.8291,-2.8281,-2.8125,-2.8057,-2.8027,-2.7607,-2.7324,-2.718,-2.6602,-2.6289,-2.6113,-2.5791,-2.543,-2.503,-2.503,-2.4784,-2.4548,-2.4941,-2.503,-2.5137,-2.5538,-2.5693,-2.5635,-2.5284,-2.4686,-2.4134,-2.3877,-2.3935,-2.3985,-2.3777,-2.3429,-2.3029,-2.2627,-2.1962,-2.1251,-2.0688,-2.0063,-1.9435,-1.8994,-1.8658,-1.8448,-1.8486,0.0,-1.9368,-2.0117,-2.0763,-2.1174,-2.1212,-2.1087,-2.0673,-1.982,-1.9355,-1.8942,-1.8427,-1.838,-1.8611,-1.908,-1.9957,-2.0365,-2.0357,-2.0907,-2.141,-2.1758,-2.2162,-2.2161,-2.1852,-2.2303,-2.2345,-2.1979,-2.2064,-2.1979,-2.1928,-2.1928,-2.2173,-2.2677,-2.2929,-2.3628,-2.451,-2.4356,-2.4497,-2.4754,-2.3906,-2.3331,-2.2928,-1.9424,-1.9424,-1.9424,-1.9424,-1.988,-2.0385,-2.0658,-2.1253,-2.1896,-2.24,-2.2059,-2.2059,-2.2675,-2.2885,-2.3207,-2.3832,-2.4676,-2.5247,-2.5523,-2.6063,-2.6718,-2.7584,-2.7799,-2.7916,-2.8023,-2.7916,-2.7916,-2.8023,-2.7916,-2.797,-2.8184,-2.8184,-2.8237,-2.8291,-2.8237,-2.8184,-2.8165,-2.7767,-2.752,-2.7336,-2.6621,-2.6294,-2.6179,-2.5751,-2.5342,-2.5039,-2.5039,-2.4735,-2.4498,-2.4883,-2.499,-2.4981,-2.543,-2.544,-2.5186,-2.4578,-2.3886,-2.3179,-2.2467,-2.2417,-2.2568,-2.256,-2.2165,-2.1666,-2.1412,-2.0696,-2.0027,-1.9613,-1.8962,-1.8367,-1.8046,-1.7705,-1.7491,-1.755,-1.7879,-1.8401,-1.922,-1.9729,-2.0093,-2.0329,-2.0093,-1.9583,-1.8812,-1.8257,-1.7792,-1.7372,-1.7365,-1.7552,-1.8017,-1.8942,-1.9363,-1.908,-1.9524,-1.9941,-2.0383,-2.1093,-2.1341,-2.1052,-2.1321,-2.1276,-2.0909,-2.0909,-2.1062,-2.1326,-2.1377,-2.1928,-2.2778,-2.3029,-2.3678,-2.4442,-2.4082,-2.4031,-2.4013,-2.2898,-2.2281,-2.2007,-1.9424,-1.9424,-1.9424,-1.9424,-1.988,-2.0385,-2.0658,-2.1253,-2.1782,-2.2059,-2.1546,-2.1432,-2.1995,-2.2108,-2.2335,-2.2958,-2.3528,-2.4033,-2.4376,-2.5191,-2.6063,-2.6935,-2.6989,-2.7152,-2.7377,-2.7152,-2.7152,-2.7377,-2.7152,-2.7314,-2.7906,-2.7906,-2.8014,-2.8291,-2.8014,-2.7906,-2.7853,-2.7539,-2.7195,-2.6778,-2.6343,-2.6079,-2.586,-2.5447,-2.5284,-2.5284,-2.5284,-2.5137,-2.4932,-2.5186,-2.5137,-2.4932,-2.5186,-2.4932,-2.4332,-2.3529,-2.2929,-2.2274,-2.1191,-2.0483,-2.0233,-2.0731,-2.0483,-2.0034,-1.9724,-1.948,-1.9116,-1.8527,-1.7984,-1.7521,-1.725,-1.6717,-1.6461,-1.694,-1.6982,-1.7441,-1.8643,-1.8781,-1.9004,-1.9509,-1.8896,-1.8195,-1.7731,-1.7246,-1.6878,-1.6636,-1.6588,-1.6817,-1.7279,-1.7552,-1.7839,-1.8087,-1.836,-1.8384,-1.8082,-1.9758,-2.0508,-2.0285,-2.0421,-2.0328,-2.0078,-2.0078,-2.055,-2.1318,-2.1573,-2.2325,-2.3329,-2.3578,-2.4026,-2.4433,-2.4121,-2.3567,-2.2924,-2.2225,-2.1407,-2.0628,-1.9424,-1.9424,-1.9424,-1.9424,-1.9707,-1.9989,-2.004,-2.0443,-2.0737,-2.0852,-2.0507,-2.045,-2.1067,-2.1124,-2.1531,-2.2626,-2.307,-2.3408,-2.3761,-2.3801,-2.4119,-2.477,-2.6209,-2.7152,-2.7377,-2.7152,-2.7043,-2.7098,-2.6871,-2.6935,-2.726,-2.726,-2.7422,-2.7647,-2.7584,-2.753,-2.753,-2.7422,-2.7195,-2.6778,-2.6343,-2.613,-2.592,-2.5447,-2.5186,-2.503,-2.503,-2.4745,-2.4449,-2.4637,-2.4578,-2.4332,-2.4233,-2.3678,-2.3029,-2.2577,-2.181,-2.0944,-2.0233,-1.9509,-1.9049,-1.962,-1.9457,-1.919,-1.9094,-1.8743,-1.8331,-1.8174,-1.7673,-1.7241,-1.6931,-1.6526,-1.64,-1.6661,-1.6888,-1.7301,-1.8179,-1.8319,-1.8365,-1.8542,-1.7978,-1.7419,-1.6951,-1.6643,-1.6312,-1.6069,-1.6218,-1.6359,-1.6494,-1.6965,-1.7254,-1.7328,-1.758,-1.784,-1.8032,-1.902,-1.9318,-1.8883,-1.942,-1.9628,-1.9524,-1.9931,-2.055,-2.1318,-2.1573,-2.2325,-2.3329,-2.3438,-2.3633,-2.3791,-2.3033,-2.2342,-2.166,-2.0482,-1.9958,-1.9911,-1.9424,-1.9424,-1.9424,-1.9424,-1.9649,-1.9815,-1.9815,-2.0104,-2.027,-2.027,-1.9989,-1.9982,-2.0493,-2.0551,-2.0895,-2.1759,-2.2101,-2.2441,-2.2732,-2.2675,-2.295,-2.3664,-2.5046,-2.599,-2.6545,-2.6273,-2.6273,-2.65,-2.6218,-2.6327,-2.6826,-2.6826,-2.7043,-2.7368,-2.71,-2.7025,-2.7015,-2.6749,-2.648,-2.6227,-2.5806,-2.5631,-2.561,-2.5142,-2.4883,-2.4735,-2.4735,-2.444,-2.4044,-2.4134,-2.3877,-2.3379,-2.2769,-2.2257,-2.1759,-2.131,-2.0644,-1.9879,-1.9361,-1.8736,-1.8325,-1.8534,-1.8475,-1.8311,-1.8311,-1.8055,-1.7852,-1.7852,-1.7511,-1.7112,-1.676,-1.6466,-1.6324,-1.6448,-1.6602,-1.6925,-1.7581,-1.7574,-1.7574,-1.7667,-1.72,-1.673,-1.6447,-1.6218,-1.5981,-1.5832,-1.5927,-1.6028,-1.6028,-1.6477,-1.6718,-1.6697,-1.719,-1.7603,-1.7821,-1.8592,-1.8701,-1.8215,-1.871,-1.9004,-1.9108,-1.9768,-2.055,-2.1326,-2.1725,-2.2325,-2.3111,-2.302,-2.3073,-2.3,-2.1951,-2.1122,-2.0416,-1.9317,-1.8958,-1.9042,-1.9424,-1.9424,-1.9424,-1.9424,-1.9591,-1.9758,-1.9758,-2.004,-2.022,-2.022,-1.9931,-1.9873,-2.0213,-2.027,-2.0385,-2.0658,-2.1002,-2.1224,-2.1494,-2.1722,-2.2274,-2.3023,-2.3398,-2.3947,-2.4841,-2.4774,-2.5012,-2.558,-2.5197,-2.5509,-2.6327,-2.6327,-2.6607,-2.7084,-2.6505,-2.6231,-2.6203,-2.558,-2.5301,-2.5237,-2.488,-2.484,-2.4931,-2.452,-2.4381,-2.4381,-2.4332,-2.3976,-2.3529,-2.3479,-2.2929,-2.2114,-2.114,-2.0783,-2.0577,-1.9828,-1.942,-1.9063,-1.8534,-1.8167,-1.7911,-1.7635,-1.7582,-1.7582,-1.7582,-1.7582,-1.7582,-1.7582,-1.7407,-1.7119,-1.6794,-1.6486,-1.6283,-1.6259,-1.6245,-1.6366,-1.6885,-1.673,-1.6636,-1.6885,-1.6461,-1.6177,-1.6177,-1.5927,-1.5784,-1.5784,-1.5784,-1.5791,-1.5818,-1.6126,-1.6299,-1.6402,-1.7184,-1.7586,-1.762,-1.8438,-1.852,-1.8016,-1.8377,-1.8624,-1.893,-1.9768,-2.0601,-2.1326,-2.1776,-2.2274,-2.2743,-2.2354,-2.223,-2.2077,-2.0852,-1.9909,-1.9154,-1.8559,-1.8218,-1.8226,-1.9424,-1.9424,-1.9424,-1.9424,-1.9424,-1.9482,-1.9482,-1.954,-1.9591,-1.9591,-1.954,-1.9591,-1.9873,-1.9931,-2.0097,-2.0658,-2.0773,-2.073,-2.0598,-2.0414,-2.0419,-2.0663,-2.0703,-2.119,-2.2055,-2.3536,-2.4405,-2.4522,-2.3997,-2.3905,-2.4332,-2.4332,-2.4553,-2.488,-2.495,-2.4966,-2.4966,-2.4824,-2.4618,-2.428,-2.4199,-2.4119,-2.3945,-2.3664,-2.3578,-2.3529,-2.3079,-2.2728,-2.2375,-2.17,-2.1242,-2.0842,-2.0181,-1.9665,-1.9235,-1.9034,-1.8684,-1.8227,-1.8122,-1.7905,-1.7687,-1.7635,-1.7582,-1.7582,-1.7582,-1.7582,-1.7582,-1.7582,-1.7407,-1.7186,-1.7119,-1.6677,-1.635,-1.6539,-1.6382,-1.6312,-1.6636,-1.6454,-1.6312,-1.6366,-1.6076,-1.5879,-1.5879,-1.5832,-1.5784,-1.5784,-1.5784,-1.5932,-1.6166,-1.6239,-1.6536,-1.6998,-1.7401,-1.7688,-1.7921,-1.8492,-1.8624,-1.8318,-1.9049,-1.9465,-1.9517,-2.0351,-2.0917,-2.1267,-2.1224,-2.1471,-2.1895,-2.1163,-2.0794,-2.0653,-1.9717,-1.8816,-1.8023,-1.7503,-1.7535,-1.7994,-1.9424,-1.9424,-1.9424,-1.9424,-1.9424,-1.9424,-1.9424,-1.9424,-1.9424,-1.9424,-1.9424,-1.9424,-1.9591,-1.9591,-1.9645,-1.9839,-1.9818,-1.9807,-1.9668,-1.948,-1.9521,-1.9854,-1.9902,-2.0168,-2.0753,-2.175,-2.2654,-2.3374,-2.3074,-2.3134,-2.3506,-2.3506,-2.3665,-2.3982,-2.3896,-2.3861,-2.3852,-2.3669,-2.3485,-2.3251,-2.3149,-2.3019,-2.2929,-2.2627,-2.2476,-2.2274,-2.1861,-2.1404,-2.085,-2.0115,-1.9805,-1.9606,-1.9049,-1.8691,-1.837,-1.8258,-1.8055,-1.7799,-1.7799,-1.7694,-1.7582,-1.7582,-1.7582,-1.7582,-1.7582,-1.7582,-1.7582,-1.7582,-1.7514,-1.7367,-1.7226,-1.6951,-1.6699,-1.6522,-1.6339,-1.6238,-1.6231,-1.6116,-1.6028,-1.6028,-1.5879,-1.5784,-1.5784,-1.5784,-1.5784,-1.5784,-1.5965,-1.6112,-1.6315,-1.6589,-1.6884,-1.7192,-1.7702,-1.806,-1.8167,-1.899,-1.9198,-1.8848,-1.9264,-1.9532,-1.9532,-2.0197,-2.0557,-2.055,-2.0498,-2.0456,-2.0276,-1.9675,-1.9378,-1.923,-1.85,-1.7888,-1.7466,-1.7239,-1.7621,-1.8365,-1.9424,-1.9424,-1.9424,-1.9424,-1.9424,-1.9424,-1.9424,-1.9424,-1.9424,-1.9424,-1.9424,-1.941,-1.9299,-1.9245,-1.9118,-1.8871,-1.8844,-1.8836,-1.8755,-1.8734,-1.8981,-1.9465,-1.9519,-1.9628,-1.9892,-1.9852,-2.0567,-2.2092,-2.2028,-2.2262,-2.2678,-2.2678,-2.2784,-2.2978,-2.2711,-2.2568,-2.2543,-2.2249,-2.2072,-2.2072,-2.1869,-2.1768,-2.1717,-2.1463,-2.1216,-2.096,-2.0688,-2.0071,-1.9413,-1.8833,-1.8677,-1.8572,-1.8115,-1.7911,-1.7911,-1.7687,-1.7582,-1.7582,-1.7582,-1.7582,-1.7582,-1.7582,-1.7582,-1.7582,-1.7582,-1.7582,-1.7582,-1.7582,-1.7582,-1.7508,-1.732,-1.7233,-1.7038,-1.6556,-1.6429,-1.6246,-1.5945,-1.5905,-1.5838,-1.5791,-1.5784,-1.5784,-1.5784,-1.5872,-1.5905,-1.5905,-1.6179,-1.6373,-1.6469,-1.6938,-1.7226,-1.7273,-1.7977,-1.8318,-1.8318,-1.9354,-1.962,-1.9168,-1.9168,-1.922,-1.9324,-1.9835,-1.9828,-1.9569,-1.9657,-1.9331,-1.8608,-1.818,-1.8057,-1.8011,-1.741,-1.7192,-1.7239,-1.7239,-1.7846,-1.8589,-1.9424,-1.9424,-1.9424,-1.9424,-1.9424,-1.9424,-1.9424,-1.9424,-1.9424,-1.9424,-1.9424,-1.9272,-1.9011,-1.8758,-1.8591,-1.8551,-1.8551,-1.8424,-1.8123,-1.8103,-1.8037,-1.7928,-1.7914,-1.802,-1.8298,-1.831,-1.9017,-2.0507,-2.0219,-2.0127,-2.0171,-2.0171,-2.0223,-2.0275,-2.0429,-2.0509,-2.0501,-2.0454,-2.0439,-2.0439,-2.0388,-2.0388,-2.0336,-2.0086,-1.9939,-1.9828,-1.9294,-1.8885,-1.8527,-1.822,-1.8122,-1.8062,-1.7747,-1.7635,-1.7635,-1.7635,-1.7582,-1.7582,-1.7582,-1.7582,-1.7582,-1.7582,-1.7582,-1.7582,-1.7582,-1.7582,-1.7582,-1.7582,-1.7582,-1.7569,-1.7528,-1.7373,-1.7172,-1.7092,-1.6814,-1.6547,-1.6253,-1.6213,-1.6119,-1.5811,-1.5784,-1.5784,-1.5784,-1.6059,-1.6213,-1.6213,-1.648,-1.676,-1.7072,-1.7159,-1.732,-1.7515,-1.7884,-1.8069,-1.8069,-1.8677,-1.8833,-1.8527,-1.8781,-1.8997,-1.9324,-1.9628,-1.9465,-1.8916,-1.8451,-1.8214,-1.8027,-1.726,-1.7148,-1.7457,-1.6897,-1.6824,-1.7019,-1.7019,-1.738,-1.7831,-1.9424,-1.9424,-1.9424,-1.9424,-1.9424,-1.9424,-1.9424,-1.9424,-1.9305,-1.9145,-1.9118,-1.9005,-1.8718,-1.8564,-1.8424,-1.8257,-1.8243,-1.811,-1.7809,-1.7789,-1.7722,-1.7589,-1.7582,-1.7641,-1.7747,-1.7799,-1.8124,-1.8731,-1.9062,-1.9309,-1.948,-1.948,-1.948,-1.948,-1.9576,-1.9628,-1.9628,-1.9628,-1.9628,-1.9628,-1.9457,-1.9346,-1.9346,-1.9101,-1.8945,-1.8945,-1.8475,-1.816,-1.795,-1.7799,-1.7799,-1.7747,-1.7635,-1.7582,-1.7582,-1.7582,-1.7582,-1.7582,-1.7582,-1.7582,-1.7582,-1.7582,-1.7582,-1.7582,-1.7582,-1.7582,-1.7582,-1.7582,-1.7582,-1.7582,-1.7582,-1.7475,-1.7387,-1.7226,-1.7092,-1.6854,-1.6553,-1.6513,-1.6466,-1.6333,-1.6319,-1.6319,-1.6319,-1.644,-1.6513,-1.6513,-1.6787,-1.7065,-1.7192,-1.7353,-1.7501,-1.7582,-1.7852,-1.8016,-1.8016,-1.852,-1.8677,-1.8422,-1.867,-1.8781,-1.8795,-1.89,-1.8695,-1.8112,-1.7883,-1.7475,-1.7038,-1.6632,-1.6663,-1.692,-1.6685,-1.6817,-1.7153,-1.7019,-1.72,-1.7419]}]]